[[{"header":{"parameterUnit":"m.s-1","parameterCategory":1,"la1":30.6,"la2":29.2853,"lo1":-89.7004,"lo2":-87.6739,"dy":0.0162,"dx":0.0183,"nx":112,"ny":82,"refTime":"2023-07-24T06:00:00:Z","depth":0,"parameterNumber":2,"parameterNumberName":"U-component_of_WINDS"},"data":[0.0,0.0,0.0,0.0,0.0,0.0,0.0,0.0,0.0,0.0,0.0,0.0,0.0,0.0,0.0,0.0,0.0,0.0,0.0,0.0,0.0,0.0,0.0,0.0,0.0,0.0,0.0,0.0,0.0,0.0,0.0,0.0,0.0,0.0,0.0,0.0,0.0,0.0,0.0,0.0,0.0,0.0,0.0,0.0,0.0,0.0,0.0,0.0,0.0,0.0,0.0,0.0,0.0,0.0,0.0,0.0,0.0,0.0,0.0,0.0,0.0,0.0,0.0,0.0,0.0,0.0,0.0,0.0,0.0,0.0,0.0,0.0,0.0,0.0,0.0,0.0,0.0,0.0,0.0,0.0,0.0,0.0,0.0,0.0,0.0,0.0,0.0,0.0,0.0,0.0,-2.9484,-2.9731,-3.0135,-3.0396,-3.0419,-3.0477,-3.0533,-3.0617,0.0,0.0,0.0,0.0,0.0,0.0,0.0,0.0,0.0,0.0,0.0,0.0,0.0,0.0,0.0,0.0,0.0,0.0,0.0,0.0,0.0,0.0,0.0,0.0,0.0,0.0,0.0,0.0,0.0,0.0,0.0,0.0,0.0,0.0,0.0,0.0,0.0,0.0,0.0,0.0,0.0,0.0,0.0,0.0,0.0,0.0,0.0,0.0,0.0,0.0,0.0,0.0,0.0,0.0,0.0,0.0,0.0,0.0,0.0,0.0,0.0,0.0,0.0,0.0,0.0,0.0,0.0,0.0,0.0,0.0,0.0,0.0,0.0,0.0,0.0,0.0,0.0,0.0,0.0,0.0,0.0,0.0,0.0,0.0,0.0,0.0,0.0,0.0,0.0,0.0,0.0,0.0,0.0,0.0,0.0,0.0,0.0,0.0,0.0,0.0,0.0,0.0,0.0,0.0,-2.9533,-2.9916,-3.0209,-3.0417,-3.0482,-3.0552,-3.06,-3.0682,0.0,0.0,0.0,0.0,0.0,0.0,0.0,0.0,0.0,0.0,0.0,0.0,0.0,0.0,0.0,0.0,0.0,0.0,0.0,0.0,0.0,0.0,0.0,0.0,0.0,0.0,0.0,0.0,0.0,0.0,0.0,0.0,0.0,0.0,0.0,0.0,0.0,0.0,0.0,0.0,0.0,0.0,0.0,0.0,0.0,0.0,0.0,0.0,0.0,0.0,0.0,0.0,0.0,0.0,0.0,0.0,0.0,0.0,0.0,0.0,0.0,0.0,0.0,0.0,0.0,0.0,0.0,0.0,0.0,0.0,0.0,0.0,0.0,0.0,0.0,0.0,0.0,0.0,0.0,0.0,0.0,0.0,0.0,0.0,0.0,0.0,0.0,0.0,0.0,0.0,0.0,0.0,0.0,0.0,0.0,0.0,0.0,0.0,0.0,0.0,0.0,0.0,0.0,-2.9579,-2.9856,-3.0182,-3.0323,-3.0428,-3.049,-3.0554,-3.0636,-3.0692,-3.07,0.0,0.0,0.0,0.0,0.0,0.0,0.0,0.0,0.0,0.0,0.0,0.0,0.0,0.0,0.0,0.0,0.0,0.0,0.0,0.0,0.0,0.0,0.0,0.0,0.0,0.0,0.0,0.0,0.0,0.0,0.0,0.0,0.0,0.0,0.0,0.0,0.0,0.0,0.0,0.0,0.0,0.0,0.0,0.0,0.0,0.0,0.0,0.0,0.0,0.0,0.0,0.0,0.0,0.0,0.0,0.0,0.0,0.0,0.0,0.0,0.0,0.0,0.0,0.0,0.0,0.0,0.0,0.0,0.0,0.0,0.0,0.0,0.0,0.0,0.0,0.0,0.0,0.0,0.0,0.0,0.0,0.0,0.0,0.0,0.0,0.0,0.0,0.0,0.0,0.0,0.0,0.0,0.0,0.0,0.0,0.0,0.0,0.0,0.0,0.0,0.0,0.0,-2.9861,-3.0047,-3.0361,-3.0404,-3.0425,-3.0528,-3.0568,-3.0643,-3.0743,-3.0696,0.0,0.0,0.0,0.0,0.0,0.0,0.0,0.0,0.0,0.0,0.0,0.0,0.0,0.0,0.0,0.0,0.0,0.0,0.0,0.0,0.0,0.0,0.0,0.0,0.0,0.0,0.0,0.0,0.0,0.0,0.0,0.0,0.0,0.0,0.0,0.0,0.0,0.0,0.0,0.0,0.0,0.0,0.0,0.0,0.0,0.0,0.0,0.0,0.0,0.0,0.0,0.0,0.0,0.0,0.0,0.0,0.0,0.0,0.0,0.0,0.0,0.0,0.0,0.0,0.0,0.0,0.0,0.0,0.0,0.0,0.0,0.0,0.0,0.0,0.0,0.0,0.0,0.0,0.0,0.0,0.0,0.0,0.0,0.0,0.0,0.0,0.0,0.0,0.0,0.0,0.0,0.0,0.0,0.0,0.0,0.0,0.0,0.0,0.0,0.0,0.0,0.0,-2.9829,-2.9896,-3.0349,-3.0404,-3.0442,-3.0581,-3.06,-3.0681,-3.0878,-3.07,0.0,0.0,0.0,0.0,0.0,0.0,0.0,0.0,0.0,0.0,0.0,0.0,0.0,0.0,0.0,0.0,0.0,0.0,0.0,0.0,0.0,0.0,0.0,0.0,0.0,0.0,0.0,0.0,0.0,0.0,0.0,0.0,0.0,0.0,0.0,0.0,0.0,0.0,0.0,0.0,0.0,0.0,0.0,0.0,0.0,0.0,0.0,0.0,0.0,0.0,0.0,0.0,0.0,0.0,0.0,0.0,0.0,0.0,0.0,0.0,0.0,0.0,0.0,0.0,0.0,0.0,0.0,0.0,0.0,0.0,0.0,0.0,0.0,0.0,0.0,0.0,0.0,0.0,0.0,0.0,0.0,0.0,0.0,0.0,0.0,0.0,0.0,0.0,0.0,0.0,0.0,0.0,0.0,0.0,0.0,0.0,0.0,0.0,0.0,0.0,0.0,0.0,-3.0087,-3.0208,-3.0373,-3.0404,-3.0447,-3.0591,-3.0603,-3.0681,-3.0898,0.0,0.0,0.0,0.0,0.0,0.0,0.0,0.0,0.0,0.0,0.0,0.0,0.0,0.0,0.0,0.0,0.0,0.0,0.0,0.0,0.0,0.0,0.0,0.0,0.0,0.0,0.0,0.0,0.0,0.0,0.0,0.0,0.0,0.0,0.0,0.0,0.0,0.0,0.0,0.0,0.0,0.0,0.0,0.0,0.0,0.0,0.0,0.0,0.0,0.0,0.0,0.0,0.0,0.0,0.0,0.0,0.0,0.0,0.0,0.0,0.0,0.0,0.0,0.0,0.0,0.0,0.0,0.0,0.0,0.0,0.0,0.0,0.0,0.0,0.0,0.0,0.0,0.0,0.0,0.0,0.0,0.0,0.0,0.0,0.0,0.0,0.0,0.0,0.0,0.0,0.0,0.0,0.0,0.0,0.0,0.0,0.0,0.0,0.0,0.0,0.0,0.0,-3.0115,-3.0209,-3.0305,-3.0398,-3.0404,-3.0447,-3.0591,-3.0603,-3.0681,-3.0898,0.0,0.0,0.0,0.0,0.0,0.0,0.0,0.0,0.0,0.0,0.0,0.0,0.0,0.0,0.0,0.0,0.0,0.0,0.0,0.0,0.0,0.0,0.0,0.0,0.0,0.0,0.0,0.0,0.0,0.0,0.0,0.0,0.0,0.0,0.0,0.0,0.0,0.0,0.0,0.0,0.0,0.0,0.0,0.0,0.0,0.0,0.0,0.0,0.0,0.0,0.0,0.0,0.0,0.0,0.0,0.0,0.0,0.0,0.0,0.0,0.0,0.0,0.0,0.0,0.0,0.0,0.0,0.0,0.0,0.0,0.0,0.0,0.0,0.0,0.0,0.0,0.0,0.0,0.0,0.0,0.0,0.0,0.0,0.0,0.0,0.0,0.0,0.0,0.0,0.0,0.0,0.0,0.0,0.0,0.0,0.0,0.0,0.0,0.0,0.0,0.0,0.0,-3.0343,-3.0163,-3.0115,-3.0367,-3.0404,-3.0447,-3.0591,-3.0603,-3.0681,0.0,0.0,0.0,0.0,0.0,0.0,0.0,0.0,0.0,0.0,0.0,0.0,0.0,0.0,0.0,0.0,0.0,0.0,0.0,0.0,0.0,0.0,0.0,0.0,0.0,0.0,0.0,0.0,0.0,0.0,0.0,0.0,0.0,0.0,0.0,0.0,0.0,0.0,0.0,0.0,0.0,0.0,0.0,0.0,0.0,0.0,0.0,0.0,0.0,0.0,0.0,0.0,0.0,0.0,0.0,0.0,0.0,0.0,0.0,0.0,0.0,0.0,0.0,0.0,0.0,0.0,0.0,0.0,0.0,0.0,0.0,0.0,0.0,0.0,0.0,0.0,0.0,0.0,0.0,0.0,0.0,0.0,0.0,0.0,0.0,0.0,0.0,0.0,0.0,0.0,0.0,0.0,0.0,0.0,0.0,0.0,0.0,0.0,0.0,0.0,0.0,0.0,0.0,-3.0373,-3.0323,-3.0311,-3.0398,-3.0404,-3.0447,-3.0591,-3.0603,-3.0681,-3.0898,0.0,0.0,0.0,0.0,0.0,0.0,0.0,0.0,0.0,0.0,0.0,0.0,0.0,0.0,0.0,0.0,0.0,0.0,0.0,0.0,0.0,0.0,0.0,0.0,0.0,0.0,0.0,0.0,0.0,0.0,0.0,0.0,0.0,0.0,0.0,0.0,0.0,0.0,0.0,0.0,0.0,0.0,0.0,0.0,0.0,0.0,0.0,0.0,0.0,0.0,0.0,0.0,0.0,0.0,0.0,0.0,0.0,0.0,0.0,0.0,0.0,0.0,0.0,0.0,0.0,0.0,0.0,0.0,0.0,0.0,0.0,0.0,0.0,0.0,0.0,0.0,0.0,0.0,0.0,0.0,0.0,0.0,0.0,0.0,0.0,0.0,0.0,0.0,0.0,0.0,0.0,0.0,0.0,0.0,0.0,0.0,0.0,0.0,0.0,0.0,0.0,0.0,-3.0404,-3.0404,-3.0404,-3.0404,-3.0404,-3.0447,-3.0591,-3.0603,-3.0681,-3.0898,0.0,0.0,0.0,0.0,0.0,0.0,0.0,0.0,0.0,0.0,0.0,0.0,0.0,0.0,0.0,0.0,0.0,0.0,0.0,0.0,0.0,0.0,0.0,0.0,0.0,0.0,0.0,0.0,0.0,0.0,0.0,0.0,0.0,0.0,0.0,0.0,0.0,0.0,0.0,0.0,0.0,0.0,0.0,0.0,0.0,0.0,0.0,0.0,0.0,0.0,0.0,0.0,0.0,0.0,0.0,0.0,0.0,0.0,0.0,0.0,0.0,0.0,0.0,0.0,0.0,0.0,0.0,0.0,0.0,0.0,0.0,0.0,0.0,0.0,0.0,0.0,0.0,0.0,0.0,0.0,0.0,0.0,0.0,0.0,0.0,0.0,0.0,0.0,0.0,0.0,0.0,0.0,0.0,0.0,0.0,0.0,0.0,0.0,0.0,0.0,0.0,0.0,-3.0404,-3.0404,-3.0404,-3.0404,-3.0404,-3.0447,-3.0591,-3.0603,-3.0681,-3.0898,0.0,0.0,0.0,0.0,0.0,0.0,0.0,0.0,0.0,0.0,0.0,0.0,0.0,0.0,0.0,0.0,0.0,0.0,0.0,0.0,0.0,0.0,0.0,0.0,0.0,0.0,0.0,0.0,0.0,0.0,0.0,0.0,0.0,0.0,0.0,0.0,0.0,0.0,0.0,0.0,0.0,0.0,0.0,0.0,0.0,0.0,0.0,0.0,0.0,0.0,0.0,0.0,0.0,0.0,0.0,0.0,0.0,0.0,0.0,0.0,-3.7429,0.0,0.0,0.0,0.0,0.0,0.0,0.0,0.0,0.0,0.0,0.0,0.0,0.0,0.0,0.0,0.0,0.0,0.0,0.0,0.0,0.0,0.0,0.0,0.0,0.0,0.0,0.0,0.0,0.0,0.0,0.0,0.0,0.0,0.0,0.0,0.0,0.0,0.0,0.0,0.0,0.0,-3.0404,-3.0404,-3.0404,-3.0404,-3.0404,-3.0447,-3.0591,-3.0603,-3.0681,-3.0898,-3.0771,0.0,0.0,0.0,0.0,0.0,0.0,0.0,0.0,0.0,0.0,0.0,0.0,0.0,0.0,0.0,0.0,0.0,0.0,0.0,0.0,0.0,0.0,0.0,0.0,0.0,0.0,0.0,0.0,0.0,0.0,0.0,0.0,0.0,0.0,0.0,0.0,0.0,0.0,0.0,0.0,0.0,0.0,0.0,0.0,0.0,0.0,0.0,0.0,0.0,0.0,0.0,0.0,0.0,0.0,0.0,0.0,0.0,0.0,0.0,0.0,-3.6602,0.0,0.0,0.0,0.0,0.0,0.0,0.0,0.0,0.0,0.0,0.0,0.0,0.0,0.0,0.0,0.0,0.0,0.0,0.0,0.0,0.0,0.0,0.0,0.0,0.0,0.0,0.0,0.0,0.0,0.0,0.0,0.0,0.0,0.0,0.0,0.0,0.0,0.0,0.0,0.0,-3.0404,-3.0404,-3.0231,-2.9813,-2.9775,-2.9655,-2.9372,-2.9379,-2.9639,-3.0189,-3.0194,0.0,0.0,0.0,0.0,0.0,0.0,0.0,0.0,0.0,0.0,0.0,0.0,0.0,0.0,0.0,0.0,0.0,0.0,0.0,0.0,0.0,0.0,0.0,0.0,0.0,0.0,0.0,0.0,0.0,0.0,0.0,0.0,0.0,0.0,0.0,0.0,0.0,0.0,0.0,0.0,0.0,0.0,0.0,0.0,0.0,0.0,0.0,0.0,0.0,0.0,0.0,0.0,0.0,-3.5936,-3.5862,-3.5862,-3.5862,-3.5477,-3.4839,-3.555,-3.524,-3.4267,-3.5229,0.0,0.0,0.0,0.0,0.0,0.0,0.0,0.0,0.0,0.0,0.0,0.0,0.0,0.0,0.0,0.0,0.0,0.0,0.0,0.0,0.0,0.0,0.0,0.0,-3.0467,-3.0173,0.0,0.0,0.0,0.0,0.0,0.0,0.0,0.0,0.0,0.0,0.0,0.0,-3.0323,-3.0208,-2.9855,-2.9159,-2.8973,-2.8646,-2.8039,-2.8058,-2.8428,-2.9214,-2.9468,-2.9863,0.0,0.0,0.0,0.0,0.0,0.0,0.0,0.0,0.0,0.0,0.0,0.0,0.0,0.0,0.0,0.0,0.0,0.0,0.0,0.0,0.0,0.0,0.0,0.0,0.0,0.0,0.0,0.0,0.0,0.0,0.0,0.0,-2.9429,-2.9518,0.0,0.0,0.0,0.0,0.0,0.0,0.0,0.0,0.0,0.0,0.0,0.0,0.0,-3.4214,-3.4553,-3.4615,-3.4833,-3.5169,-3.4468,-3.4137,-3.4137,-3.4137,-3.4064,-3.3972,-3.4082,0.0,-3.4218,-3.4365,0.0,0.0,0.0,0.0,0.0,0.0,0.0,0.0,0.0,0.0,0.0,0.0,0.0,0.0,0.0,0.0,0.0,0.0,0.0,0.0,0.0,0.0,-2.9317,-2.9317,-2.9244,-2.9189,0.0,-2.9776,-3.0001,-2.9338,-2.9323,0.0,0.0,0.0,0.0,0.0,0.0,0.0,-3.0042,-2.9431,-2.9021,-2.9091,-2.8472,-2.8048,-2.8001,-2.8005,-2.8126,-2.8353,-2.9084,-2.9583,-2.9746,-3.0488,0.0,0.0,0.0,0.0,0.0,0.0,0.0,0.0,0.0,0.0,0.0,0.0,0.0,0.0,0.0,0.0,0.0,0.0,0.0,0.0,0.0,0.0,0.0,0.0,0.0,0.0,0.0,0.0,0.0,-2.8943,-2.915,-2.9843,-3.0145,-3.0435,0.0,0.0,0.0,0.0,0.0,0.0,0.0,0.0,0.0,-3.2109,-3.2701,-3.2996,-3.2945,-3.3454,-3.3813,-3.3975,-3.3629,-3.3465,-3.3447,-3.3196,-3.3211,-3.3465,-3.3465,-3.3657,-3.3999,-3.4147,-3.4349,-3.4615,0.0,0.0,0.0,0.0,-3.4879,-3.4775,-3.4014,-3.3749,0.0,-3.3227,0.0,0.0,0.0,0.0,0.0,0.0,0.0,0.0,0.0,0.0,-2.9555,-2.9115,-2.9005,-2.9005,-2.9005,-2.928,-2.9427,0.0,-2.9232,-2.9424,-2.9523,0.0,0.0,0.0,0.0,-2.919,-2.9306,-2.8628,-2.8014,-2.772,-2.7371,-2.6973,-2.6515,-2.6521,-2.6773,-2.7317,-2.7789,-2.8472,-2.946,-2.9886,-3.0316,0.0,0.0,0.0,0.0,0.0,0.0,0.0,0.0,0.0,0.0,0.0,0.0,0.0,0.0,0.0,0.0,0.0,0.0,0.0,0.0,0.0,0.0,0.0,0.0,0.0,0.0,0.0,0.0,-2.8543,-2.8591,-2.9502,-2.9761,-3.0081,0.0,0.0,0.0,0.0,0.0,0.0,-3.1641,-3.1986,-3.2021,-3.166,-3.1986,-3.2039,-3.1807,-3.25,-3.2903,-3.3014,-3.3014,-3.3014,-3.3014,-3.2665,-3.2697,-3.3014,-3.3014,-3.3181,-3.3504,-3.3924,-3.4147,-3.4211,-3.4467,-3.4614,-3.4684,-3.4593,-3.4572,-3.4435,-3.3517,-3.3078,-3.2799,-3.2198,-3.1913,-3.176,-3.1543,0.0,0.0,0.0,0.0,-3.0891,-3.0104,-2.9886,-2.9739,-2.9133,-2.9005,-2.9005,-2.9005,-2.9005,-2.9005,0.0,-2.9167,-2.932,-2.9392,0.0,0.0,0.0,0.0,-2.8374,-2.8328,-2.7654,-2.7026,-2.657,-2.6369,-2.6,-2.5365,-2.5357,-2.5658,-2.6331,-2.6661,-2.7416,-2.8688,-2.9217,-2.9721,-3.0275,0.0,0.0,0.0,0.0,0.0,0.0,0.0,0.0,0.0,0.0,0.0,0.0,0.0,0.0,0.0,0.0,0.0,0.0,0.0,0.0,0.0,0.0,0.0,0.0,0.0,0.0,0.0,0.0,0.0,-2.7735,-2.8247,0.0,0.0,0.0,0.0,-3.1151,-3.121,-3.123,-3.123,-3.1252,-3.1252,-3.123,-3.1252,-3.143,-3.1807,-3.1861,-3.2092,-3.2534,-3.2534,-3.2534,-3.2534,-3.2517,-3.2517,-3.2534,-3.2534,-3.255,-3.2632,-3.3476,-3.3974,-3.42,-3.4211,-3.4412,-3.4663,-3.4345,-3.4242,-3.4176,-3.386,-3.3264,-3.2608,-3.2572,-3.2218,-3.1512,-2.9992,-3.0068,0.0,0.0,-2.9343,-2.9138,-2.906,-2.906,-2.906,-2.9005,-2.9005,-2.9005,-2.9005,-2.9005,-2.9005,0.0,-2.9017,-2.91,-2.9361,0.0,-2.9134,-2.8305,-2.8147,-2.7858,-2.7083,-2.6462,-2.6147,-2.6295,-2.5748,-2.5346,-2.5308,-2.5293,-2.535,-2.5453,-2.6245,-2.6777,-2.6919,-2.8515,-2.9427,-2.9463,-3.0217,0.0,0.0,0.0,0.0,0.0,0.0,0.0,0.0,0.0,0.0,0.0,0.0,0.0,0.0,0.0,0.0,0.0,0.0,0.0,0.0,0.0,0.0,0.0,0.0,0.0,0.0,0.0,0.0,-2.867,-2.8614,0.0,-2.9339,-2.9951,-3.0393,-3.0601,-3.0975,-3.119,-3.119,-3.119,-3.119,-3.119,-3.119,-3.1271,-3.1411,-3.1678,-3.188,-3.2039,-3.2039,-3.2039,-3.2039,-3.1787,-3.1788,-3.2039,-3.2109,-3.2248,-3.2517,-3.284,-3.3024,-3.3105,-3.3105,-3.3371,-3.3723,-3.3602,-3.3715,-3.3849,-3.3241,-3.2839,-3.2436,-3.139,-3.0587,-2.9887,-2.9322,-2.9341,-2.9518,-2.923,-2.9067,-2.9005,-2.9005,-2.9005,-2.9005,-2.9005,-2.9005,-2.9005,-2.9005,-2.8803,-2.8602,-2.8602,-2.8827,-2.8874,-2.8444,-2.8373,-2.8096,-2.7266,-2.6685,-2.6319,-2.6144,-2.5487,-2.5109,-2.5317,-2.5126,-2.4987,-2.4987,-2.4987,-2.5037,-2.5132,-2.5461,-2.5972,-2.6644,-2.7307,-2.814,-2.9196,-2.9486,-2.9928,0.0,0.0,0.0,0.0,0.0,0.0,0.0,0.0,0.0,0.0,0.0,0.0,0.0,0.0,0.0,0.0,0.0,0.0,0.0,0.0,0.0,0.0,0.0,0.0,0.0,-2.786,-2.7894,-2.8693,-2.8424,-2.8439,-2.9042,-2.9451,-2.9783,-2.9978,-3.0372,-3.058,-3.058,-3.0797,-3.0898,-3.0898,-3.1095,-3.119,-3.119,-3.1451,-3.1603,-3.1603,-3.1603,-3.1603,-3.1584,-3.1312,-3.1351,-3.1603,-3.1637,-3.1804,-3.2056,-3.2056,-3.2056,-3.2092,-3.2384,-3.2697,-3.2968,-3.2968,-3.3136,-3.3248,-3.2436,-3.2088,-3.1745,-3.0262,-2.943,-2.8964,-2.8839,-2.8893,-2.8964,-2.8839,-2.8905,-2.8964,-2.8839,-2.8905,-2.9005,-2.9005,-2.8905,-2.8724,-2.8492,-2.8117,-2.7784,-2.7523,-2.7898,-2.8112,-2.7672,-2.7396,-2.6991,-2.6308,-2.5742,-2.5342,-2.5218,-2.4797,-2.4561,-2.4685,-2.476,-2.4804,-2.4804,-2.4842,-2.4884,-2.4936,-2.5017,-2.534,-2.5966,-2.636,-2.7199,-2.8577,-2.9214,-2.9844,-3.0472,0.0,0.0,0.0,0.0,0.0,0.0,0.0,0.0,0.0,0.0,0.0,0.0,0.0,0.0,0.0,0.0,0.0,0.0,0.0,0.0,0.0,0.0,0.0,-2.76,-2.76,-2.76,-2.76,-2.76,-2.7835,-2.8415,-2.8487,-2.8732,-2.9339,-2.9384,-2.9406,-2.9406,-2.9935,-3.0272,-3.0272,-3.0838,-3.1151,-3.1151,-3.1151,-3.1151,-3.1151,-3.1151,-3.1151,-3.1171,-3.1171,-3.1171,-3.1171,-3.119,-3.1171,-3.1151,-3.1171,-3.1151,-3.1232,-3.2109,-3.2467,-3.2484,-3.2484,-3.2484,-3.2395,-3.1582,-3.1069,-3.0585,-2.9399,-2.8995,-2.8893,-2.8496,-2.8658,-2.8875,-2.8484,-2.8658,-2.8893,-2.8489,-2.867,-2.897,-2.897,-2.8652,-2.8155,-2.7441,-2.7002,-2.6508,-2.5732,-2.6185,-2.6783,-2.7065,-2.6525,-2.5882,-2.5415,-2.5346,0.0,-2.43,-2.4366,-2.4495,-2.4495,-2.4662,-2.4782,-2.4775,-2.4878,-2.4904,-2.4763,-2.4891,-2.4911,-2.4797,-2.5728,-2.6664,-2.7567,-2.9404,-3.0354,-3.0386,0.0,0.0,0.0,0.0,0.0,0.0,0.0,0.0,0.0,0.0,0.0,0.0,0.0,0.0,0.0,0.0,0.0,0.0,0.0,0.0,0.0,-2.6,-2.6375,-2.7458,-2.76,-2.76,-2.76,-2.76,-2.7675,-2.7835,-2.8222,-2.8559,-2.8732,-2.9157,-2.9406,-2.9406,-2.9563,-2.9651,-2.9651,-2.9805,-2.9892,-2.9892,-2.9892,-2.9892,-2.9892,-2.9892,-3.0123,-3.0539,-3.0539,-3.0539,-3.0559,-3.1015,-3.0699,-2.993,-3.0372,-3.0293,-3.0,-3.1125,-3.1732,-3.1986,-3.1986,-3.2196,-3.2395,-3.1631,-3.0931,-3.0228,-2.9337,-2.8674,-2.8188,-2.8061,-2.812,-2.8174,-2.8079,-2.812,-2.8174,-2.8079,-2.812,-2.8201,-2.8201,-2.7705,-2.717,-2.697,-2.6206,-2.5502,-2.5275,-2.4742,-2.45,-2.5075,-2.5009,-2.4724,-2.423,-2.4164,0.0,-2.4207,-2.4256,-2.4275,-2.4275,-2.4321,-2.4275,-2.4013,-2.4052,-2.4007,-2.3867,-2.4117,-2.4327,-2.4425,-2.4933,-2.5859,-2.7278,-2.8446,-2.9304,0.0,0.0,0.0,0.0,0.0,0.0,0.0,0.0,0.0,0.0,0.0,0.0,0.0,0.0,0.0,0.0,0.0,0.0,0.0,0.0,0.0,0.0,-2.5398,-2.5701,-2.6561,-2.6941,-2.7137,-2.7137,-2.7408,-2.76,-2.76,-2.7934,-2.8116,-2.8116,-2.8448,-2.8662,-2.8662,-2.8896,-2.9019,-2.9019,-2.9271,-2.9406,-2.9406,-2.9406,-2.9406,-2.9406,-2.9406,-2.9585,-2.9913,-2.9913,-2.9913,-2.9935,-3.0293,-3.0059,-2.9429,-2.9783,-2.9717,0.0,0.0,0.0,0.0,0.0,-3.1306,-3.1429,-3.1011,-3.0241,-2.9357,-2.876,-2.8265,-2.7869,-2.7692,-2.7768,-2.7869,-2.771,-2.7783,-2.7869,-2.7678,-2.7765,-2.7809,-2.7504,-2.6986,-2.6377,-2.5772,-2.4962,-2.4296,-2.3987,-2.3231,0.0,-2.3161,-2.348,-2.3647,-2.3508,-2.35,-2.3555,-2.3764,-2.3785,-2.3785,-2.3785,-2.3785,-2.3703,-2.3511,-2.3574,0.0,0.0,0.0,-2.3838,-2.3971,-2.4638,0.0,0.0,0.0,-2.8388,-2.9194,0.0,0.0,0.0,-2.9748,-2.9804,0.0,0.0,0.0,0.0,0.0,0.0,0.0,0.0,0.0,0.0,0.0,0.0,0.0,0.0,0.0,0.0,-2.5202,-2.5243,-2.5243,-2.5923,-2.6413,-2.6392,-2.6956,-2.7357,-2.7357,-2.7357,-2.7357,-2.7357,-2.7357,-2.7382,-2.7458,0.0,0.0,0.0,0.0,-2.9203,-2.9203,-2.9203,-2.9203,-2.9203,-2.9203,-2.9225,-2.9293,-2.9293,-2.9293,-2.9293,-2.9361,-2.9316,-2.9203,-2.9271,-2.9293,-2.9361,-2.9957,-2.987,-2.9473,-2.9918,-3.0024,-2.9885,-2.9717,0.0,0.0,-2.7654,-2.755,-2.7525,-2.7175,-2.7313,-2.751,-2.7158,-2.7313,-2.751,-2.7159,-2.7276,-2.7332,-2.6662,-2.6107,-2.539,-2.4074,-2.3434,-2.294,-2.2284,-2.1825,-2.1521,-2.1521,-2.2116,-2.2665,-2.2949,-2.3093,-2.3129,-2.3058,-2.3135,-2.3165,-2.3058,0.0,0.0,-2.3076,-2.3233,-2.3249,-2.304,-2.3221,-2.3386,-2.3451,-2.4496,-2.5168,-2.5374,-2.6424,-2.737,-2.8169,-2.773,-2.7881,-2.8594,-2.9216,-2.9399,0.0,0.0,0.0,0.0,0.0,0.0,0.0,0.0,0.0,0.0,0.0,0.0,0.0,0.0,0.0,-2.3649,-2.3957,-2.4264,-2.4264,-2.5283,-2.5921,-2.5647,-2.5728,-2.5837,-2.5837,-2.5837,-2.5837,-2.5837,-2.5837,-2.6081,-2.6695,-2.6811,-2.7148,-2.776,-2.7894,-2.7944,-2.7944,-2.7944,-2.7944,-2.7944,0.0,0.0,-2.8662,-2.8662,-2.8662,-2.8685,-2.918,-2.8857,-2.7993,-2.8463,-2.8662,-2.8732,-2.9339,-2.9496,-2.9365,-2.8909,-2.8747,-2.8577,-2.7441,-2.688,-2.6596,-2.5932,-2.5698,-2.5715,-2.564,-2.566,0.0,-2.564,-2.566,-2.5697,-2.564,-2.5254,-2.4885,-2.4754,-2.3784,-2.2818,-2.2524,-2.1939,-2.1422,-2.1293,-2.1182,-2.1134,-2.1134,-2.1505,-2.183,-2.1819,-2.2394,-2.2643,-2.2203,-2.2773,-2.2926,-2.223,-2.2492,-2.2608,-2.234,-2.235,-2.2242,-2.1931,-2.2187,-2.2634,-2.3235,-2.3487,-2.392,-2.4598,-2.4846,-2.536,-2.6159,-2.67,-2.704,-2.7201,-2.7927,-2.8228,0.0,0.0,0.0,0.0,0.0,0.0,0.0,0.0,0.0,0.0,0.0,-2.3586,-2.3427,0.0,-2.2703,-2.2526,-2.2767,-2.2944,-2.2944,-2.3888,-2.4861,-2.5563,-2.5993,-2.6114,-2.5825,-2.5797,-2.5701,-2.5425,-2.5398,-2.5563,-2.5933,-2.596,-2.6122,-2.6481,-2.6508,-2.6508,-2.6508,-2.6508,-2.6508,-2.6508,-2.6508,-2.6651,-2.696,-2.696,-2.696,-2.696,-2.7274,-2.7059,-2.6505,-2.6506,-2.6512,-2.6493,-2.6518,-2.7496,-2.8766,-2.7803,-2.7413,-2.7244,-2.6539,-2.6054,-2.5686,-2.5314,-2.5202,-2.5202,-2.5202,-2.5202,-2.5202,-2.5202,-2.5202,-2.5122,-2.4788,-2.4454,-2.4023,-2.3317,-2.2595,-2.2002,-2.1632,-2.1247,-2.0991,-2.0991,-2.0813,-2.0649,-2.0649,-2.083,-2.1023,-2.1227,-2.1591,-2.1751,-2.1479,-2.1833,-2.1919,-2.1493,-2.1657,-2.1734,-2.1546,-2.1547,-2.1488,-2.1306,-2.1458,-2.1724,-2.2076,-2.2252,-2.2531,-2.2952,-2.3079,-2.3659,-2.4703,-2.5262,-2.5739,-2.6123,-2.6686,-2.7282,0.0,0.0,0.0,0.0,0.0,0.0,0.0,-2.2005,-2.1846,-2.25,-2.219,-2.189,-2.2297,-2.1819,-2.1453,-2.1854,-2.1998,-2.2054,-2.2054,-2.2788,-2.3853,-2.5287,-2.5936,-2.6183,-2.5932,-2.5746,-2.5504,-2.5139,-2.5127,-2.5059,-2.4924,-2.5078,-2.5161,-2.5148,-2.5301,-2.5398,-2.5398,-2.5398,-2.5398,-2.5398,-2.5398,-2.5398,-2.5398,-2.5398,-2.5398,-2.5398,-2.5398,-2.5232,-2.4984,-2.4625,-2.4335,-2.409,-2.368,-2.5057,-2.7183,-2.6143,-2.5694,-2.5587,-2.5446,-2.5019,-2.453,-2.453,-2.453,-2.4534,-2.4665,-2.4721,-2.4709,-2.4697,-2.4646,-2.4398,-2.374,-2.3384,-2.292,-2.1788,-2.1412,-2.116,-2.0561,-2.0435,-2.0435,-2.0435,-2.0129,-1.9869,-1.9869,-1.9869,-2.006,-2.0665,-2.0878,-2.0943,-2.0764,-2.091,-2.0942,-2.0764,-2.0813,-2.0862,-2.0862,-2.0862,-2.091,-2.0991,-2.091,-2.091,-2.0991,-2.1257,-2.1393,-2.1393,-2.1622,-2.222,-2.3264,-2.3804,-2.4375,-2.4978,-2.5569,-2.6386,-1.6701,-1.8178,-1.9458,-1.9566,-2.0169,-2.0728,0.0,-2.0803,-2.0863,-2.1325,-2.135,-2.1408,-2.1879,-2.19,-2.1854,-2.1909,-2.2312,-2.2601,-2.2601,-2.3113,-2.3564,-2.3733,-2.3741,-2.4047,-2.4867,-2.416,-2.3765,-2.4146,-2.4169,-2.3903,-2.3293,-2.4008,-2.4383,-2.4264,-2.5009,-2.5398,-2.5398,-2.5398,-2.5398,-2.5398,-2.5398,-2.5398,-2.5398,-2.5398,-2.5398,-2.5398,-2.5398,-2.4723,-2.3674,-2.4257,-2.3822,-2.2803,-2.2803,-2.3021,-2.3318,-2.3178,-2.3132,-2.3025,-2.2423,-2.2146,-2.209,-2.209,-2.209,-2.2197,-2.2786,-2.2995,-2.2966,-2.2984,-2.2637,-2.2108,-2.1442,-2.0468,-1.9636,-1.9474,-1.8982,-1.8519,-1.8444,-1.843,-1.843,-1.843,-1.8372,-1.8347,-1.8347,-1.8347,-1.8693,-1.9696,-2.0499,-2.0715,-1.996,-2.0515,-2.0698,-1.9927,-2.0158,-2.0382,-2.0382,-2.0382,-2.055,-2.0975,-2.06,-2.0566,-2.0975,-2.1039,-2.1071,-2.1071,-2.1102,-2.1182,-2.1325,-2.2601,-2.3293,-2.3388,-2.4687,-2.5357,-1.3345,-1.4944,-1.6086,-1.67,-1.7182,-1.7497,-1.7666,-1.8561,-1.9489,-1.983,-1.9932,-2.0253,-2.1289,-2.056,-2.0102,-2.0987,-2.1342,-2.1466,-2.1466,-2.2136,-2.2627,-2.2627,-2.2564,-2.2822,-2.3489,-2.3213,-2.2903,-2.2774,-2.2524,-2.2262,-2.1972,-2.2066,-2.2103,-2.2066,-2.2414,-2.2609,-2.2609,-2.2609,-2.2609,-2.2609,-2.2609,-2.2609,-2.2609,-2.2609,-2.2609,-2.2584,-2.2323,-2.1874,-2.1328,-2.1103,-2.068,-2.019,-1.9867,-1.9737,-1.992,-2.152,-2.2121,-2.208,-2.1793,-2.1697,-2.1697,-2.1697,-2.1697,-2.1744,-2.2016,-2.1884,-2.1651,-2.1655,-2.1269,-2.0691,-2.0034,-1.9467,-1.8989,-1.8602,-1.8305,-1.8106,-1.8106,-1.8106,-1.7993,-1.7632,-1.7572,-1.7464,-1.7098,-1.7057,-1.7208,-1.7638,-1.8631,-1.9174,-1.8822,-1.9078,-1.9156,-1.8803,-1.892,-1.9022,-1.9022,-1.9022,-1.91,-1.9287,-1.9133,-1.9115,-1.9287,-1.9306,-1.9306,-1.9306,-1.9306,-1.945,-1.972,-2.1054,-2.1685,-2.1691,-2.3009,-2.3458,-1.0299,-1.1646,-1.2616,-1.3699,-1.4446,-1.4949,-1.5133,-1.6565,-1.7923,-1.8295,-1.8378,-1.8742,-1.9894,-1.8951,-1.838,-1.9504,-1.9678,-1.9678,-1.9678,-2.0265,-2.07,-2.07,-2.07,-2.0954,-2.1618,-2.2183,-2.2394,-2.2154,-2.1821,-2.1396,-2.0851,-2.0775,-2.0596,-2.0236,-2.0462,-2.059,-2.059,-2.059,-2.059,-2.059,-2.059,-2.059,-2.059,-2.059,-2.0512,-2.0398,-2.0059,-1.9622,-1.9169,-1.8715,-1.8288,-1.7921,-1.7695,-1.7605,-1.7829,-1.9839,-2.0578,-2.0578,-2.0578,-2.0578,-2.0578,-2.0578,-2.0578,-2.0603,-2.0799,-2.0473,-2.0064,-2.0074,-1.9615,-1.8948,-1.8288,-1.7993,-1.7761,-1.7289,-1.7164,-1.7164,-1.7164,-1.7164,-1.7027,-1.6596,-1.6511,-1.6371,-1.5926,-1.5849,-1.5849,-1.5849,-1.6591,-1.7267,-1.7558,-1.7599,-1.7673,-1.7826,-1.7693,-1.7673,-1.784,-1.7693,-1.7599,-1.7599,-1.7599,-1.7673,-1.784,-1.786,-1.792,-1.8106,-1.8106,-1.8274,-1.8598,-1.9712,-2.0306,-2.0436,-2.1334,-2.1644,-0.7555,-0.8506,-0.9484,-1.059,-1.2503,-1.4149,-1.4156,-1.5166,-1.6196,-1.6682,-1.6756,-1.6911,-1.7332,-1.7358,-1.7366,-1.7374,-1.7415,-1.7415,-1.7415,-1.7415,-1.7455,-1.7455,-1.7455,-1.7891,-1.9018,-2.0864,-2.219,-2.2655,-2.2682,-2.1872,-2.0057,-2.0729,-2.061,-1.9386,-2.0171,-2.059,-2.059,-2.059,-2.059,-2.059,-2.059,-2.059,-2.059,-2.059,-2.0353,-1.9924,-1.9913,-1.897,-1.7517,-1.8233,-1.7735,-1.6616,-1.7341,-1.7605,-1.7605,-1.7677,-1.7731,-1.7731,-1.7731,-1.7731,-1.7731,-1.7731,-1.7731,-1.7857,-1.8502,-1.8358,-1.8005,-1.7984,-1.7311,-1.6455,-1.578,-1.5207,-1.4823,-1.4812,-1.4812,-1.4812,-1.4812,-1.4812,-1.4789,-1.4789,-1.4789,-1.4766,-1.4744,-1.4744,-1.4744,-1.4744,-1.4789,-1.5173,-1.6211,-1.6346,-1.6582,-1.7165,-1.6699,-1.6582,-1.7186,-1.6679,-1.6346,-1.6346,-1.6346,-1.6616,-1.7206,-1.724,-1.7498,-1.8086,-1.8106,-1.8125,-1.8112,-1.8795,-1.9405,-1.9915,-1.9898,-2.0141,-0.5177,-0.6405,-0.7433,-0.8463,-0.9888,-1.1088,-1.1257,-1.2309,-1.3554,-1.4664,-1.49,-1.5394,-1.6976,-1.6723,-1.6478,-1.7172,-1.7302,-1.7302,-1.7302,-1.7302,-1.7302,-1.7302,-1.7302,-1.7464,-1.7827,-1.9167,-2.0052,-2.0245,-1.9962,-1.9493,-1.8853,-1.8555,-1.8541,-1.8824,-1.8873,-1.859,-1.7944,-1.7944,-1.7629,-1.703,-1.7663,-1.7944,-1.7978,-1.859,-1.8347,-1.7376,-1.7091,-1.6169,-1.489,-1.4858,-1.4593,-1.4216,-1.4464,-1.4543,-1.4543,-1.4543,-1.4543,-1.4827,-1.688,-1.7605,-1.7605,-1.7605,-1.7605,-1.7593,-1.7565,-1.7186,-1.6719,-1.6407,-1.5835,-1.5257,-1.5028,-1.4846,-1.4698,-1.4698,-1.4698,-1.4698,-1.4698,-1.4343,-1.3914,-1.3514,-1.3032,-1.259,-1.2171,-1.2483,-1.2773,-1.2773,-1.3878,-1.4824,-1.5184,-1.524,-1.5318,-1.5518,-1.5363,-1.5318,-1.5518,-1.5363,-1.524,-1.524,-1.524,-1.534,-1.5518,-1.554,-1.564,-1.5826,-1.5847,-1.5847,-1.586,-1.6426,-1.6961,-1.7448,-1.7783,-1.8195,-0.2482,-0.3726,-0.4789,-0.5792,-0.7336,-0.8613,-0.8809,-1.0155,-1.1651,-1.2596,-1.2802,-1.3218,-1.4643,-1.4323,-1.412,-1.4774,-1.5245,-1.5501,-1.5501,-1.5895,-1.6165,-1.6165,-1.6165,-1.6322,-1.6683,-1.7374,-1.798,-1.835,-1.8123,-1.7874,-1.7735,-1.7096,-1.6943,-1.7503,-1.7178,-1.6724,-1.6114,-1.6105,-1.579,-1.5199,-1.5825,-1.6105,-1.6105,-1.6724,-1.6424,-1.5373,-1.5103,-1.438,-1.3362,-1.3108,-1.3009,-1.3009,-1.3009,-1.3009,-1.3009,-1.3009,-1.3009,-1.3265,-1.5264,-1.5955,-1.5955,-1.5955,-1.5955,-1.5902,-1.5546,-1.5069,-1.4583,-1.4184,-1.3709,-1.3314,-1.3314,-1.3314,-1.3314,-1.3314,-1.3314,-1.3314,-1.3314,-1.297,-1.2551,-1.2156,-1.1704,-1.1265,-1.0864,-1.1166,-1.1441,-1.1441,-1.2497,-1.3385,-1.3643,-1.3875,-1.4131,-1.4352,-1.4201,-1.4131,-1.4352,-1.4177,-1.4071,-1.4071,-1.4071,-1.4154,-1.4376,-1.4376,-1.4468,-1.4698,-1.4698,-1.4572,-1.4354,-1.4684,-1.5202,-1.5836,-1.5616,-1.6094,0.0468,-0.0625,-0.1692,-0.2695,-0.4795,-0.665,-0.6717,-0.8592,-1.0346,-1.0341,-1.0433,-1.0524,-1.0519,-1.0562,-1.0611,-1.0611,-1.1509,-1.22,-1.22,-1.3209,-1.3955,-1.3997,-1.3997,-1.4405,-1.5448,-1.5572,-1.5985,-1.6879,-1.7131,-1.7056,-1.6665,-1.6335,-1.5975,-1.5659,-1.5378,-1.518,-1.5128,-1.5092,-1.5057,-1.5057,-1.5092,-1.5128,-1.5128,-1.5163,-1.4732,-1.3983,-1.3983,-1.3509,-1.2757,-1.2757,-1.2757,-1.2757,-1.2757,-1.2757,-1.2757,-1.2757,-1.2757,-1.2757,-1.2787,-1.2879,-1.3009,-1.3009,-1.3009,-1.2943,-1.2676,-1.2257,-1.1848,-1.1572,-1.1146,-1.0788,-1.0788,-1.0788,-1.0788,-1.0788,-1.0788,-1.0788,-1.0788,-1.0762,-1.0745,-1.0745,-1.0712,-1.072,-1.0737,-1.0712,-1.072,-1.0737,-1.0745,-1.099,-1.1665,-1.2369,-1.3007,-1.3579,-1.3132,-1.3021,-1.3603,-1.3108,-1.2774,-1.2774,-1.2774,-1.3045,-1.3627,-1.365,-1.3922,-1.448,-1.4503,-1.4181,-1.3554,-1.3554,-1.407,-1.5002,-1.3471,-1.4052,0.2614,0.1558,0.0548,-0.0522,-0.1968,-0.331,-0.4124,-0.557,-0.6713,-0.6643,-0.8063,-0.9309,-0.9274,-0.9986,-1.0611,-1.0611,-1.0826,-1.1037,-1.1037,-1.13,-1.1821,-1.2681,-1.2766,-1.2887,-1.3129,-1.3957,-1.3915,-1.2426,-1.4664,-1.607,-1.5937,-1.5583,-1.5592,-1.6029,-1.5704,-1.5029,-1.4099,-1.3382,-1.3055,-1.3055,-1.3738,-1.4099,-1.4099,-1.4843,-1.4119,-1.2236,-1.2236,-1.1121,-0.9291,-0.9291,-0.9291,-0.9291,-0.9291,-0.9291,-0.9291,-0.9291,-0.9291,-0.9354,-1.0009,-1.1454,-1.3009,-1.3009,-1.3009,-1.2943,-1.2558,-1.2179,-1.182,-1.1438,-1.1076,-1.0788,-1.0788,-1.0788,-1.0788,-1.0788,-1.0788,-1.0788,-1.0788,-1.0415,-1.0038,-1.0038,-0.9666,-0.9465,-0.9969,-0.964,-0.9491,-0.9987,-1.0038,-1.0287,-1.0965,-1.1225,-1.1391,-1.1557,-1.1416,-1.14,-1.1557,-1.1416,-1.1334,-1.1334,-1.1334,-1.14,-1.1557,-1.1548,-1.1648,-1.1787,-1.1787,-1.1713,-1.1539,-1.1539,-1.1962,-1.2715,-1.2312,-1.276,0.3984,0.3103,0.2109,0.0979,-0.0167,-0.1321,-0.2447,-0.3677,-0.4594,-0.4581,-0.5645,-0.6709,-0.7227,-0.7848,-0.8496,-0.912,-0.9614,-0.9951,-0.9999,-1.0499,-1.1076,-1.169,-1.169,-1.163,-1.163,-1.2189,-1.1997,-1.0697,-1.282,-1.4008,-1.349,-1.315,-1.3098,-1.3406,-1.3546,-1.3413,-1.3098,-1.2556,-1.2077,-1.1657,-1.2198,-1.2191,-1.1779,-1.2348,-1.1798,-1.0388,0.0,-0.9462,-0.807,-0.8035,-0.7994,-0.7994,-0.7994,-0.7994,-0.7994,-0.7994,-0.7994,-0.8059,-0.8549,-0.9647,-1.0927,-1.171,-1.1942,-1.1881,-1.1488,-1.1247,-1.102,-1.0516,-1.0245,-1.0064,-0.9955,-0.9917,-0.9917,-0.9917,-0.9917,-0.9917,-0.9917,-0.9366,-0.8791,-0.8468,-0.8355,-0.8335,-0.8389,-0.8355,-0.8335,-0.8389,-0.8389,-0.8534,-0.8914,-1.0033,-1.0788,-1.0788,-1.0788,-1.0788,-1.0788,-1.0788,-1.0788,-1.0788,-1.0788,-1.0788,-1.0788,-1.0788,-1.0788,-1.0788,-1.0788,-1.0661,-1.0364,-1.0364,-1.0746,-1.1447,-1.1097,-1.167,0.494,0.4262,0.3299,0.2133,0.1024,-0.0087,-0.1292,-0.2503,-0.3303,-0.317,-0.3392,-0.3883,-0.4779,-0.5191,-0.5818,-0.6982,-0.8144,-0.8935,-0.9047,-0.9987,-1.0675,-1.0854,-1.0698,-1.0577,-1.0592,-1.0597,-1.0467,-1.0178,-1.1209,-1.1466,-1.0654,-1.0386,-1.0123,-0.9908,-1.0488,-1.1138,-1.1892,-1.1885,-1.1471,-1.0602,-1.0602,-1.0153,-0.9296,-0.9296,-0.9053,-0.8605,-0.8502,0.0,-0.7846,-0.7724,-0.767,-0.767,-0.767,-0.767,-0.767,-0.767,-0.767,-0.767,-0.78,-0.7832,-0.8091,-0.9709,-1.0263,-1.0186,-0.9902,-0.9805,-0.964,-0.9115,-0.8955,-0.8871,-0.8627,-0.8563,-0.8563,-0.8563,-0.8564,-0.8538,-0.8538,-0.8014,-0.7369,-0.6723,-0.7128,-0.7348,-0.6723,-0.7128,-0.7343,-0.6696,-0.6588,-0.6588,-0.6588,-0.8809,-1.0348,-1.0238,-1.0322,-1.0348,-1.0238,-1.0322,-1.0348,-1.0238,-1.0432,-1.0483,-1.0399,-1.0399,-1.0399,-1.0399,-1.0297,-0.9972,-0.9366,-0.9366,-0.9733,-1.0408,-0.9717,-1.0443,0.6162,0.5362,0.4252,0.3325,0.2202,0.1046,-0.0045,-0.1254,-0.1835,-0.0852,-0.2191,-0.3349,-0.2549,-0.4123,-0.5646,-0.5893,-0.7006,-0.789,-0.7872,-0.8059,-0.8567,-0.9482,-0.9591,-0.9509,-0.9395,-1.0241,-0.993,-0.7845,-0.8794,-0.9792,-1.0567,-1.0575,-1.0321,-0.9913,-0.9715,-0.9673,-0.9825,-0.9825,-0.975,-0.9556,-0.9556,-0.9485,-0.9296,-0.9296,-0.8726,-0.7735,-0.7579,0.0,-0.6054,-0.5922,-0.5851,-0.5851,-0.5851,-0.5851,-0.5851,-0.5851,-0.5851,-0.5951,-0.6691,-0.6915,-0.7079,-0.8118,-0.8447,-0.8436,-0.8399,-0.8185,-0.7922,-0.7808,-0.762,-0.744,-0.7403,-0.7388,-0.7388,-0.7388,-0.7299,-0.7214,-0.7214,-0.6989,-0.675,-0.6615,-0.6696,-0.675,-0.6615,-0.6696,-0.675,-0.6615,-0.6588,-0.6588,-0.6588,-0.7545,-0.7998,-0.74,-0.7859,-0.7998,-0.7379,-0.7886,-0.7972,-0.7374,-0.8481,-0.8863,-0.827,-0.8237,-0.8237,-0.8237,-0.7646,-0.7272,-0.7144,-0.7144,-0.7411,-0.7929,-0.7793,-0.8138,0.6494,0.6175,0.5605,0.4561,0.3446,0.2339,0.1207,0.0,-0.0718,-0.0135,-0.0942,-0.1752,-0.177,-0.2795,-0.4083,-0.5494,-0.6225,-0.6915,-0.7721,-0.7828,-0.8018,-0.8538,-0.8556,-0.847,-0.8434,-0.8776,-0.8546,-0.7355,-0.7716,-0.8189,-0.8746,-0.8706,-0.878,-0.9023,-0.8765,-0.8832,-0.9301,-0.9296,-0.9031,-0.8504,-0.8504,-0.8237,-0.7744,-0.7744,-0.7431,-0.6851,-0.6714,0.0,-0.5688,-0.5576,-0.5467,-0.5395,-0.5395,-0.5395,-0.5395,-0.5395,-0.5395,-0.5458,-0.5881,-0.6009,-0.6108,-0.6502,-0.7246,-0.7994,-0.7994,-0.7886,-0.7716,-0.7534,-0.7398,-0.7264,-0.7121,-0.7091,-0.7091,-0.7091,-0.7042,-0.6905,-0.653,-0.637,-0.6162,-0.5789,-0.6019,-0.6162,-0.5793,-0.596,-0.6062,-0.567,-0.5563,-0.55,-0.55,-0.6118,-0.6578,-0.6588,-0.6912,-0.6993,-0.6642,-0.6912,-0.6966,-0.6615,-0.7262,-0.7509,-0.7155,-0.7128,-0.7128,-0.7128,-0.6777,-0.6588,-0.6588,-0.6699,-0.6948,-0.7289,-0.7381,-0.7612,0.6552,0.6511,0.6282,0.5391,0.4362,0.3304,0.2057,0.1076,0.0314,0.0045,0.0,-0.0271,-0.1243,-0.1669,-0.2536,-0.4661,-0.524,-0.5925,-0.7369,-0.7587,-0.7686,-0.7988,-0.7884,-0.7848,-0.7814,-0.7573,-0.7453,-0.7419,-0.7227,-0.7095,-0.7095,-0.6964,-0.719,-0.7847,-0.7745,-0.7999,-0.8656,-0.8656,-0.8275,-0.748,-0.748,-0.7061,-0.63,-0.63,-0.63,-0.6289,-0.6098,0.0,0.0,-0.5447,-0.5242,-0.5135,-0.49,-0.4921,-0.509,-0.4891,-0.5057,-0.5359,-0.4957,-0.4954,-0.5057,-0.4888,-0.6001,-0.7442,-0.7442,-0.7442,-0.7376,-0.7117,-0.7043,-0.7006,-0.6788,-0.6747,-0.6733,-0.6687,-0.6678,-0.6518,-0.5884,-0.5755,-0.5604,-0.5009,-0.5366,-0.5574,-0.5009,-0.5288,-0.5403,-0.4826,-0.4665,-0.4576,-0.4542,-0.5001,-0.5538,-0.61,-0.6285,-0.6312,-0.615,-0.6285,-0.6312,-0.615,-0.6426,-0.6534,-0.6367,-0.6367,-0.6367,-0.6367,-0.6236,-0.6173,-0.6192,-0.6346,-0.6581,-0.6824,-0.6926,-0.7148,0.6644,0.5987,0.5297,0.5362,0.4501,0.3304,0.2057,0.1701,0.1344,0.0225,0.0,-0.0045,-0.0138,-0.1173,-0.2054,-0.229,-0.3368,-0.4658,-0.5977,-0.6179,-0.6631,-0.7839,-0.7978,-0.7914,-0.7824,-0.7672,-0.7519,-0.7429,-0.7227,-0.7095,-0.7095,-0.6964,-0.69,-0.6826,-0.6711,-0.6601,-0.6567,-0.6567,-0.6528,-0.6451,-0.6451,-0.6377,-0.63,-0.63,-0.63,-0.6289,-0.6098,-0.5983,0.0,-0.4773,-0.4319,-0.4229,-0.3313,-0.3445,-0.4048,-0.3245,-0.3982,-0.516,-0.3513,-0.348,-0.3982,-0.3211,-0.4181,-0.5624,-0.5624,-0.5624,-0.562,-0.5606,-0.5602,-0.5599,-0.5552,-0.5548,-0.5513,-0.5332,-0.5297,-0.5231,-0.5037,-0.5009,-0.4979,-0.4918,-0.4948,-0.4979,-0.4918,-0.4938,-0.4958,-0.4897,-0.4887,-0.4826,-0.4687,-0.4725,-0.4759,-0.4698,-0.5246,-0.5355,-0.4736,-0.5246,-0.5355,-0.4736,-0.5882,-0.6312,-0.5624,-0.5597,-0.5597,-0.5597,-0.5003,-0.4752,-0.4869,-0.4883,-0.5042,-0.5297,-0.5311,-0.5435,0.682,0.6552,0.6314,0.6413,0.4996,0.3481,0.2992,0.1745,0.0584,0.009,0.0,0.0,0.0,-0.0431,-0.1073,-0.1886,-0.2452,-0.3265,-0.462,-0.482,-0.5272,-0.6631,-0.6783,-0.7111,-0.7855,-0.7056,-0.6415,-0.6209,-0.61,-0.6071,-0.6071,-0.6687,-0.6903,-0.6709,-0.6641,-0.6535,-0.6303,-0.63,-0.63,-0.63,-0.63,-0.63,-0.6261,-0.5628,-0.5354,-0.5312,-0.456,-0.4199,0.0,-0.3627,-0.3362,-0.3271,-0.2842,-0.2911,-0.3178,-0.2845,-0.3147,-0.368,-0.2945,-0.2911,-0.3145,-0.2811,-0.3178,-0.3782,-0.3782,-0.3782,-0.3782,-0.3782,-0.3782,-0.3782,-0.3782,-0.3782,-0.377,-0.3661,-0.365,-0.364,-0.36,-0.3561,-0.3561,-0.3561,-0.3561,-0.3754,-0.4274,-0.4304,-0.4412,-0.4953,-0.4941,-0.4897,-0.4836,-0.4826,-0.4806,-0.4745,-0.4847,-0.4787,-0.4515,-0.4732,-0.4787,-0.4515,-0.5034,-0.5195,-0.4921,-0.4893,-0.4942,-0.5014,-0.4766,-0.4674,-0.4826,-0.4914,-0.4985,-0.51,-0.5226,-0.5337,0.6886,0.6991,0.7095,0.7095,0.562,0.4061,0.3659,0.2013,0.045,0.0091,0.0,0.0,0.0,0.0,-0.0296,-0.1256,-0.141,-0.1862,-0.3215,-0.3416,-0.3917,-0.5272,-0.5425,-0.5774,-0.6728,-0.5823,-0.5097,-0.4878,-0.4884,-0.4865,-0.4865,-0.5622,-0.595,-0.5743,-0.5693,-0.5572,-0.5356,-0.5354,-0.5354,-0.5354,-0.5354,-0.5354,-0.5315,-0.4569,-0.4217,-0.4178,-0.3435,-0.3056,0.0,-0.2635,-0.2459,-0.236,-0.2024,-0.2058,-0.2243,-0.2011,-0.2243,-0.2611,-0.2078,-0.2076,-0.2243,-0.1977,-0.191,-0.191,-0.191,-0.2278,-0.2711,-0.2711,-0.2711,-0.2711,-0.2711,-0.2711,-0.2711,-0.2711,-0.2711,-0.2711,-0.2711,-0.2711,-0.2711,-0.2711,-0.2711,-0.2911,-0.3513,-0.3554,-0.3667,-0.4285,-0.431,-0.4244,-0.4207,-0.4204,-0.4159,-0.4119,-0.3925,-0.4048,-0.4567,-0.4627,-0.451,-0.4251,-0.4222,-0.4222,-0.4222,-0.4222,-0.4384,-0.4755,-0.4758,-0.483,-0.4951,-0.5049,-0.512,-0.517,-0.5042,-0.499,0.6886,0.6991,0.7095,0.7095,0.6248,0.509,0.3881,0.2635,0.1441,0.023,0.0,0.0,0.0,0.0,0.0,0.0,0.0,-0.0504,-0.1812,-0.2013,-0.2514,-0.3865,-0.4016,-0.4016,-0.4016,-0.3931,-0.3765,-0.3641,-0.3612,0.0,-0.3614,-0.3614,-0.3591,-0.3439,-0.3352,-0.3277,-0.3124,-0.3124,-0.3124,-0.3124,-0.3124,-0.3124,-0.3124,-0.3124,-0.3124,-0.3124,-0.3124,-0.3085,0.0,-0.2019,-0.1599,-0.1522,-0.0425,-0.0551,-0.1207,-0.0337,-0.1176,-0.2444,-0.0639,-0.0605,-0.1173,-0.0303,-0.0034,-0.0034,-0.0034,-0.1276,-0.2711,-0.2711,-0.2711,-0.2711,-0.2711,-0.2711,-0.2711,-0.2711,-0.2711,-0.2711,-0.2711,-0.2711,-0.2711,-0.2711,-0.2711,-0.2711,-0.2711,-0.2709,-0.2709,-0.2709,-0.2709,-0.2682,-0.2547,-0.2538,-0.2446,-0.225,-0.224,-0.2946,-0.4759,-0.4884,-0.4512,-0.3651,-0.362,-0.362,-0.362,-0.362,-0.4019,-0.4887,-0.4887,-0.4955,-0.5096,-0.51,-0.5209,-0.5359,-0.445,-0.4015,0.7031,0.7061,0.6918,0.6115,0.5043,0.3838,0.2637,0.1448,0.0459,0.0092,0.0,0.0,0.0,0.0,0.0,0.0,0.0,-0.0151,-0.0555,-0.0656,-0.1109,-0.2464,-0.3466,-0.3646,-0.2715,-0.2604,-0.25,-0.2402,-0.2353,-0.237,-0.237,-0.237,-0.2674,-0.3313,-0.335,-0.3277,-0.3086,-0.3085,-0.3085,-0.3085,-0.3085,-0.3085,-0.3085,-0.2386,-0.2074,-0.2035,-0.1293,0.0,0.0,-0.0649,-0.0489,-0.0485,-0.0145,-0.0177,-0.0381,-0.0104,-0.0376,-0.0773,-0.0202,-0.0168,-0.037,-0.0101,0.0,0.0,0.0,-0.0404,-0.084,-0.084,-0.084,-0.084,-0.084,-0.084,-0.084,-0.084,-0.084,-0.084,-0.084,-0.084,-0.084,-0.084,-0.084,-0.1041,-0.1641,-0.1742,-0.1975,-0.2611,-0.2711,-0.2669,-0.2647,-0.2644,-0.2601,-0.2544,-0.2543,-0.2695,-0.302,-0.304,-0.2948,-0.2673,-0.2642,-0.2642,-0.2642,-0.2642,-0.2822,-0.3263,-0.3265,-0.3341,-0.3467,-0.3467,-0.3482,-0.3547,-0.3245,-0.3111,0.5797,0.5797,0.562,0.491,0.3817,0.2713,0.1992,0.0875,0.0,0.0,0.0,0.0,0.0,0.0,0.0,0.0,0.0,0.0,0.0,0.0,-0.0303,-0.1159,-0.1963,-0.2153,-0.1338,-0.1257,-0.1231,-0.1123,-0.1139,-0.1121,-0.1121,-0.1121,-0.1406,-0.2016,-0.2098,-0.2052,-0.1917,-0.1916,-0.1916,-0.1916,-0.1916,-0.1916,-0.1917,-0.1293,-0.098,-0.0941,-0.0275,0.0,0.0,0.0,0.0,0.0,0.0,0.0,0.0,0.0,0.0,0.0,0.0,0.0,0.0,0.0,0.0,0.0,0.0,0.0,0.0,0.0,0.0,0.0,0.0,0.0,0.0,0.0,0.0,0.0,0.0,0.0,0.0,0.0,0.0,-0.0168,-0.0706,-0.0806,-0.1007,-0.1576,-0.1677,-0.1677,-0.1677,-0.1677,-0.1677,-0.1677,-0.1677,-0.1587,-0.1373,-0.2002,-0.2223,-0.1874,-0.1874,-0.1874,-0.1874,-0.1874,-0.2082,-0.2577,-0.2579,-0.2633,-0.2711,-0.2711,-0.2511,-0.2177,-0.2544,-0.2509,0.0,0.3481,0.3571,0.3487,0.2636,0.1756,0.1712,0.08,0.0,0.0,0.0,0.0,0.0,0.0,0.0,0.0,0.0,0.0,0.0,0.0,0.0,0.0,0.0,0.0,0.0,0.0,0.0,0.0,0.0,0.0,0.0,0.0,0.0,0.0,0.0,0.0,0.0,0.0,0.0,0.0,0.0,0.0,0.0,0.0,0.0,0.0,0.0,0.0,0.0,0.0,0.0,0.0,0.0,0.0,0.0,0.0,0.0,0.0,0.0,0.0,0.0,0.0,0.0,0.0,0.0,0.0,0.0,0.0,0.0,0.0,0.0,0.0,0.0,0.0,0.0,0.0,0.0,0.0,0.0,0.0,0.0,0.0,0.0,0.0,0.0,0.0,0.0,0.0,0.0,0.0,0.0,0.0,0.0,0.0,0.0,-0.1543,-0.2143,-0.1274,-0.1207,-0.1207,-0.1207,-0.1207,-0.1608,-0.2477,-0.2511,-0.2511,-0.2511,-0.2511,-0.2076,-0.124,-0.211,-0.2043,0.0848,0.0,0.336,0.2463,0.2024,0.1577,0.0,0.0192,0.0,0.0,0.0,0.0,0.0,0.0,0.0,0.0,0.0,0.0,0.0,0.0,0.0,0.0,0.0,0.0,0.0,0.0,0.0,0.0,0.0,0.0,0.0,0.0,0.0,0.0,0.0,0.0,0.0,0.0,0.0,0.0,0.0,0.0,0.0,0.0,0.0,0.0,0.0,0.0,0.0,0.0,0.0,0.0,0.0,0.0,0.0,0.0,0.0,0.0,0.0,0.0,0.0,0.0,0.0,0.0,0.0,0.0,0.0,0.0,0.0,0.0,0.0,0.0,0.0,0.0,0.0,0.0,0.0,0.0,0.0,0.0,0.0,0.0,0.0,0.0,0.0,0.0,0.0,0.0,0.0,0.0,0.0,0.0,0.0,0.0,0.0,-0.0404,-0.0538,-0.0303,-0.0303,-0.0303,-0.0303,-0.0303,-0.0404,-0.0639,-0.0639,-0.0639,-0.0639,-0.0639,-0.0505,-0.0303,-0.0538,-0.0505,0.0,0.0941,0.1798,0.1149,0.0977,0.0801,0.0144,0.0,0.0,0.0,0.0,0.0,0.0,0.0,0.0,0.0,0.0,0.0,0.0,0.0,0.0,0.0,0.0,0.0,0.0,0.0,0.0,0.0,0.0,0.0,0.0,0.0,0.0,0.0,0.0,0.0,0.0,0.0,0.0,0.0,0.0,0.0,0.0,0.0,0.0,0.0,0.0,0.0,0.0,0.0,0.0,0.0,0.0,0.0,0.0,0.0,0.0,0.0,0.0,0.0,0.0071,0.0561,0.0733,0.0733,0.0733,0.0733,0.0625,0.0136,0.0,0.0,0.0,0.0,0.0,0.0,0.0,0.0,0.0,0.0,0.0,0.0,0.0,0.0,0.0,0.0,0.0,0.0,0.0,0.0,0.0,0.0,0.0,0.0,0.0,0.0,0.0,0.0,0.0,0.0,0.0,0.0,0.0,0.0,0.0,0.0,0.0,0.0,0.0,0.0,0.0,0.0,0.0,0.0,0.0,0.0,0.0,0.0,0.0,0.0,0.0,0.0,0.0,0.0,0.0,0.0,0.0,0.0,0.0,0.0,0.0,0.0,0.0,0.0,0.0,0.0,0.0,0.0,0.0,0.0,0.0,0.0,0.0,0.0,0.0,0.0,0.0,0.0,0.0,0.0,0.0,0.0,0.0,0.0,0.0,0.0,0.0,0.0,0.0,0.0,0.0,0.0,0.0,0.0,0.0,0.0,0.0,0.0,0.0,0.0,0.0,0.0038,0.0185,0.0256,0.0403,0.1492,0.1818,0.1818,0.1818,0.1818,0.1622,0.0553,0.0136,0.0,0.0,0.0,0.0,0.0,0.0,0.0,0.0,0.0,0.0,0.0,0.0,0.0,0.0,0.0,0.0,0.0,0.0,0.0,0.0,0.0,0.0,0.0,0.0,0.0,0.0,0.0,0.0,0.0,0.0,0.0,0.0,0.0,0.0,0.0,0.0,0.0,0.0,0.0,0.0,0.0,0.0,0.0,0.0,0.0,0.0,0.0,0.0,0.0,0.0,0.0,0.0,0.0,0.0,0.0,0.0,0.0,0.0,0.0,0.0,0.0,0.0,0.0,0.0,0.0,0.0,0.0,0.0,0.0,0.0,0.0,0.0,0.0,0.0,0.0,0.0,0.0,0.0,0.0,0.0,0.0,0.0,0.0,0.0,0.0,0.0,0.0,0.0,0.0,0.0,0.0,0.0,0.0,0.0,0.0,0.0,0.0,0.0,0.0,0.0,0.0117,0.1023,0.1353,0.1534,0.2525,0.287,0.287,0.287,0.287,0.2647,0.1657,0.0683,0.0,0.0,0.0,0.0,0.0,0.0,0.0,0.0,0.0,0.0,0.0,0.0,0.0,0.0,0.0,0.0,0.0,0.0,0.0,0.0,0.0,0.0,0.0,0.0,0.0,0.0,0.0,0.0,0.0,0.0,0.0,0.0,0.0,0.0,0.0,0.0,0.0,0.0,0.0,0.0,0.0,0.0,0.0,0.0,0.0,0.0,0.0,0.0,0.0,0.0,0.0,0.0,0.0,0.0,0.0,0.0,0.0,0.0,0.0,0.0,0.0,0.0,0.0,0.0,0.0,0.0,0.0,0.0,0.0,0.0,0.0,0.0,0.0,0.0,0.0,0.0,0.0,0.0,0.0,0.0,0.0,0.0,0.0,0.0,0.0,0.0,0.0,0.0,0.0,0.0,0.0,0.0,0.0,0.0353,0.0863,0.0863,0.1214,0.1682,0.1682,0.1682,0.1758,0.2239,0.2422,0.2571,0.3642,0.3969,0.3969,0.3969,0.3969,0.3741,0.2722,0.1669,0.0728,0.0146,0.0,0.0,0.0,0.0,0.0,0.0,0.0,0.0,0.0,0.0,0.0,0.0,0.0,0.0,0.0,0.0,0.0,0.0,0.0,0.0,0.0,0.0,0.0,0.0,0.0,0.0,0.0,0.0,0.0,0.0,0.0,0.0,0.0,0.0,0.0,0.0,0.0,0.0,0.0,0.0,0.0,0.0,0.0,0.0,0.0,0.0,0.0,0.0,0.0,0.0,0.0,0.0,0.0,0.0,0.0,0.0,0.0,0.0,0.0,0.0,0.0,0.0,0.0,0.0,0.0,0.0,0.0,0.0,0.0,0.0,0.0,0.0,0.0,0.0,0.0,0.0,0.0,0.0,0.0,0.0,0.0,0.0,0.0,0.0,0.0,0.0118,0.0392,0.0392,0.051,0.0745,0.0745,0.1058,0.1607,0.1607,0.1918,0.2422,0.2929,0.2968,0.2813,0.3318,0.3474,0.3671,0.4727,0.5079,0.5079,0.5079,0.5079,0.4844,0.3787,0.293,0.207,0.0999,0.0741,0.0741,0.0741,0.0556,0.0445,0.0667,0.0334,0.0074,0.0334,0.0185,0.0,0.0,0.0,0.0,0.0,0.0,0.0,0.0,0.0,0.0,0.0,0.0,0.0,0.0,0.0,0.0,0.0,0.0,0.0,0.0,0.0,0.0,0.0,0.0,0.0,0.0,0.0,0.0,0.0,0.0,0.0,0.0,0.0,0.0,0.0,0.0,0.0,0.0,0.0,0.0,0.0,0.0,0.0,0.0,0.0,0.0,0.0,0.0,0.0,0.0,0.0,0.0,0.0,0.0,0.0,0.0,0.0,0.0,0.0,0.0,0.0,0.0,0.0,0.0,0.0,0.0,0.0,0.0,0.0,0.0,0.0,0.0,0.0,0.0,0.0,0.0549,0.1489,0.1489,0.1996,0.289,0.289,0.2384,0.1607,0.1607,0.1019,0.0471,0.2384,0.2501,0.1997,0.3906,0.4569,0.4766,0.5828,0.618,0.618,0.618,0.618,0.5944,0.4882,0.4518,0.4235,0.3147,0.2874,0.2874,0.2874,0.218,0.1754,0.2682,0.1363,0.0312,0.1287,0.0663,0.0,0.0,0.0,0.0,0.0,0.0,0.0,0.0,0.0,0.0,0.0,0.0,0.0,0.0,0.0,0.0,0.0,0.0,0.0,0.0,0.0,0.0,0.0,0.0,0.0,0.0,0.0,0.0,0.0,0.0,0.0,0.0,0.0,0.0,0.0,0.0,0.0,0.0,0.0,0.0,0.0,0.0,0.0,0.0,0.0,0.0,0.0,0.0,0.0,0.0,0.0,0.0,0.0,0.0,0.0,0.0,0.0,0.0,0.0,0.0,0.0,0.0,0.0,0.0,0.0,0.0,0.0,0.0,0.0,0.0,0.0,0.0,0.0,0.0,0.0,0.0236,0.0588,0.0588,0.1215,0.2151,0.2151,0.2698,0.3597,0.4261,0.4261,0.4025,0.4805,0.4846,0.4652,0.5434,0.5709,0.5747,0.618,0.63,0.63,0.63,0.63,0.6222,0.5825,0.5709,0.5276,0.3552,0.3085,0.3085,0.3085,0.2813,0.2618,0.3007,0.25,0.1878,0.1645,0.1254,0.0782,0.0116,0.0,0.0,0.0,0.0,0.0,0.0,0.0,0.0,0.0,0.0,0.0,0.0,0.0,0.0,0.0,0.0,0.0,0.0,0.0,0.0,0.0,0.0,0.0,0.0,0.0,0.0,0.0,0.0,0.0,0.0,0.0,0.0,0.0,0.0,0.0,0.0,0.0,0.0,0.0,0.0,0.0,0.0,0.0,0.0,0.0,0.0,0.0,0.0,0.0,0.0,0.0,0.0,0.0,0.0,0.0,0.0,0.0,0.0,0.0,0.0,0.0,0.0168,0.05,0.0521,0.0667,0.0979,0.0979,0.0979,0.0979,0.0979,0.0627,0.0,0.0,0.0196,0.051,0.051,0.1097,0.2074,0.2074,0.2893,0.4256,0.5002,0.5276,0.5354,0.6064,0.6103,0.5828,0.618,0.63,0.63,0.63,0.63,0.63,0.63,0.63,0.63,0.63,0.63,0.5944,0.4491,0.41,0.41,0.41,0.3865,0.3709,0.4021,0.3591,0.3007,0.2659,0.2309,0.184,0.1097,0.0979,0.0979,0.0979,0.0706,0.051,0.051,0.0196,0.0,0.0,0.0,0.0,0.0,0.0,0.0,0.0,0.0,0.0,0.0,0.0,0.0,0.0,0.0,0.0,0.0,0.0,0.0,0.0,0.0,0.0,0.0,0.0,0.0,0.0,0.0,0.0,0.0,0.0,0.0,0.0,0.0,0.0,0.0,0.0,0.0,0.0,0.0,0.0,0.0,0.0,0.0,0.0,0.0,0.0,0.0,0.0,0.0,0.0,0.0045,0.0045,0.0044,0.0043,0.05,0.1585,0.1627,0.2074,0.3085,0.3085,0.3085,0.3085,0.3085,0.2033,0.0,0.0,0.0588,0.1568,0.1568,0.2152,0.3085,0.3085,0.3085,0.3085,0.3085,0.3085,0.3357,0.5473,0.5589,0.4844,0.5906,0.6261,0.6261,0.63,0.63,0.63,0.63,0.63,0.63,0.63,0.63,0.63,0.63,0.63,0.63,0.63,0.5473,0.5002,0.606,0.4647,0.3435,0.4491,0.3826,0.3124,0.3085,0.3085,0.3085,0.3085,0.2268,0.1607,0.1607,0.0706,0.0039,0.0,0.0,0.0,0.0,0.0,0.0,0.0,0.0039,0.0038,0.0,0.0,0.0,0.0,0.0,0.0,0.0,0.0,0.0,0.0,0.0,0.0039,0.0,0.0,0.0,0.0,0.0,0.0,0.0,0.0,0.0,0.0,0.0,0.0,0.0,0.0,0.0,0.0,0.0,0.0,0.0,0.0,0.0,0.0,0.0,0.0,0.0,0.0765,0.1254,0.1254,0.2057,0.2481,0.2387,0.2334,0.2407,0.2635,0.2651,0.2812,0.3085,0.3085,0.3085,0.3085,0.3085,0.2423,0.1137,0.1137,0.0902,0.0471,0.0471,0.1058,0.2113,0.2813,0.3085,0.3085,0.3085,0.3085,0.3163,0.3826,0.3865,0.3632,0.3943,0.4062,0.4178,0.4924,0.5157,0.5315,0.606,0.63,0.63,0.63,0.63,0.63,0.63,0.63,0.63,0.63,0.6064,0.5906,0.6219,0.5786,0.5237,0.4805,0.4453,0.3982,0.324,0.3085,0.3085,0.3085,0.2851,0.2657,0.2657,0.2384,0.1917,0.1215,0.1137,0.0824,0.0079,0.0706,0.1137,0.1137,0.18,0.1516,0.0077,0.0,0.0,0.0,0.0,0.0,0.0,0.0,0.0392,0.1137,0.1137,0.1488,0.0,0.0,0.0,0.0,0.0,0.0,0.0,0.0,0.0,0.0,0.0,0.0,0.0,0.0,0.0,0.0,0.0,0.0,0.0,0.0,0.019,0.0649,0.0734,0.0908,0.139,0.2102,0.2503,0.2503,0.3102,0.3453,0.3423,0.3305,0.3392,0.3713,0.3738,0.3943,0.4373,0.4373,0.4373,0.4373,0.4373,0.3828,0.2817,0.2387,0.1839,0.1214,0.0824,0.102,0.1607,0.18,0.2111,0.2501,0.2501,0.2735,0.3085,0.3085,0.3085,0.3085,0.3085,0.3085,0.3202,0.3865,0.4062,0.4178,0.4844,0.504,0.504,0.504,0.504,0.504,0.504,0.504,0.5237,0.6103,0.63,0.63,0.63,0.63,0.6103,0.5473,0.5354,0.5118,0.4491,0.4373,0.4373,0.4373,0.4021,0.3591,0.3163,0.3085,0.2851,0.2268,0.219,0.1918,0.1292,0.1839,0.219,0.219,0.2773,0.2539,0.1292,0.1214,0.1058,0.0628,0.1019,0.1214,0.1214,0.1214,0.1566,0.219,0.219,0.2501,0.0,0.0,0.0,0.0,0.0,0.0,0.0,0.0,0.0,0.0,0.0,0.0,0.0,0.0,0.005,0.0147,0.0147,0.0194,0.0333,0.0327,0.0739,0.1842,0.1946,0.2413,0.3481,0.3703,0.3748,0.3748,0.3678,0.3644,0.369,0.3524,0.3842,0.4807,0.4844,0.5315,0.63,0.63,0.63,0.63,0.63,0.5786,0.4805,0.3748,0.3202,0.3046,0.2152,0.1723,0.1646,0.0588,0.0784,0.1723,0.1528,0.2074,0.2968,0.2851,0.2812,0.2812,0.2812,0.2812,0.2851,0.2929,0.2968,0.3007,0.3202,0.3163,0.3124,0.3318,0.324,0.3124,0.3202,0.3163,0.3593,0.555,0.6103,0.618,0.6261,0.6219,0.618,0.63,0.6219,0.618,0.63,0.63,0.63,0.63,0.5473,0.4491,0.3513,0.3396,0.3357,0.324,0.324,0.3163,0.2968,0.3046,0.3046,0.2968,0.3046,0.3046,0.2968,0.3046,0.2657,0.1762,0.2618,0.3046,0.2968,0.2968,0.2968,0.2968,0.2968,0.3007,0.0,0.0,0.0,0.0,0.0,0.0,0.0,0.0,0.0,0.0,0.0,0.0,0.0,0.0,0.0294,0.125,0.1389,0.1759,0.2697,0.2818,0.2931,0.3198,0.3224,0.3303,0.357,0.4463,0.5001,0.5001,0.5695,0.6087,0.5993,0.5856,0.5842,0.5948,0.5944,0.606,0.63,0.63,0.63,0.0,0.63,0.618,0.5906,0.4844,0.3904,0.3085,0.289,0.2773,0.2696,0.1684,0.184,0.2618,0.098,0.098,0.184,0.098,0.0666,0.0666,0.0666,0.0666,0.0823,0.1644,0.1919,0.2231,0.3867,0.3787,0.3435,0.5157,0.4414,0.3279,0.4139,0.3748,0.3202,0.3669,0.4414,0.5276,0.6103,0.5628,0.5276,0.6141,0.5628,0.5315,0.6141,0.63,0.63,0.63,0.6103,0.5867,0.5628,0.5628,0.5276,0.4453,0.4373,0.3711,0.2074,0.2657,0.2773,0.1957,0.2657,0.2735,0.1957,0.2696,0.3007,0.2773,0.3007,0.2696,0.1919,0.1919,0.1919,0.1919,0.1919,0.2347,-0.0135,0.0,0.0,0.0,0.0,0.0,0.0,0.0,0.0147,0.0737,0.0396,0.0198,0.0777,0.087,0.1248,0.2444,0.267,0.2883,0.3503,0.3584,0.3796,0.438,0.4463,0.4685,0.5218,0.5844,0.618,0.6121,0.6557,0.6753,0.66,0.6491,0.6375,0.6303,0.63,0.63,0.63,0.63,0.63,0.63,0.63,0.63,0.63,0.5709,0.5157,0.4608,0.41,0.3865,0.3787,0.2735,0.2618,0.3007,0.1917,0.1839,0.2268,0.1682,0.1488,0.1488,0.1488,0.1488,0.1565,0.2151,0.2308,0.2501,0.3593,0.3552,0.3318,0.4453,0.3945,0.324,0.3787,0.3513,0.324,0.3748,0.3904,0.41,0.4647,0.4334,0.41,0.4647,0.4334,0.41,0.4686,0.4766,0.4766,0.4766,0.4766,0.4766,0.4766,0.4766,0.4569,0.3982,0.3943,0.3476,0.2425,0.2812,0.289,0.2347,0.2813,0.2851,0.2347,0.2813,0.289,0.2386,0.2851,0.2851,0.2308,0.2308,0.2308,0.2308,0.2308,0.2579,-0.0314,0.0,0.0,0.0,0.0,0.0,0.0,0.0143,0.0571,0.1611,0.1011,0.0679,0.19,0.2129,0.249,0.3723,0.3893,0.3961,0.4158,0.4192,0.4594,0.5581,0.5672,0.6071,0.7007,0.7071,0.7011,0.6896,0.6763,0.6607,0.6518,0.6378,0.63,0.63,0.63,0.63,0.63,0.63,0.63,0.63,0.63,0.63,0.63,0.63,0.63,0.6261,0.5354,0.496,0.4882,0.3826,0.3476,0.3632,0.324,0.3202,0.3357,0.3163,0.3085,0.3085,0.3085,0.3085,0.3085,0.3085,0.3085,0.3124,0.3318,0.324,0.3163,0.3552,0.3396,0.3163,0.3318,0.324,0.3322,0.424,0.3771,0.3217,0.3595,0.324,0.3007,0.3552,0.3513,0.3322,0.3141,0.3103,0.3108,0.3082,0.3084,0.3084,0.3084,0.3084,0.3084,0.3084,0.3084,0.3043,0.2847,0.2847,0.2768,0.2571,0.2561,0.2556,0.2556,0.2584,0.2189,0.1333,0.2501,0.3007,0.2851,0.2851,0.2734,0.2578,0.2578,0.2578,-0.0314,0.0,0.0,0.0,0.0,0.0,0.0,0.081,0.1611,0.1768,0.1649,0.1946,0.3157,0.3376,0.3765,0.4949,0.5156,0.5508,0.6517,0.6647,0.6694,0.6874,0.6874,0.6918,0.7095,0.6987,0.6906,0.6886,0.6664,0.6535,0.6515,0.6378,0.63,0.63,0.63,0.63,0.63,0.63,0.63,0.63,0.63,0.63,0.63,0.63,0.63,0.63,0.6141,0.6103,0.5983,0.4924,0.504,0.567,0.3826,0.3669,0.4373,0.3435,0.3085,0.3085,0.3085,0.3085,0.3085,0.3085,0.3085,0.3279,0.4217,0.3826,0.3476,0.5354,0.453,0.3318,0.4256,0.3787,0.318,0.3487,0.3423,0.3764,0.5497,0.3713,0.2621,0.5356,0.5118,0.4206,0.325,0.31,0.3081,0.3103,0.3112,0.3112,0.3112,0.3112,0.3112,0.3112,0.3112,0.274,0.1868,0.1786,0.1414,0.0459,0.0409,0.0405,0.0405,0.0397,0.0353,0.0236,0.2111,0.2657,0.1802,0.1802,0.1332,0.0431,0.0431,0.0431,-0.0494,0.0,0.0,0.0,0.0,0.0182,0.0873,0.1426,0.2201,0.354,0.3832,0.3983,0.4488,0.4617,0.5008,0.6169,0.634,0.6517,0.7051,0.7095,0.7095,0.7095,0.7095,0.7095,0.7095,0.6967,0.6852,0.6807,0.6597,0.6477,0.6399,0.6334,0.63,0.63,0.63,0.63,0.63,0.63,0.63,0.63,0.63,0.63,0.63,0.63,0.63,0.63,0.63,0.63,0.6261,0.5786,0.5867,0.6222,0.5273,0.5196,0.555,0.5079,0.4882,0.4882,0.4882,0.4882,0.4882,0.4882,0.4882,0.4999,0.547,0.5276,0.5079,0.6025,0.568,0.5094,0.5574,0.5428,0.513,0.5224,0.4782,0.4726,0.6192,0.4513,0.293,0.3658,0.2847,0.192,0.1445,0.1365,0.1369,0.1383,0.1343,0.1343,0.1343,0.1343,0.1343,0.1343,0.1343,0.1176,0.0756,0.0714,0.0504,0.0042,0.0,0.0,0.0,0.0,0.0,0.0,0.0914,0.1136,0.0706,0.0706,0.0471,0.0,0.0,0.0,-0.0584,0.0,0.0,0.0,0.0225,0.0673,0.1612,0.2281,0.3218,0.5045,0.5625,0.5849,0.5849,0.5849,0.6115,0.6962,0.7095,0.7095,0.7095,0.7095,0.7095,0.7095,0.7095,0.7082,0.7045,0.6913,0.6807,0.6654,0.6545,0.6412,0.6306,0.63,0.63,0.63,0.63,0.63,0.63,0.63,0.63,0.63,0.63,0.63,0.63,0.63,0.63,0.63,0.63,0.63,0.63,0.63,0.63,0.63,0.63,0.63,0.63,0.63,0.63,0.63,0.63,0.63,0.63,0.63,0.63,0.63,0.63,0.6323,0.6354,0.6354,0.646,0.6569,0.6569,0.6614,0.6712,0.6749,0.6122,0.5602,0.5868,0.5108,0.3978,0.2556,0.172,0.122,0.0974,0.0678,0.0467,0.047,0.0214,0.0,0.0,0.0,0.0,0.0,0.0,0.0,0.0,0.0,0.0,0.0,0.0,0.0,0.0,0.0,0.0,0.0,0.0,0.0,0.0,0.0,0.0,0.0,0.0,0.0,-0.0359,0.0,0.0,0.0,0.0852,0.1701,0.179,0.3573,0.527,0.5359,0.6248,0.7007,0.7007,0.7007,0.7051,0.7095,0.7095,0.7095,0.7095,0.7095,0.7095,0.7095,0.7095,0.7045,0.691,0.6803,0.6651,0.6535,0.6392,0.6306,0.63,0.63,0.63,0.63,0.63,0.63,0.63,0.63,0.63,0.63,0.63,0.63,0.63,0.63,0.63,0.63,0.63,0.63,0.63,0.63,0.63,0.63,0.63,0.63,0.63,0.63,0.63,0.63,0.63,0.63,0.63,0.63,0.63,0.63,0.63,0.6395,0.6501,0.6501,0.6569,0.6688,0.6688,0.6695,0.6736,0.6839,0.683,0.623,0.4208,0.5233,0.5945,0.3897,0.4226,0.4548,0.3576,0.2465,0.17,0.169,0.0715,0.0,0.0,0.0,0.0,0.0,0.0,0.0,0.0,0.0,0.0,0.0,0.0,0.0,0.0,0.0,0.0,0.0,0.0,0.0,0.0,0.0,0.0,0.0,0.0,0.0,-0.1478,-0.0583,0.0,0.0,0.0897,0.2013,0.2769,0.4241,0.5628,0.6337,0.6827,0.7095,0.7095,0.7095,0.7095,0.7095,0.7095,0.7095,0.7095,0.7095,0.7095,0.7095,0.7095,0.7041,0.69,0.679,0.6637,0.6525,0.6378,0.63,0.63,0.63,0.63,0.63,0.63,0.63,0.63,0.63,0.63,0.63,0.63,0.63,0.63,0.63,0.63,0.63,0.63,0.63,0.63,0.63,0.63,0.63,0.63,0.63,0.63,0.63,0.63,0.63,0.63,0.63,0.63,0.63,0.6361,0.6436,0.6436,0.6542,0.6617,0.6617,0.6729,0.6848,0.6848,0.6873,0.6953,0.7007,0.7021,0.6826,0.6031,0.5849,0.5632,0.4891,0.4407,0.3762,0.2649,0.2079,0.1554,0.0762,0.0269,0.0,0.0,0.0,0.0,0.0,0.0,0.0,0.0,0.0,0.0,0.0,0.0,0.0,0.0,0.0,0.0,0.0,0.0,0.0,0.0,0.0,0.0,0.0,0.0,0.0,-0.2147,-0.0897,0.0,0.0,0.0897,0.2102,0.3303,0.4552,0.5714,0.6874,0.7095,0.7095,0.7095,0.7095,0.7095,0.7095,0.7095,0.7095,0.7095,0.7095,0.7095,0.7095,0.7095,0.7021,0.6871,0.6759,0.6617,0.6457,0.6354,0.0,0.63,0.63,0.63,0.63,0.63,0.63,0.63,0.63,0.63,0.63,0.63,0.63,0.63,0.63,0.63,0.63,0.63,0.63,0.63,0.63,0.63,0.63,0.63,0.63,0.63,0.63,0.63,0.63,0.63,0.63,0.6306,0.6358,0.6433,0.6521,0.6532,0.6658,0.6776,0.6776,0.6885,0.6957,0.6957,0.7024,0.7095,0.7095,0.7095,0.7095,0.7095,0.6517,0.5983,0.5983,0.5309,0.4505,0.3707,0.3261,0.2727,0.1926,0.1121,0.0583,0.0583,0.0269,0.0,0.0,0.0,0.0,0.0,0.0,0.0,0.0,0.0,0.0,0.0,0.0,0.0,0.0,0.0,0.0,0.0,0.0,0.0,0.0,0.0,0.0,0.0,0.0,0.0,0.0,0.0897,0.2102,0.3303,0.4552,0.5714,0.6874,0.7095,0.7095,0.7095,0.7095,0.7095,0.7095,0.7095,0.7095,0.7095,0.7095,0.7095,0.7095,0.7095,0.6984,0.6736,0.6705,0.658,0.6327,0.6303,0.63,0.63,0.63,0.63,0.63,0.63,0.63,0.63,0.63,0.63,0.63,0.63,0.63,0.63,0.63,0.63,0.63,0.63,0.63,0.63,0.63,0.63,0.63,0.63,0.63,0.63,0.63,0.63,0.63,0.63,0.63,0.6323,0.6467,0.6515,0.6549,0.6661,0.6814,0.6893,0.6893,0.6991,0.7095,0.7095,0.7095,0.7095,0.7095,0.7095,0.7095,0.7095,0.7095,0.7095,0.7095,0.7095,0.7095,0.7051,0.6115,0.5403,0.5359,0.3352,0.1835,0.1835,0.0807,0.0045,0.0045,0.0,0.0,0.0,0.0,0.0,0.0,0.0,0.0,0.0,0.0,0.0,0.0,0.0,0.0,0.0,0.0,0.0,0.0,0.0,0.0,-0.3438,0.0,0.0,0.0,0.0,0.0,0.3303,0.4552,0.5714,0.6874,0.7095,0.7095,0.7095,0.7095,0.7095,0.7095,0.7095,0.7095,0.7095,0.7095,0.7095,0.7095,0.7095,0.7024,0.6839,0.6766,0.662,0.0,0.6358,0.63,0.63,0.63,0.63,0.63,0.63,0.63,0.63,0.63,0.63,0.63,0.63,0.63,0.63,0.63,0.63,0.63,0.63,0.63,0.63,0.63,0.63,0.63,0.63,0.63,0.63,0.63,0.63,0.63,0.63,0.63,0.6323,0.6467,0.6549,0.6664,0.682,0.6923,0.7038,0.7038,0.7065,0.7095,0.7095,0.7095,0.7095,0.7095,0.7095,0.7095,0.7095,0.7095,0.7095,0.7095,0.7095,0.6827,0.6027,0.5628,0.509,0.4241,0.3527,0.3081,0.3081,0.2057,0.1299,0.1299,0.0539,0.0,0.0,0.0,0.0,0.0,0.0,0.0,0.0,0.0,0.0,0.0,0.0,0.0,0.0,0.0,0.0,0.0,0.0,0.0,-0.3927,-0.2726,-0.1522,-0.0314,0.0,0.0,0.2592,0.3794,0.4999,0.616,0.6782,0.7095,0.7095,0.7095,0.7095,0.7095,0.7095,0.7095,0.7095,0.7095,0.7095,0.7095,0.7095,0.7041,0.69,0.6848,0.6705,0.6528,0.6436,0.6361,0.6303,0.63,0.63,0.63,0.63,0.63,0.63,0.63,0.63,0.63,0.63,0.63,0.63,0.63,0.63,0.63,0.63,0.63,0.63,0.63,0.63,0.63,0.63,0.63,0.63,0.63,0.63,0.63,0.63,0.6337,0.6412,0.6559,0.6671,0.6824,0.6927,0.7031,0.7095,0.7095,0.7095,0.7095,0.7095,0.7095,0.7095,0.7095,0.7095,0.7095,0.7095,0.7095,0.7095,0.7095,0.7095,0.6871,0.6204,0.6115,0.5891,0.5174,0.4639,0.433,0.433,0.3304,0.2547,0.2547,0.1924,0.1299,0.0807,0.0763,0.0539,0.0045,0.0,0.0,0.0,0.0,0.0,0.0,0.0,0.0,0.0,0.0,0.0,0.0,0.0,0.0,-0.4105,-0.2903,-0.1701,-0.0494,-0.009,0.0,0.1522,0.2637,0.3794,0.5134,0.6204,0.6962,0.7095,0.7095,0.7095,0.7095,0.7095,0.7095,0.7095,0.7095,0.7095,0.7095,0.7095,0.7048,0.692,0.6896,0.6817,0.6546,0.6549,0.6474,0.633,0.6323,0.6317,0.63,0.63,0.63,0.63,0.63,0.63,0.63,0.63,0.63,0.63,0.63,0.63,0.63,0.63,0.63,0.63,0.63,0.63,0.63,0.63,0.63,0.63,0.63,0.63,0.63,0.63,0.6395,0.6538,0.6651,0.6803,0.6913,0.7055,0.7095,0.7095,0.7095,0.7095,0.7095,0.7095,0.7095,0.7095,0.7095,0.7095,0.7095,0.7095,0.7095,0.7095,0.7095,0.7095,0.7095,0.7095,0.7095,0.7095,0.7095,0.6248,0.5581,0.5581,0.4552,0.3792,0.3792,0.357,0.2948,0.1879,0.1656,0.1121,0.009,0.0135,0.0135,0.0,0.0135,0.0135,0.0,0.0,0.0,0.0,0.0,0.0,0.0,0.0,0.0,-0.5356,-0.4152,-0.2948,-0.1746,-0.0718,0.0,0.1522,0.1969,0.2771,0.4956,0.5581,0.6027,0.6918,0.7095,0.7095,0.7095,0.7095,0.7095,0.7095,0.7095,0.7095,0.7095,0.7095,0.7085,0.7058,0.6953,0.6862,0.6844,0.6725,0.659,0.6477,0.647,0.6419,0.6303,0.63,0.63,0.63,0.63,0.63,0.63,0.63,0.63,0.63,0.63,0.63,0.63,0.63,0.63,0.63,0.63,0.63,0.63,0.63,0.63,0.63,0.63,0.63,0.63,0.63,0.6395,0.6538,0.6651,0.6803,0.6913,0.7055,0.7095,0.7095,0.7095,0.7095,0.7095,0.7095,0.7095,0.7095,0.7095,0.7095,0.7095,0.7095,0.7095,0.7095,0.7095,0.7095,0.7095,0.7095,0.7095,0.7095,0.7095,0.6918,0.6782,0.6782,0.5758,0.5045,0.5045,0.3306,0.2057,0.1835,0.0897,0.0269,0.0,0.0897,0.1031,0.0045,0.0942,0.0986,0.0,0.0,0.0,0.0,0.0,0.0,0.0,0.0,0.0,-0.5714,-0.4954,-0.4063,-0.2236,-0.1344,0.0,0.0,0.1389,0.2148,0.3352,0.4554,0.5581,0.616,0.6694,0.7095,0.7095,0.7095,0.7095,0.7095,0.7095,0.7095,0.7095,0.7095,0.7095,0.7095,0.7034,0.696,0.6889,0.6787,0.6668,0.659,0.6586,0.6552,0.6481,0.6446,0.6405,0.6405,0.6334,0.63,0.63,0.63,0.63,0.63,0.63,0.63,0.63,0.63,0.63,0.63,0.63,0.63,0.63,0.63,0.63,0.63,0.63,0.63,0.631,0.6381,0.6504,0.661,0.6766,0.6873,0.7004,0.7075,0.7095,0.7095,0.7095,0.7095,0.7095,0.7095,0.7095,0.7095,0.7095,0.7095,0.7095,0.7095,0.7095,0.7095,0.7095,0.7095,0.7095,0.7095,0.7095,0.7095,0.7095,0.7095,0.7095,0.7095,0.6605,0.6248,0.6248,0.5176,0.4196,0.3662,0.304,0.2416,0.1835,0.237,0.2147,0.0941,0.1478,0.121,0.0045,0.0,0.0,0.0,0.0,0.0,0.0,0.0,0.0,-0.5983,-0.5581,-0.4912,-0.2995,-0.2148,-0.1567,0.0,0.0,0.0,0.1746,0.3528,0.5134,0.5359,0.6337,0.7088,0.7058,0.7078,0.7088,0.7058,0.7078,0.0,0.7095,0.7095,0.7095,0.7095,0.7095,0.7048,0.6933,0.6854,0.6773,0.6746,0.6746,0.6729,0.6702,0.658,0.6555,0.6555,0.6412,0.634,0.634,0.6313,0.63,0.63,0.63,0.63,0.63,0.63,0.63,0.63,0.63,0.63,0.63,0.63,0.63,0.63,0.63,0.63,0.632,0.6463,0.6573,0.6725,0.6836,0.698,0.7095,0.7095,0.7095,0.7095,0.7095,0.7095,0.7095,0.7095,0.7095,0.7095,0.7095,0.7095,0.7095,0.7095,0.7095,0.7095,0.7095,0.7095,0.7095,0.7095,0.7095,0.7095,0.7095,0.7095,0.7095,0.7095,0.7095,0.7095,0.7095,0.6918,0.6381,0.5492,0.5179,0.4552,0.3347,0.3481,0.2948,0.1522,0.1433,0.0986,0.0,0.0,0.0,0.0,0.0,0.0,0.0,0.0,0.0,-0.6962,-0.616,-0.5314,-0.5045,-0.3396,-0.1745,-0.1612,0.0,0.0494,0.1567,0.0,0.415,0.5223,0.0,0.0,0.693,0.7014,0.7051,0.6927,0.7018,0.7095,0.7095,0.7095,0.7095,0.7095,0.7095,0.7088,0.7071,0.7055,0.6991,0.6866,0.6859,0.6841,0.6705,0.6681,0.6675,0.6675,0.6525,0.6487,0.6487,0.6361,0.63,0.63,0.63,0.63,0.63,0.63,0.63,0.63,0.63,0.63,0.63,0.63,0.63,0.63,0.63,0.63,0.632,0.6463,0.6573,0.6725,0.6836,0.698,0.7095,0.7095,0.7095,0.7095,0.7095,0.7095,0.7095,0.7095,0.7095,0.7095,0.7095,0.7095,0.7095,0.7095,0.7095,0.7095,0.7095,0.7095,0.7095,0.7095,0.7095,0.7095,0.7095,0.7095,0.7095,0.7095,0.7095,0.7095,0.7095,0.6204,0.5536,0.5403,0.4419,0.3304,0.2102,0.2992,0.2592,0.0314,0.0225,0.0135,0.0,0.0,0.0,0.0,0.0,0.0,0.0,0.0,0.0,-0.7272,-0.6738,-0.6248,-0.5581,-0.4643,-0.353,-0.2102,-0.1388,-0.0717,0.0493,0.0,0.0,0.0,0.0,0.0,0.0,0.6615,0.7075,0.7014,0.7058,0.7095,0.7095,0.0,0.0,0.7095,0.7095,0.0,0.0,0.7095,0.7068,0.7011,0.7007,0.6977,0.6913,0.6875,0.6831,0.6831,0.6681,0.6559,0.6511,0.6453,0.6378,0.63,0.63,0.63,0.63,0.63,0.63,0.63,0.63,0.63,0.63,0.63,0.63,0.63,0.63,0.6354,0.6446,0.6552,0.6705,0.6858,0.696,0.7048,0.7095,0.7095,0.7095,0.7095,0.7095,0.7095,0.7095,0.7095,0.7095,0.7095,0.7095,0.7095,0.7095,0.7095,0.7095,0.7095,0.7095,0.7095,0.7095,0.7095,0.7095,0.7095,0.7095,0.7095,0.7095,0.7095,0.7095,0.7095,0.7095,0.665,0.6381,0.6381,0.5933,0.5398,0.4907,0.473,0.3885,0.2147,0.2102,0.1745,0.1076,0.1746,0.2102,0.2102,0.1389,0.1031,0.1031,0.0314,0.0,-0.736,0.0,0.0,0.0,0.0,0.0,0.0,0.0,0.0,0.0,0.0941,0.0,0.0,0.0,0.4989,0.5274,0.0,0.6725,0.7001,0.7071,0.7095,0.7095,0.0,0.0,0.0,0.7095,0.7095,0.7095,0.7095,0.7095,0.7095,0.7095,0.7095,0.7095,0.6997,0.6943,0.6943,0.6837,0.6709,0.6597,0.6552,0.6457,0.6358,0.6317,0.63,0.63,0.63,0.63,0.63,0.63,0.63,0.63,0.63,0.63,0.63,0.63,0.6388,0.6535,0.6647,0.6827,0.696,0.7061,0.7095,0.7095,0.7095,0.7095,0.7095,0.7095,0.7095,0.7095,0.7095,0.7095,0.7095,0.7095,0.7095,0.7095,0.7095,0.7095,0.7095,0.7095,0.7095,0.7095,0.7095,0.7095,0.7095,0.7095,0.7095,0.7095,0.7095,0.7095,0.7095,0.7095,0.7095,0.7095,0.7095,0.7095,0.6962,0.665,0.5534,0.4508,0.3614,0.3614,0.317,0.2324,0.317,0.3614,0.3614,0.2726,0.2281,0.2236,0.0718,0.0,0.0,0.0,0.0,-0.7051,0.0,0.0,0.0,0.0,-0.1478,0.0,0.0,0.0,0.179,0.2815,0.399,0.4949,0.5287,0.0,0.0,0.7011,0.7095,0.7095,0.7095,0.0,0.0,0.7095,0.7095,0.7095,0.7095,0.7095,0.7095,0.7095,0.7095,0.7095,0.7092,0.7088,0.7088,0.695,0.6876,0.6869,0.6614,0.6511,0.6501,0.6364,0.63,0.63,0.63,0.63,0.63,0.63,0.63,0.63,0.63,0.63,0.63,0.63,0.6388,0.6535,0.6647,0.6892,0.7092,0.7095,0.7095,0.7095,0.7095,0.7095,0.7095,0.7095,0.7095,0.7095,0.7095,0.7095,0.7095,0.7095,0.7095,0.7095,0.7095,0.7095,0.7095,0.7095,0.7095,0.7095,0.7095,0.7095,0.7095,0.7095,0.7095,0.7095,0.7095,0.7095,0.7095,0.7095,0.7095,0.7095,0.7095,0.7095,0.665,0.5536,0.433,0.3659,0.3614,0.3614,0.357,0.3525,0.357,0.3614,0.3614,0.357,0.3525,0.3481,0.1121,0.0,0.0,0.0,-0.7095,-0.7095,0.0,0.0,0.0,0.0,0.0,0.0,0.0,0.0,0.0,0.1612,0.2541,0.2877,0.3645,0.4585,0.0,0.6577,0.7095,0.7095,0.7095,0.7095,0.0,0.0,0.7095,0.7095,0.7095,0.7095,0.7095,0.7095,0.7095,0.7095,0.7095,0.7095,0.7095,0.7048,0.6977,0.6883,0.6824,0.6668,0.6511,0.6463,0.6388,0.63,0.63,0.63,0.63,0.63,0.63,0.63,0.63,0.63,0.631,0.6405,0.6535,0.6658,0.6905,0.7014,0.7095,0.7095,0.7095,0.7095,0.7095,0.7095,0.7095,0.7095,0.7095,0.7095,0.7095,0.7095,0.7095,0.7095,0.7095,0.7095,0.7095,0.7095,0.7095,0.7095,0.7095,0.7095,0.7095,0.7095,0.7095,0.7095,0.7095,0.7095,0.7095,0.7095,0.7095,0.7095,0.7095,0.7095,0.7095,0.7095,0.6918,0.6561,0.6157,0.5575,0.4821,0.5531,0.5575,0.4821,0.5531,0.5933,0.5933,0.5176,0.4776,0.4732,0.3127,0.1969,-0.7316,-0.7095,0.0,-0.7095,-0.7095,0.0,-0.5669,0.0,-0.3794,0.0,0.0,0.0,0.0,0.0628,0.1299,0.1746,0.2458,0.3393,0.0,0.5758,0.6517,0.6517,0.6874,0.7095,0.7095,0.7095,0.7095,0.7095,0.7095,0.7095,0.0,0.0,0.7095,0.7095,0.7095,0.7095,0.7095,0.7095,0.7051,0.696,0.691,0.6824,0.663,0.6562,0.6463,0.6371,0.632,0.63,0.63,0.63,0.63,0.63,0.63,0.633,0.6385,0.6477,0.6603,0.6817,0.7014,0.7095,0.7095,0.7095,0.7095,0.7095,0.7095,0.7095,0.7095,0.7095,0.7095,0.7095,0.7095,0.7095,0.7095,0.7095,0.7095,0.7095,0.7095,0.7095,0.7095,0.7095,0.7095,0.7095,0.7095,0.7095,0.7095,0.7095,0.7095,0.7095,0.7095,0.7095,0.7095,0.7095,0.7095,0.7095,0.7095,0.7095,0.7095,0.7095,0.7095,0.6782,0.6027,0.6694,0.6808,0.614,0.6764,0.7122,0.7221,0.6405,0.6027,0.5983,0.4774,0.3616]},{"header":{"parameterUnit":"m.s-1","parameterCategory":1,"la1":30.6,"la2":29.2853,"lo1":-89.7004,"lo2":-87.6739,"dy":0.0162,"dx":0.0183,"nx":112,"ny":82,"refTime":"2023-07-24T06:00:00:Z","depth":0,"parameterNumber":3,"parameterNumberName":"V-component_of_WINDS"},"data":[0.0,0.0,0.0,0.0,0.0,0.0,0.0,0.0,0.0,0.0,0.0,0.0,0.0,0.0,0.0,0.0,0.0,0.0,0.0,0.0,0.0,0.0,0.0,0.0,0.0,0.0,0.0,0.0,0.0,0.0,0.0,0.0,0.0,0.0,0.0,0.0,0.0,0.0,0.0,0.0,0.0,0.0,0.0,0.0,0.0,0.0,0.0,0.0,0.0,0.0,0.0,0.0,0.0,0.0,0.0,0.0,0.0,0.0,0.0,0.0,0.0,0.0,0.0,0.0,0.0,0.0,0.0,0.0,0.0,0.0,0.0,0.0,0.0,0.0,0.0,0.0,0.0,0.0,0.0,0.0,0.0,0.0,0.0,0.0,0.0,0.0,0.0,0.0,0.0,0.0,0.8909,0.7897,0.6371,0.5326,0.5193,0.4317,0.3411,0.2544,0.0,0.0,0.0,0.0,0.0,0.0,0.0,0.0,0.0,0.0,0.0,0.0,0.0,0.0,0.0,0.0,0.0,0.0,0.0,0.0,0.0,0.0,0.0,0.0,0.0,0.0,0.0,0.0,0.0,0.0,0.0,0.0,0.0,0.0,0.0,0.0,0.0,0.0,0.0,0.0,0.0,0.0,0.0,0.0,0.0,0.0,0.0,0.0,0.0,0.0,0.0,0.0,0.0,0.0,0.0,0.0,0.0,0.0,0.0,0.0,0.0,0.0,0.0,0.0,0.0,0.0,0.0,0.0,0.0,0.0,0.0,0.0,0.0,0.0,0.0,0.0,0.0,0.0,0.0,0.0,0.0,0.0,0.0,0.0,0.0,0.0,0.0,0.0,0.0,0.0,0.0,0.0,0.0,0.0,0.0,0.0,0.0,0.0,0.0,0.0,0.0,0.0,0.0,0.0,0.8678,0.7079,0.6009,0.509,0.4284,0.3413,0.2509,0.1574,0.0,0.0,0.0,0.0,0.0,0.0,0.0,0.0,0.0,0.0,0.0,0.0,0.0,0.0,0.0,0.0,0.0,0.0,0.0,0.0,0.0,0.0,0.0,0.0,0.0,0.0,0.0,0.0,0.0,0.0,0.0,0.0,0.0,0.0,0.0,0.0,0.0,0.0,0.0,0.0,0.0,0.0,0.0,0.0,0.0,0.0,0.0,0.0,0.0,0.0,0.0,0.0,0.0,0.0,0.0,0.0,0.0,0.0,0.0,0.0,0.0,0.0,0.0,0.0,0.0,0.0,0.0,0.0,0.0,0.0,0.0,0.0,0.0,0.0,0.0,0.0,0.0,0.0,0.0,0.0,0.0,0.0,0.0,0.0,0.0,0.0,0.0,0.0,0.0,0.0,0.0,0.0,0.0,0.0,0.0,0.0,0.0,0.0,0.0,0.0,0.0,0.0,0.0,0.8447,0.7409,0.6141,0.562,0.5024,0.4082,0.3211,0.231,0.1374,0.0402,0.0,0.0,0.0,0.0,0.0,0.0,0.0,0.0,0.0,0.0,0.0,0.0,0.0,0.0,0.0,0.0,0.0,0.0,0.0,0.0,0.0,0.0,0.0,0.0,0.0,0.0,0.0,0.0,0.0,0.0,0.0,0.0,0.0,0.0,0.0,0.0,0.0,0.0,0.0,0.0,0.0,0.0,0.0,0.0,0.0,0.0,0.0,0.0,0.0,0.0,0.0,0.0,0.0,0.0,0.0,0.0,0.0,0.0,0.0,0.0,0.0,0.0,0.0,0.0,0.0,0.0,0.0,0.0,0.0,0.0,0.0,0.0,0.0,0.0,0.0,0.0,0.0,0.0,0.0,0.0,0.0,0.0,0.0,0.0,0.0,0.0,0.0,0.0,0.0,0.0,0.0,0.0,0.0,0.0,0.0,0.0,0.0,0.0,0.0,0.0,0.0,0.0,0.7307,0.6593,0.5524,0.5395,0.4921,0.3782,0.3078,0.221,0.1074,-0.067,0.0,0.0,0.0,0.0,0.0,0.0,0.0,0.0,0.0,0.0,0.0,0.0,0.0,0.0,0.0,0.0,0.0,0.0,0.0,0.0,0.0,0.0,0.0,0.0,0.0,0.0,0.0,0.0,0.0,0.0,0.0,0.0,0.0,0.0,0.0,0.0,0.0,0.0,0.0,0.0,0.0,0.0,0.0,0.0,0.0,0.0,0.0,0.0,0.0,0.0,0.0,0.0,0.0,0.0,0.0,0.0,0.0,0.0,0.0,0.0,0.0,0.0,0.0,0.0,0.0,0.0,0.0,0.0,0.0,0.0,0.0,0.0,0.0,0.0,0.0,0.0,0.0,0.0,0.0,0.0,0.0,0.0,0.0,0.0,0.0,0.0,0.0,0.0,0.0,0.0,0.0,0.0,0.0,0.0,0.0,0.0,0.0,0.0,0.0,0.0,0.0,0.0,0.7437,0.7246,0.5591,0.5395,0.4686,0.2945,0.2744,0.1944,0.0202,-0.1609,0.0,0.0,0.0,0.0,0.0,0.0,0.0,0.0,0.0,0.0,0.0,0.0,0.0,0.0,0.0,0.0,0.0,0.0,0.0,0.0,0.0,0.0,0.0,0.0,0.0,0.0,0.0,0.0,0.0,0.0,0.0,0.0,0.0,0.0,0.0,0.0,0.0,0.0,0.0,0.0,0.0,0.0,0.0,0.0,0.0,0.0,0.0,0.0,0.0,0.0,0.0,0.0,0.0,0.0,0.0,0.0,0.0,0.0,0.0,0.0,0.0,0.0,0.0,0.0,0.0,0.0,0.0,0.0,0.0,0.0,0.0,0.0,0.0,0.0,0.0,0.0,0.0,0.0,0.0,0.0,0.0,0.0,0.0,0.0,0.0,0.0,0.0,0.0,0.0,0.0,0.0,0.0,0.0,0.0,0.0,0.0,0.0,0.0,0.0,0.0,0.0,0.0,0.6498,0.6112,0.5458,0.5395,0.4652,0.2845,0.2711,0.1944,0.0101,0.0,0.0,0.0,0.0,0.0,0.0,0.0,0.0,0.0,0.0,0.0,0.0,0.0,0.0,0.0,0.0,0.0,0.0,0.0,0.0,0.0,0.0,0.0,0.0,0.0,0.0,0.0,0.0,0.0,0.0,0.0,0.0,0.0,0.0,0.0,0.0,0.0,0.0,0.0,0.0,0.0,0.0,0.0,0.0,0.0,0.0,0.0,0.0,0.0,0.0,0.0,0.0,0.0,0.0,0.0,0.0,0.0,0.0,0.0,0.0,0.0,0.0,0.0,0.0,0.0,0.0,0.0,0.0,0.0,0.0,0.0,0.0,0.0,0.0,0.0,0.0,0.0,0.0,0.0,0.0,0.0,0.0,0.0,0.0,0.0,0.0,0.0,0.0,0.0,0.0,0.0,0.0,0.0,0.0,0.0,0.0,0.0,0.0,0.0,0.0,0.0,0.0,0.6367,0.6009,0.5719,0.5428,0.5395,0.4652,0.2845,0.2711,0.1944,0.0101,0.0,0.0,0.0,0.0,0.0,0.0,0.0,0.0,0.0,0.0,0.0,0.0,0.0,0.0,0.0,0.0,0.0,0.0,0.0,0.0,0.0,0.0,0.0,0.0,0.0,0.0,0.0,0.0,0.0,0.0,0.0,0.0,0.0,0.0,0.0,0.0,0.0,0.0,0.0,0.0,0.0,0.0,0.0,0.0,0.0,0.0,0.0,0.0,0.0,0.0,0.0,0.0,0.0,0.0,0.0,0.0,0.0,0.0,0.0,0.0,0.0,0.0,0.0,0.0,0.0,0.0,0.0,0.0,0.0,0.0,0.0,0.0,0.0,0.0,0.0,0.0,0.0,0.0,0.0,0.0,0.0,0.0,0.0,0.0,0.0,0.0,0.0,0.0,0.0,0.0,0.0,0.0,0.0,0.0,0.0,0.0,0.0,0.0,0.0,0.0,0.0,0.0,0.5624,0.6137,0.6367,0.5491,0.5395,0.4652,0.2845,0.2711,0.1944,0.0,0.0,0.0,0.0,0.0,0.0,0.0,0.0,0.0,0.0,0.0,0.0,0.0,0.0,0.0,0.0,0.0,0.0,0.0,0.0,0.0,0.0,0.0,0.0,0.0,0.0,0.0,0.0,0.0,0.0,0.0,0.0,0.0,0.0,0.0,0.0,0.0,0.0,0.0,0.0,0.0,0.0,0.0,0.0,0.0,0.0,0.0,0.0,0.0,0.0,0.0,0.0,0.0,0.0,0.0,0.0,0.0,0.0,0.0,0.0,0.0,0.0,0.0,0.0,0.0,0.0,0.0,0.0,0.0,0.0,0.0,0.0,0.0,0.0,0.0,0.0,0.0,0.0,0.0,0.0,0.0,0.0,0.0,0.0,0.0,0.0,0.0,0.0,0.0,0.0,0.0,0.0,0.0,0.0,0.0,0.0,0.0,0.0,0.0,0.0,0.0,0.0,0.0,0.5458,0.562,0.5686,0.5428,0.5395,0.4652,0.2845,0.2711,0.1944,0.0101,0.0,0.0,0.0,0.0,0.0,0.0,0.0,0.0,0.0,0.0,0.0,0.0,0.0,0.0,0.0,0.0,0.0,0.0,0.0,0.0,0.0,0.0,0.0,0.0,0.0,0.0,0.0,0.0,0.0,0.0,0.0,0.0,0.0,0.0,0.0,0.0,0.0,0.0,0.0,0.0,0.0,0.0,0.0,0.0,0.0,0.0,0.0,0.0,0.0,0.0,0.0,0.0,0.0,0.0,0.0,0.0,0.0,0.0,0.0,0.0,0.0,0.0,0.0,0.0,0.0,0.0,0.0,0.0,0.0,0.0,0.0,0.0,0.0,0.0,0.0,0.0,0.0,0.0,0.0,0.0,0.0,0.0,0.0,0.0,0.0,0.0,0.0,0.0,0.0,0.0,0.0,0.0,0.0,0.0,0.0,0.0,0.0,0.0,0.0,0.0,0.0,0.0,0.5395,0.5395,0.5395,0.5395,0.5395,0.4652,0.2845,0.2711,0.1944,0.0101,0.0,0.0,0.0,0.0,0.0,0.0,0.0,0.0,0.0,0.0,0.0,0.0,0.0,0.0,0.0,0.0,0.0,0.0,0.0,0.0,0.0,0.0,0.0,0.0,0.0,0.0,0.0,0.0,0.0,0.0,0.0,0.0,0.0,0.0,0.0,0.0,0.0,0.0,0.0,0.0,0.0,0.0,0.0,0.0,0.0,0.0,0.0,0.0,0.0,0.0,0.0,0.0,0.0,0.0,0.0,0.0,0.0,0.0,0.0,0.0,0.0,0.0,0.0,0.0,0.0,0.0,0.0,0.0,0.0,0.0,0.0,0.0,0.0,0.0,0.0,0.0,0.0,0.0,0.0,0.0,0.0,0.0,0.0,0.0,0.0,0.0,0.0,0.0,0.0,0.0,0.0,0.0,0.0,0.0,0.0,0.0,0.0,0.0,0.0,0.0,0.0,0.0,0.5395,0.5395,0.5395,0.5395,0.5395,0.4652,0.2845,0.2711,0.1944,0.0101,0.0,0.0,0.0,0.0,0.0,0.0,0.0,0.0,0.0,0.0,0.0,0.0,0.0,0.0,0.0,0.0,0.0,0.0,0.0,0.0,0.0,0.0,0.0,0.0,0.0,0.0,0.0,0.0,0.0,0.0,0.0,0.0,0.0,0.0,0.0,0.0,0.0,0.0,0.0,0.0,0.0,0.0,0.0,0.0,0.0,0.0,0.0,0.0,0.0,0.0,0.0,0.0,0.0,0.0,0.0,0.0,0.0,0.0,0.0,0.0,1.2161,0.0,0.0,0.0,0.0,0.0,0.0,0.0,0.0,0.0,0.0,0.0,0.0,0.0,0.0,0.0,0.0,0.0,0.0,0.0,0.0,0.0,0.0,0.0,0.0,0.0,0.0,0.0,0.0,0.0,0.0,0.0,0.0,0.0,0.0,0.0,0.0,0.0,0.0,0.0,0.0,0.0,0.5395,0.5395,0.5395,0.5395,0.5395,0.4652,0.2845,0.2711,0.1944,0.0101,-0.0806,0.0,0.0,0.0,0.0,0.0,0.0,0.0,0.0,0.0,0.0,0.0,0.0,0.0,0.0,0.0,0.0,0.0,0.0,0.0,0.0,0.0,0.0,0.0,0.0,0.0,0.0,0.0,0.0,0.0,0.0,0.0,0.0,0.0,0.0,0.0,0.0,0.0,0.0,0.0,0.0,0.0,0.0,0.0,0.0,0.0,0.0,0.0,0.0,0.0,0.0,0.0,0.0,0.0,0.0,0.0,0.0,0.0,0.0,0.0,0.0,1.1672,0.0,0.0,0.0,0.0,0.0,0.0,0.0,0.0,0.0,0.0,0.0,0.0,0.0,0.0,0.0,0.0,0.0,0.0,0.0,0.0,0.0,0.0,0.0,0.0,0.0,0.0,0.0,0.0,0.0,0.0,0.0,0.0,0.0,0.0,0.0,0.0,0.0,0.0,0.0,0.0,0.5395,0.5395,0.5365,0.5257,0.525,0.4664,0.3249,0.2797,0.2008,0.0626,-0.0231,0.0,0.0,0.0,0.0,0.0,0.0,0.0,0.0,0.0,0.0,0.0,0.0,0.0,0.0,0.0,0.0,0.0,0.0,0.0,0.0,0.0,0.0,0.0,0.0,0.0,0.0,0.0,0.0,0.0,0.0,0.0,0.0,0.0,0.0,0.0,0.0,0.0,0.0,0.0,0.0,0.0,0.0,0.0,0.0,0.0,0.0,0.0,0.0,0.0,0.0,0.0,0.0,0.0,1.308,1.3053,1.3053,1.3053,1.2913,1.2723,1.2939,1.2177,1.0763,1.0143,0.0,0.0,0.0,0.0,0.0,0.0,0.0,0.0,0.0,0.0,0.0,0.0,0.0,0.0,0.0,0.0,0.0,0.0,0.0,0.0,0.0,0.0,0.0,0.0,1.1089,1.0982,0.0,0.0,0.0,0.0,0.0,0.0,0.0,0.0,0.0,0.0,0.0,0.0,0.562,0.5599,0.5466,0.5142,0.5076,0.4665,0.3691,0.3042,0.2237,0.118,0.0514,-0.0195,0.0,0.0,0.0,0.0,0.0,0.0,0.0,0.0,0.0,0.0,0.0,0.0,0.0,0.0,0.0,0.0,0.0,0.0,0.0,0.0,0.0,0.0,0.0,0.0,0.0,0.0,0.0,0.0,0.0,0.0,0.0,0.0,2.0558,2.043,0.0,0.0,0.0,0.0,0.0,0.0,0.0,0.0,0.0,0.0,0.0,0.0,0.0,1.4965,1.4268,1.4117,1.3677,1.2844,1.2545,1.2425,1.2425,1.2425,1.2398,1.2365,1.2405,0.0,1.0789,1.0712,0.0,0.0,0.0,0.0,0.0,0.0,0.0,0.0,0.0,0.0,0.0,0.0,0.0,0.0,0.0,0.0,0.0,0.0,0.0,0.0,0.0,0.0,1.0707,1.0707,1.068,1.066,0.0,1.0874,1.0883,1.0533,0.974,0.0,0.0,0.0,0.0,0.0,0.0,0.0,0.6523,0.639,0.597,0.5195,0.4988,0.4568,0.3686,0.3501,0.277,0.1207,0.1016,0.0613,-0.013,-0.0067,0.0,0.0,0.0,0.0,0.0,0.0,0.0,0.0,0.0,0.0,0.0,0.0,0.0,0.0,0.0,0.0,0.0,0.0,0.0,0.0,0.0,0.0,0.0,0.0,0.0,0.0,0.0,0.0,0.0,2.127,2.0985,1.9987,1.9529,1.911,0.0,0.0,0.0,0.0,0.0,0.0,0.0,0.0,0.0,1.5965,1.5598,1.543,1.5538,1.446,1.3704,1.3297,1.3162,1.3098,1.3091,1.3665,1.3629,1.3098,1.3098,1.2542,1.1583,1.1013,1.0297,0.9437,0.0,0.0,0.0,0.0,0.8656,0.8751,0.9633,0.9917,0.0,0.9685,0.0,0.0,0.0,0.0,0.0,0.0,0.0,0.0,0.0,0.0,1.0794,1.0633,1.0593,1.0593,1.0593,1.0693,1.0747,0.0,0.9888,0.9172,0.878,0.0,0.0,0.0,0.0,0.7008,0.6598,0.6314,0.5827,0.4981,0.4826,0.4605,0.414,0.3698,0.311,0.239,0.1548,0.1181,0.1383,0.0978,0.0992,0.0,0.0,0.0,0.0,0.0,0.0,0.0,0.0,0.0,0.0,0.0,0.0,0.0,0.0,0.0,0.0,0.0,0.0,0.0,0.0,0.0,0.0,0.0,0.0,0.0,0.0,0.0,0.0,2.1803,2.1741,2.0419,2.0074,1.9628,0.0,0.0,0.0,0.0,0.0,0.0,1.6957,1.6298,1.6228,1.6922,1.6298,1.6149,1.6602,1.5155,1.4307,1.4099,1.4099,1.4099,1.4099,1.4843,1.4772,1.4099,1.4099,1.3702,1.2945,1.1681,1.1013,1.0746,0.9965,0.9518,0.9334,0.9593,0.9669,0.9793,1.0608,1.0827,1.0736,1.0501,1.0177,0.9748,0.8896,0.0,0.0,0.0,0.0,1.0224,1.0771,1.0914,1.0861,1.064,1.0593,1.0593,1.0593,1.0593,1.0593,0.0,1.0079,0.9562,0.9338,0.0,0.0,0.0,0.0,0.7603,0.6997,0.6544,0.5961,0.5075,0.4768,0.4614,0.4501,0.3959,0.352,0.335,0.2274,0.1887,0.2415,0.1883,0.1948,0.2649,0.0,0.0,0.0,0.0,0.0,0.0,0.0,0.0,0.0,0.0,0.0,0.0,0.0,0.0,0.0,0.0,0.0,0.0,0.0,0.0,0.0,0.0,0.0,0.0,0.0,0.0,0.0,0.0,0.0,2.2914,2.2218,0.0,0.0,0.0,0.0,1.8076,1.7974,1.794,1.794,1.7862,1.7862,1.794,1.7862,1.7467,1.6602,1.6498,1.6,1.5128,1.5128,1.5128,1.5128,1.5163,1.5163,1.5128,1.5128,1.5092,1.4914,1.3018,1.1657,1.0783,1.0746,1.0153,0.941,1.0378,1.0714,1.0858,1.1866,1.2025,1.1828,1.1815,1.0936,0.9823,0.9384,0.9336,0.0,0.0,0.9925,1.0569,1.0613,1.0613,1.0613,1.0593,1.0593,1.0593,1.0593,1.0593,1.0593,0.0,1.0561,1.0269,0.9434,0.0,0.9116,0.8823,0.874,0.8617,0.8345,0.7557,0.6701,0.5829,0.5005,0.4498,0.4491,0.446,0.4128,0.3436,0.3251,0.2903,0.2237,0.2369,0.2478,0.2513,0.2644,0.0,0.0,0.0,0.0,0.0,0.0,0.0,0.0,0.0,0.0,0.0,0.0,0.0,0.0,0.0,0.0,0.0,0.0,0.0,0.0,0.0,0.0,0.0,0.0,0.0,0.0,0.0,0.0,2.1604,2.171,0.0,2.0687,1.9824,1.9177,1.8844,1.8337,1.8008,1.8008,1.8008,1.8008,1.8008,1.8008,1.7828,1.7501,1.6888,1.6419,1.6105,1.6105,1.6105,1.6105,1.6724,1.668,1.6105,1.6097,1.5772,1.5163,1.445,1.3975,1.3628,1.3628,1.3019,1.2191,1.2522,1.2271,1.1779,1.1976,1.1993,1.1846,1.1464,1.0869,1.0327,1.0168,1.0174,1.02,1.0136,1.0364,1.0593,1.0593,1.0593,1.0593,1.0593,1.0593,1.0593,1.0593,1.1021,1.1375,1.1375,1.0958,1.0438,0.9898,0.9804,0.9709,0.9422,0.9188,0.887,0.8337,0.7822,0.717,0.64,0.6032,0.5855,0.5855,0.5855,0.555,0.48,0.4289,0.394,0.3804,0.3413,0.3518,0.4168,0.421,0.4007,0.0,0.0,0.0,0.0,0.0,0.0,0.0,0.0,0.0,0.0,0.0,0.0,0.0,0.0,0.0,0.0,0.0,0.0,0.0,0.0,0.0,0.0,0.0,0.0,0.0,2.2763,2.2689,2.1573,2.1959,2.197,2.1101,2.0526,2.0042,1.9748,1.921,1.8877,1.8877,1.8596,1.8428,1.8428,1.8134,1.8008,1.8008,1.7389,1.707,1.707,1.707,1.707,1.7104,1.7716,1.7647,1.707,1.7088,1.6733,1.6158,1.6158,1.6158,1.6088,1.5446,1.4772,1.4207,1.4207,1.381,1.3223,1.2941,1.2599,1.2186,1.1959,1.1297,1.0649,1.0926,1.0839,1.0649,1.0926,1.0807,1.0649,1.0926,1.0807,1.0593,1.0593,1.0807,1.0954,1.0795,1.1431,1.1973,1.1789,1.1449,1.1074,1.0588,1.038,1.0125,0.9608,0.9337,0.9005,0.8468,0.7997,0.7509,0.702,0.675,0.6588,0.6588,0.6367,0.6118,0.59,0.5175,0.4954,0.5312,0.4707,0.4674,0.5393,0.5283,0.4961,0.4486,0.0,0.0,0.0,0.0,0.0,0.0,0.0,0.0,0.0,0.0,0.0,0.0,0.0,0.0,0.0,0.0,0.0,0.0,0.0,0.0,0.0,0.0,0.0,2.3108,2.3108,2.3108,2.3108,2.3108,2.2793,2.2002,2.1908,2.1553,2.0687,2.0623,2.059,2.059,1.9814,1.9332,1.9332,1.8529,1.8076,1.8076,1.8076,1.8076,1.8076,1.8076,1.8076,1.8042,1.8042,1.8042,1.8042,1.8008,1.8042,1.8076,1.8042,1.8076,1.7896,1.6009,1.5269,1.5234,1.5234,1.5234,1.5149,1.4811,1.3914,1.3022,1.3437,1.227,1.0839,1.1586,1.1288,1.0832,1.1617,1.1288,1.0839,1.1655,1.1257,1.0688,1.0688,1.125,1.1698,1.1226,1.1811,1.2291,1.1828,1.2106,1.2206,1.1419,1.0987,1.0392,0.9376,0.9225,0.0,0.8844,0.8182,0.7723,0.7723,0.7101,0.6669,0.6696,0.6059,0.595,0.6664,0.6005,0.5923,0.6615,0.6117,0.5881,0.6048,0.5649,0.5455,0.5495,0.0,0.0,0.0,0.0,0.0,0.0,0.0,0.0,0.0,0.0,0.0,0.0,0.0,0.0,0.0,0.0,0.0,0.0,0.0,0.0,0.0,2.4781,2.4381,2.3245,2.3108,2.3108,2.3108,2.3108,2.3017,2.2793,2.2249,2.1815,2.1553,2.0942,2.059,2.059,2.0365,2.0236,2.0236,2.0009,1.9879,1.9879,1.9879,1.9879,1.9879,1.9879,1.9562,1.8944,1.8944,1.8944,1.8911,1.8269,1.8721,1.9857,1.921,1.9299,1.9716,1.7925,1.6828,1.621,1.621,1.579,1.5149,1.4708,1.4219,1.3736,1.3525,1.2954,1.2366,1.2604,1.252,1.2397,1.2612,1.252,1.2397,1.2612,1.252,1.2336,1.2336,1.2299,1.2204,1.2078,1.2429,1.2715,1.2602,1.2914,1.2788,1.1527,1.12,1.0782,0.979,0.964,0.0,0.8871,0.8619,0.8507,0.8507,0.8315,0.8388,0.8889,0.8725,0.8678,0.8834,0.8187,0.767,0.7351,0.671,0.6567,0.6928,0.6928,0.7035,0.0,0.0,0.0,0.0,0.0,0.0,0.0,0.0,0.0,0.0,0.0,0.0,0.0,0.0,0.0,0.0,0.0,0.0,0.0,0.0,0.0,0.0,2.5398,2.5091,2.4179,2.3783,2.359,2.359,2.3305,2.3108,2.3108,2.2671,2.2414,2.2414,2.1928,2.1647,2.1647,2.1333,2.1132,2.1132,2.0782,2.059,2.059,2.059,2.059,2.059,2.059,2.0333,1.9846,1.9846,1.9846,1.9814,1.9299,1.9661,2.0558,2.0042,2.0139,0.0,0.0,0.0,0.0,0.0,1.7042,1.61,1.5801,1.516,1.4437,1.4496,1.3824,1.307,1.3394,1.3282,1.307,1.3403,1.3252,1.307,1.3425,1.3243,1.2967,1.2789,1.2835,1.2794,1.2431,1.2787,1.3089,1.2922,1.3278,0.0,1.2478,1.1867,1.1216,1.0344,1.0218,1.009,0.9692,0.964,0.964,0.964,0.964,0.9788,1.0192,0.9946,0.0,0.0,0.0,0.8912,0.8489,0.7916,0.0,0.0,0.0,0.7474,0.7788,0.0,0.0,0.0,0.8636,0.8722,0.0,0.0,0.0,0.0,0.0,0.0,0.0,0.0,0.0,0.0,0.0,0.0,0.0,0.0,0.0,0.0,2.5702,2.5744,2.5744,2.5198,2.4685,2.445,2.3796,2.3365,2.3365,2.3365,2.3365,2.3365,2.3365,2.3335,2.3245,0.0,0.0,0.0,0.0,2.0878,2.0878,2.0878,2.0878,2.0878,2.0878,2.0846,2.0751,2.0751,2.0751,2.0751,2.0655,2.0719,2.0878,2.0782,2.0751,2.0655,1.9781,1.9911,2.0494,1.9662,1.8625,1.7648,1.7548,0.0,0.0,1.6047,1.5037,1.3648,1.4373,1.4067,1.3678,1.4364,1.4067,1.3678,1.4403,1.401,1.3331,1.2968,1.3338,1.3571,1.28,1.3157,1.3546,1.3159,1.3539,1.3909,1.3909,1.2865,1.183,1.1224,1.1015,1.0939,1.0998,1.0881,1.0864,1.0998,0.0,0.0,1.1007,1.0435,1.0351,1.1082,1.046,0.9987,0.9834,0.9434,0.8912,0.8306,0.7827,0.7719,0.7978,0.9514,1.0424,1.0691,0.9247,0.8988,0.0,0.0,0.0,0.0,0.0,0.0,0.0,0.0,0.0,0.0,0.0,0.0,0.0,0.0,0.0,2.7086,2.762,2.7974,2.7974,2.7774,2.7018,2.5369,2.5063,2.4951,2.4951,2.4951,2.4951,2.4951,2.4951,2.4696,2.4089,2.393,2.3547,2.2884,2.2689,2.2628,2.2628,2.2628,2.2628,2.2628,0.0,0.0,2.1647,2.1647,2.1647,2.1616,2.091,2.1353,2.2567,2.1939,2.1647,2.1553,2.0687,2.0462,2.0514,1.9868,1.9482,1.914,1.8379,1.7918,1.7604,1.7368,1.705,1.674,1.689,1.6824,0.0,1.689,1.6824,1.6768,1.689,1.6518,1.6045,1.596,1.5446,1.4925,1.4767,1.459,1.4449,1.4362,1.4456,1.4525,1.4525,1.3899,1.3345,1.3175,1.2254,1.1787,1.2276,1.1447,1.1182,1.2227,1.1865,1.1769,1.2352,1.2293,1.2488,1.3178,1.2585,1.172,1.0619,1.0488,1.0525,1.0632,1.0547,1.0635,1.0902,1.1575,1.1968,1.2039,1.2035,1.2128,0.0,0.0,0.0,0.0,0.0,0.0,0.0,0.0,0.0,0.0,0.0,2.7192,2.7919,0.0,2.8734,2.949,2.9872,3.0105,3.0105,2.9763,2.8853,2.7115,2.6567,2.6228,2.5938,2.591,2.5757,2.5425,2.5398,2.5231,2.4879,2.4851,2.4681,2.4266,2.4237,2.4237,2.4237,2.4237,2.4237,2.4237,2.4237,2.405,2.3644,2.3644,2.3644,2.3644,2.3191,2.3471,2.4182,2.345,2.3148,2.3081,2.23,2.1242,2.0142,2.0015,1.9553,1.8944,1.8454,1.8159,1.7902,1.7684,1.7605,1.7605,1.7605,1.7605,1.7605,1.7605,1.7605,1.755,1.7276,1.7004,1.6666,1.6176,1.5675,1.5228,1.5042,1.4843,1.4698,1.4698,1.4949,1.5141,1.5141,1.4892,1.4584,1.425,1.3656,1.3362,1.365,1.3151,1.3008,1.3627,1.3402,1.3351,1.3726,1.376,1.3888,1.4236,1.3935,1.3443,1.2778,1.243,1.2329,1.2495,1.2175,1.199,1.1949,1.2802,1.3327,1.3562,1.4377,1.4127,0.0,0.0,0.0,0.0,0.0,0.0,0.0,2.8165,2.8535,2.8097,2.8466,2.9115,2.9859,3.0379,3.0924,3.1502,3.171,3.1791,3.1791,3.1437,3.0737,2.9542,2.8553,2.7712,2.7089,2.7131,2.6876,2.6089,2.602,2.595,2.5809,2.5687,2.5605,2.5591,2.5467,2.5398,2.5398,2.5398,2.5398,2.5398,2.5398,2.5398,2.5398,2.5398,2.5398,2.5398,2.5398,2.5398,2.5313,2.4679,2.4389,2.4302,2.3525,2.2023,2.0299,2.0564,2.0029,1.9107,1.9001,1.8725,1.8401,1.8401,1.8401,1.8362,1.8251,1.8209,1.8159,1.7943,1.7947,1.7889,1.7367,1.7224,1.6998,1.6196,1.5916,1.5765,1.5424,1.5364,1.5364,1.5364,1.5762,1.6089,1.6089,1.6089,1.585,1.5152,1.4858,1.4766,1.5017,1.4846,1.4801,1.5017,1.4949,1.488,1.488,1.488,1.4812,1.4698,1.4812,1.4812,1.4698,1.417,1.3893,1.3893,1.3348,1.2958,1.2697,1.3847,1.461,1.5008,1.6172,1.5698,3.1246,3.0479,2.9749,2.9701,2.9484,2.9262,0.0,2.9232,2.9453,3.0035,3.0209,3.0503,3.1246,3.1422,3.1502,3.1582,3.2087,3.2504,3.2504,3.2933,3.3188,3.3044,3.1363,2.9962,2.931,2.9769,2.9611,2.8334,2.8236,2.7925,2.7213,2.6663,2.632,2.6191,2.5672,2.5398,2.5398,2.5398,2.5398,2.5398,2.5398,2.5398,2.5398,2.5398,2.5398,2.5398,2.5398,2.5323,2.5166,2.4631,2.4347,2.4134,2.3103,2.2524,2.2273,2.2334,2.2241,2.2042,2.1513,2.1293,2.1239,2.1239,2.1239,2.1156,2.0607,2.0434,2.023,1.9158,1.9206,1.9431,1.8887,1.8715,1.8634,1.8521,1.8131,1.7767,1.7733,1.772,1.772,1.772,1.778,1.7834,1.7834,1.7834,1.747,1.6454,1.5377,1.5085,1.6163,1.5354,1.5107,1.6173,1.582,1.5499,1.5499,1.5499,1.5276,1.4721,1.5208,1.5253,1.4721,1.4629,1.4583,1.4583,1.4503,1.4456,1.4418,1.546,1.5971,1.6074,1.7046,1.7346,3.2926,3.2231,3.1655,3.149,3.1319,3.1323,3.1788,3.1433,3.1189,3.1966,3.2132,3.2255,3.2705,3.3306,3.3789,3.3914,3.4154,3.4352,3.4352,3.425,3.4186,3.4186,3.3453,3.2517,3.1455,3.1587,3.1378,3.0429,2.9958,2.9543,2.9224,2.8563,2.8163,2.8117,2.7866,2.7733,2.7733,2.7733,2.7733,2.7733,2.7733,2.7733,2.7733,2.7733,2.7733,2.7703,2.7261,2.7072,2.6933,2.5886,2.5425,2.5268,2.4425,2.4103,2.3951,2.2578,2.2073,2.2032,2.1793,2.1697,2.1697,2.1697,2.1697,2.1649,2.14,2.1087,2.0681,2.0193,1.992,1.9678,1.9094,1.8923,1.8824,1.8521,1.8265,1.8106,1.8106,1.8106,1.819,1.8459,1.8517,1.8565,1.8823,1.8861,1.8697,1.8264,1.7336,1.6852,1.736,1.699,1.6873,1.7381,1.7224,1.7053,1.7053,1.7053,1.6936,1.6693,1.6928,1.6949,1.6693,1.6672,1.6672,1.6672,1.6672,1.6502,1.6148,1.7202,1.7757,1.7841,1.8883,1.9597,3.4083,3.3585,3.3191,3.297,3.2928,3.3088,3.3691,3.3316,3.3095,3.3871,3.4026,3.4161,3.4544,3.527,3.5879,3.6015,3.6054,3.6054,3.6054,3.5637,3.5318,3.5318,3.5318,3.4873,3.3771,3.3356,3.2813,3.1935,3.1382,3.0987,3.0768,3.0087,2.9688,2.9651,2.9496,2.9406,2.9406,2.9406,2.9406,2.9406,2.9406,2.9406,2.9406,2.9406,2.9294,2.9064,2.8515,2.8153,2.7825,2.6666,2.6178,2.6076,2.5448,2.5202,2.4996,2.3279,2.2655,2.2655,2.2655,2.2655,2.2655,2.2655,2.2655,2.2632,2.2452,2.1955,2.1375,2.1016,2.0535,2.0011,1.9398,1.938,1.9382,1.8993,1.8896,1.8896,1.8896,1.8896,1.8993,1.9345,1.9417,1.951,1.98,1.9836,1.9836,1.9836,1.9298,1.8802,1.8503,1.8464,1.8421,1.8299,1.8401,1.8421,1.8313,1.8401,1.8464,1.8464,1.8464,1.8421,1.8313,1.8294,1.8235,1.8106,1.8106,1.788,1.7457,1.8382,1.8977,1.9266,2.0334,2.1223,3.4795,3.4434,3.4055,3.3974,3.4005,3.4053,3.4071,3.4467,3.5031,3.5774,3.5934,3.6163,3.6958,3.7118,3.7136,3.7154,3.7135,3.7135,3.7135,3.7135,3.7116,3.7116,3.7116,3.6886,3.634,3.5244,3.4006,3.2657,3.2544,3.2199,3.1408,3.0804,3.0412,3.0284,2.9695,2.9406,2.9406,2.9406,2.9406,2.9406,2.9406,2.9406,2.9406,2.9406,2.9,2.8323,2.8307,2.7796,2.691,2.6406,2.6109,2.5957,2.5408,2.5202,2.5202,2.5128,2.5089,2.5089,2.5089,2.5089,2.5089,2.5089,2.5089,2.4976,2.4331,2.3603,2.2788,2.1624,2.1141,2.0827,2.0289,2.0552,2.0926,2.091,2.091,2.091,2.091,2.091,2.0926,2.0926,2.0926,2.0943,2.0959,2.0959,2.0959,2.0959,2.0926,2.0553,1.9491,1.9352,1.9202,1.8815,1.9126,1.9202,1.8796,1.9144,1.9352,1.9352,1.9352,1.9199,1.8777,1.8773,1.856,1.8125,1.8106,1.8086,1.8072,1.8632,1.9237,1.9915,2.0968,2.1836,3.5168,3.4985,3.4781,3.4585,3.4916,3.5435,3.5975,3.6392,3.6864,3.7467,3.7584,3.7511,3.7251,3.7451,3.756,3.7248,3.7209,3.7209,3.7209,3.7209,3.7209,3.7209,3.7209,3.7133,3.696,3.6239,3.5623,3.5154,3.4663,3.4279,3.4011,3.288,3.2033,3.164,3.0949,3.071,3.1002,3.1002,3.1159,3.1447,3.114,3.1002,3.0982,3.071,3.0309,2.9796,2.9306,2.8799,2.8227,2.758,2.7302,2.7236,2.706,2.6996,2.6996,2.6996,2.6996,2.6818,2.5623,2.5202,2.5202,2.5202,2.5202,2.5067,2.4344,2.3654,2.2907,2.2021,2.1399,2.0951,2.078,2.0862,2.0991,2.0991,2.0991,2.0991,2.0991,2.1164,2.1425,2.168,2.1905,2.2139,2.2417,2.2289,2.2124,2.2124,2.1472,2.0878,2.052,2.0455,2.042,2.0269,2.0387,2.042,2.0269,2.0387,2.0455,2.0455,2.0455,2.0404,2.0269,2.0252,2.02,2.003,2.0012,2.0012,2.0028,2.065,2.1323,2.2034,2.2863,2.3606,3.5499,3.5449,3.5479,3.5566,3.6058,3.6758,3.7595,3.8063,3.8408,3.8767,3.8823,3.8662,3.8145,3.8308,3.8404,3.8116,3.7972,3.7889,3.7889,3.7789,3.7738,3.7738,3.7738,3.7649,3.747,3.7154,3.6865,3.6704,3.6249,3.585,3.557,3.4383,3.3432,3.2833,3.2054,3.1787,3.2057,3.2039,3.2196,3.2501,3.2179,3.2039,3.2039,3.1787,3.1216,3.0418,2.9964,2.932,2.8573,2.811,2.7897,2.7897,2.7897,2.7897,2.7897,2.7897,2.7897,2.7733,2.6572,2.6164,2.6164,2.6164,2.6164,2.6013,2.5246,2.453,2.3797,2.3034,2.2317,2.178,2.178,2.178,2.178,2.178,2.178,2.178,2.178,2.1964,2.2184,2.2447,2.2664,2.2907,2.3165,2.3021,2.2885,2.2885,2.2259,2.1736,2.1622,2.152,2.14,2.1228,2.1354,2.14,2.1228,2.1369,2.1462,2.1462,2.1462,2.1385,2.1213,2.1213,2.115,2.0991,2.0991,2.1055,2.118,2.1617,2.2328,2.3314,2.4046,2.4783,3.5739,3.5795,3.6054,3.6815,3.7369,3.7957,3.8837,3.9366,3.9649,3.963,3.9626,3.9622,3.9603,3.9592,3.9599,3.9599,3.9327,3.9139,3.9139,3.8913,3.8735,3.8719,3.8719,3.8528,3.7995,3.7945,3.7772,3.736,3.7267,3.6892,3.6148,3.5332,3.4552,3.3773,3.2977,3.2553,3.2534,3.255,3.2567,3.2567,3.255,3.2534,3.2534,3.2517,3.1684,3.0244,3.0244,2.9387,2.7992,2.7992,2.7992,2.7992,2.7992,2.7992,2.7992,2.7992,2.7992,2.7992,2.7978,2.7936,2.7897,2.7897,2.7897,2.7756,2.6953,2.6136,2.5335,2.4537,2.3766,2.32,2.32,2.32,2.32,2.32,2.32,2.32,2.32,2.3212,2.3242,2.3242,2.3236,2.3253,2.3224,2.3236,2.3253,2.3224,2.3242,2.3105,2.2772,2.2487,2.2192,2.1731,2.2073,2.2161,2.1716,2.2087,2.2349,2.2349,2.2349,2.2147,2.1702,2.1687,2.149,2.1118,2.1102,2.1273,2.1586,2.1586,2.2299,2.372,2.4555,2.535,3.5705,3.5689,3.5894,3.6774,3.7546,3.8314,3.9237,3.9946,4.0383,4.0236,4.0076,3.9925,3.9773,3.9681,3.9599,3.9599,3.9541,3.9462,3.9462,3.9408,3.9275,3.9027,3.8999,3.8938,3.8816,3.8609,3.8624,3.8965,3.82,3.763,3.7432,3.6712,3.5752,3.457,3.3773,3.3266,3.3014,3.3332,3.3462,3.3462,3.3166,3.3014,3.3014,3.2665,3.1898,3.0866,3.0866,3.0247,2.9243,2.9243,2.9243,2.9243,2.9243,2.9243,2.9243,2.9243,2.9243,2.9223,2.9067,2.8529,2.7897,2.7897,2.7897,2.7756,2.7008,2.6193,2.5348,2.46,2.382,2.32,2.32,2.32,2.32,2.32,2.32,2.32,2.32,2.3392,2.3577,2.3577,2.3774,2.3876,2.3628,2.3785,2.3865,2.3599,2.3577,2.3448,2.3117,2.3014,2.291,2.2805,2.2898,2.2928,2.2805,2.2898,2.2982,2.2982,2.2982,2.2928,2.2805,2.2788,2.2737,2.2643,2.2643,2.2681,2.277,2.277,2.3541,2.5021,2.5243,2.609,3.5657,3.5921,3.6443,3.7389,3.8222,3.906,4.0003,4.0497,4.0718,4.0602,4.0487,4.0364,4.0215,4.0138,4.0186,4.0509,4.0435,4.0474,4.0865,4.0779,4.0626,4.0434,4.0108,3.9902,3.9902,3.9408,3.9242,3.9576,3.8878,3.8487,3.863,3.7921,3.6988,3.5857,3.4947,3.416,3.3465,3.3694,3.3868,3.3974,3.3742,3.3723,3.3849,3.3583,3.2972,3.2091,0.0,3.1071,3.0251,2.9856,2.9705,2.9705,2.9705,2.9705,2.9705,2.9705,2.9705,2.9687,2.957,2.9148,2.8651,2.8446,2.8391,2.8247,2.748,2.6904,2.6279,2.5156,2.4507,2.4075,2.3739,2.3649,2.3649,2.3649,2.3649,2.3649,2.3649,2.3852,2.407,2.4165,2.4266,2.4293,2.4192,2.4266,2.4293,2.4192,2.4192,2.41,2.392,2.3494,2.32,2.32,2.32,2.32,2.32,2.32,2.32,2.32,2.32,2.32,2.32,2.32,2.32,2.32,2.32,2.3259,2.3414,2.3414,2.4206,2.5711,2.5907,2.668,3.5715,3.6352,3.7237,3.83,3.9088,3.9863,4.0819,4.092,4.0824,4.0854,4.0816,4.0792,4.0756,4.0804,4.1074,4.1724,4.1653,4.181,4.2565,4.2414,4.2226,4.216,4.1555,4.1082,4.0957,4.0249,3.9758,3.9712,3.9414,3.9339,3.9587,3.8931,3.8112,3.7139,3.5983,3.4927,3.3934,3.3915,3.4037,3.4277,3.4277,3.4412,3.4694,3.4694,3.4233,3.3422,3.2581,0.0,3.1035,3.0139,2.979,2.979,2.979,2.979,2.979,2.979,2.979,2.979,2.9756,2.9748,2.9678,2.923,2.9082,2.8964,2.8257,2.798,2.7603,2.6194,2.5732,2.5493,2.4792,2.4607,2.4607,2.4607,2.4524,2.445,2.445,2.4483,2.4583,2.4768,2.4654,2.461,2.4768,2.4654,2.4591,2.4775,2.4804,2.4804,2.4804,2.3959,2.3379,2.3406,2.339,2.3379,2.3406,2.339,2.3379,2.3406,2.3362,2.334,2.3356,2.3356,2.3356,2.3356,2.3401,2.3563,2.3852,2.3852,2.4631,2.617,2.6518,2.7205,3.6337,3.67,3.7317,3.8979,3.9548,3.9947,4.0937,4.1055,4.0994,4.1104,4.0957,4.0839,4.0936,4.1397,4.1828,4.1932,4.2433,4.2834,4.2996,4.2961,4.2823,4.255,4.2385,4.2023,4.1308,4.0885,4.058,4.0358,4.0082,3.9829,3.9611,3.9467,3.8686,3.7157,3.5633,3.4733,3.4548,3.4548,3.4569,3.4603,3.4603,3.4643,3.4694,3.4694,3.4358,3.3674,3.2828,0.0,3.1513,3.0644,3.028,3.028,3.028,3.028,3.028,3.028,3.028,3.026,3.0025,2.9954,2.9916,2.9651,2.9579,2.9542,2.941,2.8902,2.8327,2.8035,2.7478,2.6941,2.6809,2.6753,2.6753,2.6753,2.621,2.5686,2.5686,2.5201,2.476,2.4797,2.4775,2.476,2.4797,2.4775,2.476,2.4797,2.4804,2.4804,2.4804,2.4489,2.4345,2.4492,2.4369,2.4345,2.4519,2.4361,2.4353,2.45,2.4201,2.4106,2.4275,2.4265,2.4265,2.4265,2.4437,2.4551,2.4609,2.4609,2.5426,2.6984,2.7064,2.792,3.6596,3.7404,3.8362,3.9267,3.989,4.0421,4.0978,4.1094,4.1126,4.1191,4.1102,4.1154,4.1583,4.1938,4.2401,4.3187,4.3601,4.3971,4.4352,4.4393,4.4339,4.4182,4.3761,4.332,4.2889,4.1963,4.1313,4.1184,4.0641,4.025,4.0072,3.9681,3.8804,3.7404,3.616,3.5258,3.4713,3.4694,3.4764,3.4917,3.4917,3.4981,3.5113,3.5113,3.4961,3.4641,3.3753,0.0,3.2256,3.1423,3.0808,3.0404,3.0404,3.0404,3.0404,3.0404,3.0404,3.0373,3.0254,3.0209,3.0189,3.0107,2.9896,2.9705,2.9705,2.943,2.9051,2.8615,2.8226,2.7837,2.741,2.7297,2.7297,2.7297,2.6987,2.67,2.6814,2.6531,2.6299,2.6384,2.6333,2.6299,2.6403,2.5945,2.5621,2.571,2.5354,2.5068,2.5068,2.4884,2.4766,2.4804,2.4716,2.4693,2.479,2.4716,2.47,2.4797,2.4615,2.4561,2.4647,2.4654,2.4654,2.4654,2.4753,2.4804,2.4804,2.5219,2.6042,2.7204,2.7665,2.8533,3.6923,3.814,3.9385,3.9615,4.0233,4.0843,4.0964,4.108,4.1171,4.1191,4.1191,4.1425,4.2189,4.2467,4.3011,4.4345,4.4694,4.5002,4.556,4.5643,4.5627,4.5594,4.4998,4.4509,4.4316,4.2951,4.2,4.1808,4.0989,4.0496,4.0496,3.9746,3.8792,3.7728,3.6831,3.5897,3.4879,3.4879,3.4972,3.519,3.519,3.5297,3.55,3.55,3.55,3.5442,3.4584,0.0,0.0,3.2119,3.1322,3.0687,3.0507,3.0425,3.0417,3.0449,3.0422,3.039,3.0439,3.0419,3.0422,3.043,3.0171,2.9848,2.9848,2.9848,2.9723,2.9083,2.892,2.8768,2.8138,2.7967,2.791,2.772,2.7682,2.768,2.7682,2.7669,2.77,2.7874,2.7767,2.7707,2.7874,2.7206,2.6705,2.6855,2.6288,2.5788,2.5596,2.5431,2.5239,2.4929,2.4862,2.4855,2.4896,2.4862,2.4855,2.4896,2.4847,2.4818,2.4842,2.4842,2.4842,2.4842,2.4895,2.4991,2.5187,2.5813,2.6641,2.7627,2.8305,2.9075,3.768,3.8621,3.9569,4.0388,4.0689,4.0843,4.0964,4.1019,4.1052,4.1171,4.1191,4.1445,4.2246,4.2992,4.376,4.4629,4.5324,4.576,4.5783,4.5776,4.5733,4.562,4.5537,4.5171,4.4374,4.3508,4.2643,4.1865,4.0989,4.0496,4.0496,3.9746,3.8885,3.7985,3.7113,3.6279,3.5432,3.5432,3.5439,3.5453,3.5453,3.5486,3.55,3.55,3.55,3.5442,3.4584,3.4148,0.0,3.2424,3.1739,3.1593,3.0877,3.0529,3.0494,3.0551,3.0503,3.0425,3.0541,3.0545,3.0503,3.0554,3.0476,3.0343,3.0343,3.0343,3.0323,3.0247,3.0227,3.0208,3.0137,3.0118,2.9926,2.9125,2.8933,2.8747,2.8028,2.7874,2.7879,2.789,2.7885,2.7879,2.789,2.7827,2.7764,2.7775,2.7717,2.7371,2.6582,2.6456,2.6153,2.5349,2.5082,2.5059,2.5243,2.5082,2.5059,2.5243,2.4981,2.4855,2.498,2.4986,2.4986,2.4986,2.5152,2.5638,2.643,2.6507,2.7371,2.8933,2.901,2.9504,3.8681,3.942,4.0151,4.0491,4.069,4.0809,4.0867,4.0998,4.1148,4.1191,4.1582,4.2187,4.3027,4.3865,4.4694,4.5469,4.5833,4.5978,4.5881,4.5861,4.583,4.5733,4.573,4.5542,4.5122,4.3929,4.2606,4.1234,4.0816,4.0623,4.0623,4.0229,3.94,3.8046,3.7661,3.6827,3.5519,3.55,3.55,3.55,3.55,3.55,3.5507,3.5534,3.5556,3.5543,3.5233,3.4826,0.0,3.3122,3.2326,3.1785,3.0924,3.0584,3.0558,3.0591,3.0581,3.0521,3.0581,3.0584,3.0561,3.0594,3.0558,3.0528,3.0528,3.0528,3.0528,3.0528,3.0528,3.0528,3.0528,3.0528,3.0431,3.009,2.9994,2.9916,2.9586,2.9532,2.9532,2.9532,2.9532,2.9508,2.9477,2.9018,2.8666,2.8637,2.8203,2.7775,2.7428,2.7371,2.7255,2.6909,2.5838,2.5214,2.5284,2.5224,2.5214,2.5284,2.5165,2.5113,2.5168,2.5173,2.5423,2.5946,2.6032,2.6505,2.7371,2.7871,2.8453,2.9107,2.964,3.0077,3.9304,3.99,4.0496,4.0496,4.0629,4.0775,4.0793,4.0986,4.1228,4.1504,4.2012,4.2754,4.3887,4.459,4.5253,4.6037,4.615,4.6115,4.5981,4.5967,4.5927,4.583,4.5832,4.579,4.5699,4.4228,4.2665,4.1216,4.0881,4.0726,4.0726,4.0648,3.9812,3.8144,3.8092,3.7281,3.5575,3.5556,3.5556,3.5556,3.5556,3.5556,3.5562,3.5606,3.563,3.5635,3.5675,3.5376,0.0,3.396,3.3092,3.2238,3.14,3.0888,3.0641,3.0676,3.0641,3.0611,3.0672,3.0652,3.0641,3.0678,3.0683,3.0683,3.0683,3.0658,3.0603,3.0603,3.0603,3.0603,3.0603,3.0603,3.0603,3.0603,3.0603,3.0603,3.0603,3.0603,3.0603,3.0603,3.0603,3.0584,3.0541,3.0025,2.9598,2.9554,2.9057,2.8613,2.8361,2.8342,2.825,2.798,2.6863,2.6114,2.6068,2.6077,2.6078,2.6101,2.6106,2.6106,2.6106,2.6106,2.6376,2.6967,2.6986,2.739,2.8261,2.8819,2.9223,2.9511,3.0128,3.0433,3.9304,3.99,4.0496,4.0496,4.0596,4.0718,4.0773,4.0892,4.1264,4.2206,4.2383,4.293,4.4668,4.498,4.5273,4.6152,4.6308,4.6247,4.6117,4.6108,4.6045,4.5912,4.5899,4.5899,4.5899,4.4377,4.3039,4.2148,4.1288,0.0,4.0797,4.0797,4.0035,3.8342,3.8311,3.7454,3.5703,3.5703,3.5703,3.5703,3.5703,3.5703,3.5703,3.5703,3.5703,3.5703,3.5703,3.5707,0.0,3.4883,3.4064,3.3207,3.2478,3.1577,3.0718,3.0857,3.0778,3.0625,3.0833,3.0814,3.072,3.0858,3.0898,3.0898,3.0898,3.0755,3.0603,3.0603,3.0603,3.0603,3.0603,3.0603,3.0603,3.0603,3.0603,3.0603,3.0603,3.0603,3.0603,3.0603,3.0603,3.0603,3.0603,3.0583,3.0583,3.0583,3.0583,3.0272,2.948,2.9383,2.9057,2.8192,2.8075,2.8029,2.7878,2.7876,2.7899,2.7966,2.797,2.797,2.797,2.797,2.7935,2.7895,2.7895,2.828,2.9088,2.9107,2.9544,3.039,3.0458,3.0498,4.0131,4.0304,4.0527,4.0616,4.0704,4.0796,4.0911,4.1479,4.2048,4.2344,4.3359,4.4355,4.4902,4.5488,4.5976,4.6269,4.6308,4.6289,4.6247,4.6245,4.6198,4.6047,4.5963,4.5694,4.5192,4.4161,4.3189,4.2295,4.1437,4.0947,4.0947,4.0947,4.0126,3.8353,3.8291,3.7454,3.5726,3.5707,3.5707,3.5707,3.5707,3.5707,3.5707,3.5799,3.5838,3.5841,3.5895,0.0,0.0,3.5013,3.4508,3.4176,3.3339,3.2499,3.1736,3.1777,3.1365,3.0811,3.0878,3.0878,3.0838,3.0898,3.0898,3.0898,3.0898,3.0857,3.0809,3.0809,3.0809,3.0809,3.0809,3.0809,3.0809,3.0809,3.0809,3.0809,3.0809,3.0809,3.0809,3.0809,3.0809,3.0783,3.0679,3.0673,3.0639,3.0611,3.0603,3.0508,3.0255,3.0217,3.0103,2.9833,2.9814,2.9329,2.8139,2.8039,2.8049,2.8076,2.8079,2.8079,2.8079,2.8079,2.8336,2.8918,2.8937,2.9322,3.0133,3.0133,3.0269,3.0537,3.0551,3.0565,4.0604,4.0604,4.0629,4.0721,4.1053,4.1395,4.1476,4.2217,4.2988,4.3301,4.4238,4.5098,4.543,4.5937,4.6308,4.6308,4.6308,4.6308,4.6308,4.6308,4.6268,4.6196,4.611,4.5867,4.541,4.4318,4.34,4.2876,4.1742,4.1078,4.1078,4.1078,4.0268,3.8463,3.8419,3.7581,3.5828,3.5808,3.5808,3.5808,3.5808,3.5808,3.5828,3.5895,3.5944,3.5945,3.5975,0.0,0.0,3.541,3.5,3.4648,3.4101,3.3379,3.2617,3.2305,3.1855,3.1348,3.1016,3.0898,3.0898,3.0898,3.0898,3.0898,3.0898,3.0898,3.0898,3.0898,3.0898,3.0898,3.0898,3.0898,3.0898,3.0898,3.0898,3.0898,3.0898,3.0898,3.0898,3.0898,3.0898,3.0878,3.0793,3.0771,3.0765,3.0721,3.0716,3.0716,3.0716,3.0716,3.0716,3.0716,3.0716,3.029,2.9245,2.9091,2.9056,2.908,2.908,2.908,2.908,2.908,2.9321,2.983,2.985,3.01,3.0603,3.0603,3.062,3.0645,3.0617,3.06,0.0,4.0809,4.0821,4.0887,4.1616,4.2327,4.2387,4.3117,0.0,4.4824,4.5058,4.5332,4.6152,4.6308,4.6308,4.6308,4.6308,4.6308,4.6308,4.6308,4.6308,4.6308,4.6308,4.6289,4.6211,4.4687,4.3672,4.3613,4.2109,4.1191,4.1191,4.1191,4.0391,3.8652,3.8594,3.7754,3.6016,3.5996,3.5996,3.5996,3.5996,3.5996,3.5996,3.5996,3.5996,0.0,0.0,0.0,0.0,3.5996,3.5527,3.4785,3.4785,3.4258,3.3398,3.2656,3.2344,3.2168,3.1367,3.1035,3.0976,3.0918,3.0898,3.0898,3.0898,3.0898,3.0898,3.0898,3.0898,3.0898,3.0898,3.0898,3.0898,3.0898,3.0898,3.0898,3.0898,3.0898,3.0898,3.0898,3.0898,3.0898,3.0898,3.0898,3.0898,3.0898,3.0898,3.0898,3.0898,3.0898,3.0898,3.0898,3.0898,3.0898,3.0898,3.0723,3.0648,3.0716,3.0718,3.0718,3.0718,3.0718,3.068,3.0623,3.062,3.062,3.062,3.062,3.0652,3.0717,3.065,3.0655,4.0929,0.0,4.0976,4.1763,4.2139,4.249,0.0,4.4062,4.4746,4.4961,4.5527,4.6055,4.6269,4.6308,4.6308,4.6308,4.6308,4.6308,4.6308,4.6308,4.6308,4.6308,4.6308,4.6035,4.5371,4.4336,4.3418,4.2754,4.1777,4.1191,4.1191,4.1191,4.0391,3.8652,3.8594,3.7754,3.6016,3.5996,3.5996,3.5996,3.5996,3.5996,3.5996,3.5996,3.5996,3.5996,0.0,0.0,3.5996,3.5996,3.5879,3.5684,3.5684,3.5156,3.4375,3.418,3.3691,3.3086,3.2871,3.2402,3.1777,3.1113,3.0898,3.0898,3.0898,3.0898,3.0898,3.0898,3.0898,3.0898,3.0898,3.0898,3.0898,3.0898,3.0898,3.0898,3.0898,3.0898,3.0898,3.0898,3.0898,3.0898,3.0898,3.0898,3.0898,3.0898,3.0898,3.0898,3.0898,3.0898,3.0898,3.0898,3.0898,3.0898,3.0898,3.0857,3.0835,3.0858,3.0858,3.0858,3.0858,3.0858,3.0857,3.0833,3.0833,3.0833,3.0833,3.0833,3.0836,3.0858,3.0835,3.0836,4.0957,4.1083,4.1191,4.2113,4.2645,4.3176,4.4082,4.4961,4.5605,4.5605,4.5976,4.6308,4.6308,4.6308,4.6308,4.6308,4.6308,4.6308,4.6308,4.6308,4.6308,4.6308,4.6308,4.5957,4.5078,4.4219,4.334,4.2461,4.1641,4.1191,4.1191,4.1191,4.0391,3.8652,3.8594,3.7754,3.6016,3.5996,3.5996,3.5996,3.5996,3.5996,3.5996,3.5996,3.5996,3.5996,0.0,0.0,3.5996,3.5996,3.5996,3.5996,3.5996,3.5703,3.5254,3.4844,3.4394,3.3945,3.3535,3.3105,3.2676,3.2163,3.2003,3.2003,3.2003,3.2003,3.1849,3.1113,3.0898,3.0898,3.0898,3.0898,3.0898,3.0898,3.0898,3.0898,3.0898,3.0898,3.0898,3.0898,3.0898,3.0898,3.0898,3.0898,3.0898,3.0898,3.0898,3.0898,3.0898,3.0898,3.0898,3.0898,3.0898,3.0898,3.0898,3.0898,3.0898,3.0898,3.0898,3.0898,3.0898,3.0898,3.0898,3.0898,3.0898,3.0898,3.0898,3.0898,3.0898,3.0898,3.0898,3.0898,4.0937,4.1191,4.1426,4.2363,4.3144,4.3965,4.4961,4.5762,4.6308,4.6308,4.6308,4.6308,4.6308,4.6308,4.6308,4.6308,4.6308,4.6308,4.6308,4.6308,4.6308,4.6308,4.6308,4.5918,4.4902,4.4121,4.3281,4.2285,4.1582,4.1191,4.1191,4.1191,4.0391,3.8652,3.8594,3.7754,3.6016,3.5996,3.5996,3.5996,3.5996,3.5996,3.5996,3.5996,3.5996,3.5996,0.0,0.0,3.5996,3.5996,3.5996,3.5996,3.5996,3.5996,3.5918,3.5176,3.4902,3.4766,3.3886,3.3573,3.3552,3.3345,3.329,3.329,3.329,3.329,3.3007,3.1655,3.1269,3.1289,3.1289,3.1289,3.1289,3.1289,3.1289,3.1289,3.1289,3.1289,3.1289,3.1289,3.1289,3.123,3.1113,3.1094,3.1055,3.0918,3.0898,3.0898,3.0898,3.0898,3.0898,3.0898,3.0898,3.0898,3.0898,3.0898,3.0898,3.0898,3.0898,3.0898,3.0898,3.0898,3.0898,3.0898,3.0898,3.0898,3.0898,3.0898,3.0898,3.0898,3.0898,3.0976,4.0762,4.1191,4.1562,4.3125,4.3594,4.4121,4.5723,4.6191,4.6308,4.6308,4.6308,4.6308,4.6308,4.6308,4.6308,4.6308,4.6308,4.6308,4.6308,4.6308,4.6308,4.6308,4.6308,4.5664,4.4062,4.3789,4.3066,4.1504,4.1269,4.1191,4.1191,4.1191,4.0391,3.8652,3.8594,3.7754,3.6016,3.5996,3.5996,3.5996,3.5996,3.5996,3.5996,3.5996,3.5996,3.5996,0.0,3.5996,3.5996,3.5996,3.5996,3.5996,3.5996,3.5996,3.5976,3.5859,3.5801,3.5664,3.4731,3.4426,3.4282,3.3479,3.3216,3.3216,3.3216,3.3216,3.3176,3.2986,3.2962,3.3027,3.3027,3.3027,3.3027,3.3027,3.3027,3.3027,3.3027,3.3027,3.3027,3.3027,3.3027,3.2793,3.2129,3.1992,3.1758,3.1016,3.0898,3.0898,3.0898,3.0898,3.0898,3.0898,3.0898,3.0898,3.0898,3.0898,3.0898,3.0898,3.0898,3.0898,3.0898,3.0898,3.0898,3.0898,3.0898,3.0898,3.0898,3.0898,3.0898,3.0898,3.0898,3.1309,4.0723,4.1191,4.1601,4.3281,4.3691,4.416,4.5898,4.6308,4.6308,4.6308,4.6308,4.6308,4.6308,4.6308,4.6308,4.6308,4.6308,4.6308,4.6308,4.6308,4.6308,4.6308,4.5879,4.5098,4.3828,4.3262,4.25,4.1289,4.1191,4.1191,4.1191,4.0742,3.9902,3.8633,3.8144,3.7285,3.6016,3.5996,3.5996,3.5996,3.5996,3.5996,3.5996,3.5996,3.5996,3.5996,0.0,3.5996,3.5996,3.5996,3.5975,3.5947,3.5947,3.5897,3.5839,3.5839,3.5839,3.5777,3.5339,3.519,3.5121,3.4653,3.4499,3.4499,3.4499,3.4499,3.4505,3.458,3.3982,3.3351,3.3398,3.3398,3.3398,3.3398,3.3398,3.3398,3.3398,3.3398,3.3398,3.3398,3.3398,3.3281,3.291,3.2851,3.2715,3.2305,3.2246,3.2246,3.2246,3.2246,3.2246,3.2246,3.2246,3.2246,3.2246,3.1855,3.1406,3.0937,3.0898,3.0898,3.0898,3.0898,3.0898,3.0898,3.0898,3.0898,3.0898,3.0898,3.1133,3.1601,3.1601,3.2051,4.0781,4.1191,4.1601,4.3281,4.3691,4.416,4.5898,4.6308,4.6308,4.6308,4.6308,4.6308,4.6308,4.6308,4.6308,4.6308,4.6308,4.6308,4.6308,4.6308,4.6308,4.6308,4.5527,4.4668,4.3789,4.291,4.207,4.1269,4.1191,4.1191,4.1191,4.0371,3.9492,3.8633,3.7754,3.6875,3.6016,3.5996,3.5996,3.5996,3.5996,3.5996,3.5996,3.5996,3.5996,3.5974,3.5974,3.5953,3.593,3.593,3.5922,3.5901,3.5901,3.5847,3.5758,3.572,3.5717,3.5749,3.5686,3.5671,3.5671,3.5605,3.5577,3.5577,3.5577,3.5577,3.559,3.5659,3.4799,3.3843,3.3911,3.3937,3.3937,3.3937,3.396,3.3981,3.3958,3.3983,3.4004,3.3983,3.4003,3.3945,3.373,3.3691,3.3633,3.3437,3.3398,3.3398,3.3398,3.3398,3.3398,3.3398,3.3398,3.3398,3.3398,3.2832,3.2207,3.1523,3.1113,3.0898,3.0898,3.0898,3.0996,3.1191,3.1191,3.1309,3.1484,3.1484,3.1836,3.248,3.248,3.293,4.0957,4.1191,4.1601,4.3281,4.3691,4.416,4.5898,4.6308,4.6308,4.6308,4.6308,4.6308,4.6308,4.6308,4.6308,4.6308,4.6308,4.6308,4.6308,4.6308,4.6308,4.6308,4.5527,4.4668,4.3789,4.291,4.207,4.1269,4.1191,4.1191,4.1191,4.0371,3.9492,3.8633,3.7754,3.6875,3.6016,3.5996,3.5996,3.5996,3.5996,3.5996,3.5996,3.5996,3.5972,3.5907,3.5907,3.5843,3.5723,3.5723,3.578,3.5901,3.5901,3.5923,3.5954,3.578,3.5772,3.5862,3.5666,3.5606,3.56,3.5541,3.5501,3.5501,3.5501,3.5501,3.5522,3.5585,3.5514,3.5451,3.5525,3.5528,3.5528,3.5528,3.5636,3.5699,3.5563,3.5677,3.5799,3.5738,3.5775,3.5566,3.4746,3.4609,3.4336,3.3516,3.3398,3.3398,3.3398,3.3398,3.3398,3.3398,3.3398,3.3398,3.3398,3.3359,3.3281,3.3223,3.1758,3.0898,3.0898,3.0898,3.1289,3.209,3.2109,3.2461,3.3223,3.3223,3.3242,3.3301,3.3301,3.3789,4.0957,4.1191,4.1601,4.3281,4.3691,4.416,4.5898,4.6308,4.6308,4.6308,4.6308,4.6308,4.6308,4.6308,4.6308,4.6308,4.6308,4.6308,4.6308,4.6308,4.6094,4.5566,4.4726,4.3848,4.2988,4.2148,4.1523,4.1211,4.1191,4.1191,4.1191,3.9863,3.8945,3.8613,3.7226,3.6328,3.5996,3.5996,3.5996,3.5996,3.5996,3.5996,3.5996,3.5996,3.5995,3.5952,3.5952,3.5917,3.5814,3.5814,3.5777,3.5718,3.5664,3.5664,3.5672,3.5595,3.5609,3.5635,3.5564,3.554,3.5534,3.5501,3.55,3.55,3.55,3.55,3.5514,3.5522,3.554,3.5568,3.5663,3.5707,3.5707,3.5707,3.5749,3.5764,3.5713,3.5752,3.583,3.588,3.5916,3.5851,3.5566,3.5508,3.5391,3.5078,3.5019,3.5019,3.5019,3.5019,3.5019,3.5019,3.5019,3.4805,3.4258,3.4219,3.3984,3.3437,3.2812,3.2441,3.2441,3.2441,3.2617,3.2949,3.2949,3.3105,3.3398,3.3398,3.3672,3.4219,3.4219,3.4687,4.1035,4.1387,4.1914,4.334,4.3906,4.4492,4.5976,4.6308,4.6308,4.6308,4.6308,4.6308,4.6308,4.6308,4.6308,4.6308,4.6308,4.6308,4.6308,4.6055,4.5664,4.5078,4.3984,4.3066,4.2461,4.168,4.1191,4.1191,4.1191,4.1074,4.0801,3.9394,3.8457,3.8161,3.6735,3.5951,3.5905,3.5905,3.5905,3.5905,3.5905,3.5932,3.5996,3.5996,3.5995,3.5973,3.5973,3.5921,3.5838,3.5838,3.5762,3.5626,3.5588,3.5568,3.5556,3.5521,3.5515,3.5541,3.5501,3.55,3.55,3.55,3.55,3.55,3.55,3.55,3.55,3.55,3.55,3.5522,3.5616,3.5644,3.5644,3.5644,3.565,3.5667,3.5633,3.5659,3.5713,3.578,3.5824,3.5851,3.5901,3.5905,3.5905,3.5905,3.593,3.5973,3.5973,3.5995,3.5996,3.5996,3.5996,3.5762,3.5156,3.5117,3.4863,3.4258,3.4219,3.3965,3.3418,3.3398,3.3535,3.3809,3.3809,3.3945,3.4219,3.4219,3.4531,3.5117,3.5117,3.543,4.1191,4.1777,4.2598,4.3476,4.4355,4.5215,4.6094,4.6308,4.6308,4.6308,4.6308,4.6308,4.6308,4.6308,4.6308,4.6308,4.6308,4.6308,4.6289,4.5547,4.498,4.498,4.3457,4.2402,4.2383,4.168,4.1191,4.1191,4.1191,4.082,3.9941,3.9062,3.8161,3.7232,3.635,3.5838,3.5707,3.5707,3.5707,3.5707,3.5707,3.5802,3.5996,3.5996,3.5952,3.5903,3.5903,3.5834,3.5707,3.5707,3.5707,3.5707,3.5707,3.5707,3.5682,3.5558,3.554,3.559,3.5528,3.5507,3.5507,3.55,3.55,3.55,3.55,3.55,3.55,3.55,3.55,3.55,3.55,3.55,3.55,3.55,3.5558,3.5588,3.5502,3.5596,3.5675,3.5616,3.5655,3.5703,3.5707,3.5707,3.5707,3.5707,3.5807,3.5901,3.5901,3.595,3.5996,3.5996,3.5996,3.5996,3.5996,3.5996,3.5996,3.5996,3.5996,3.5215,3.3496,3.3418,3.3828,3.4707,3.4707,3.5137,3.5996,3.5996,3.5996,3.5996,3.5996,3.5996,4.1191,4.1367,4.1894,4.334,4.3887,4.4473,4.5957,4.6308,4.6308,4.6308,4.6308,4.6308,4.6308,4.6308,4.6308,4.6308,4.6308,4.6094,4.5469,4.5156,4.4551,4.332,4.2715,4.2187,4.1601,4.1243,4.1055,4.1055,4.0964,4.0569,3.9733,3.8856,3.799,3.7094,3.6212,3.5729,3.5707,3.5707,3.5707,3.5707,3.5707,3.5777,3.5939,3.5939,3.5946,3.5973,3.5973,3.5922,3.5836,3.5749,3.5707,3.5707,3.5707,3.5707,3.57,3.5655,3.565,3.5675,3.5642,3.5648,3.5635,3.5599,3.5566,3.5562,3.5502,3.55,3.55,3.55,3.55,3.55,3.55,3.55,3.55,3.55,3.5521,3.5528,3.5494,3.5528,3.5574,3.5595,3.5621,3.5638,3.5693,3.5707,3.5707,3.5707,3.5726,3.5761,3.5761,3.578,3.5828,3.5917,3.5939,3.5948,3.5996,3.595,3.5939,3.5939,3.5834,3.5612,3.5234,3.5234,3.5351,3.5605,3.5605,3.5742,3.5996,3.5996,3.5974,3.5939,3.5939,3.5887,4.1191,4.1426,4.1992,4.3359,4.3965,4.457,4.5976,4.6308,4.6308,4.6308,4.6308,4.6308,4.6308,4.6308,4.6191,4.584,4.5781,4.5488,4.4609,4.4199,4.3574,4.2495,4.2044,4.1631,4.109,4.0962,4.092,4.092,4.0545,3.9968,3.9128,3.8256,3.7366,3.6472,3.5939,3.5642,3.5611,3.5611,3.5611,3.5611,3.5611,3.5674,3.5788,3.5819,3.5832,3.5878,3.5948,3.5942,3.5901,3.5834,3.5797,3.5772,3.5772,3.5755,3.5707,3.5707,3.5707,3.5707,3.5707,3.5707,3.5696,3.565,3.5648,3.5635,3.559,3.5582,3.5582,3.5582,3.5582,3.5582,3.5582,3.5582,3.5574,3.5515,3.55,3.55,3.55,3.55,3.5515,3.5558,3.5556,3.5571,3.5616,3.5611,3.5611,3.5611,3.5633,3.5659,3.57,3.5707,3.5726,3.5807,3.5812,3.5847,3.5875,3.5832,3.5812,3.5812,3.5732,3.575,3.5875,3.5878,3.5902,3.5951,3.5903,3.5878,3.5878,3.5878,3.5864,3.5812,3.5812,3.5772,4.1191,4.1738,4.25,4.3379,4.4297,4.5234,4.6094,4.6308,4.6308,4.6308,4.6308,4.6289,4.6191,4.6172,4.5898,4.5019,4.4863,4.455,4.3671,4.287,4.2318,4.2186,4.1458,4.0925,4.0809,4.0789,4.0785,4.0785,4.0027,3.9186,3.8319,3.7452,3.6556,3.5614,3.559,3.5562,3.55,3.55,3.55,3.55,3.55,3.5528,3.5595,3.5663,3.5696,3.571,3.5834,3.5877,3.59,3.5952,3.5948,3.5877,3.5905,3.5838,3.5717,3.5726,3.5729,3.5729,3.5729,3.5729,3.5726,3.572,3.5717,3.5713,3.5696,3.57,3.5703,3.5686,3.5693,3.5703,3.5696,3.57,3.5679,3.5546,3.5515,3.5501,3.5507,3.5494,3.5501,3.55,3.5494,3.5501,3.55,3.55,3.55,3.55,3.5558,3.5616,3.5667,3.5678,3.5682,3.5693,3.5693,3.57,3.5717,3.571,3.571,3.5717,3.571,3.571,3.5717,3.571,3.5761,3.5875,3.5764,3.571,3.5717,3.5717,3.5717,3.5717,3.5717,3.5713,4.1191,4.1328,4.1641,4.248,4.3848,4.5234,4.6094,4.6308,4.6308,4.6308,4.6308,4.6094,4.541,4.5273,4.4979,4.4045,4.3904,4.3558,4.2571,4.2289,4.1909,4.1204,4.0967,4.0824,4.0801,4.0752,4.0729,4.0729,3.9888,3.8981,3.8106,3.7238,3.637,3.5541,3.5522,3.5502,3.55,3.55,3.55,0.0,3.55,3.5501,3.5528,3.559,3.5646,3.5707,3.5723,3.5732,3.5758,3.5878,3.5851,3.5764,3.5924,3.5924,3.5851,3.5924,3.5931,3.5931,3.5931,3.5931,3.5928,3.5861,3.5867,3.5829,3.567,3.5659,3.5675,3.5566,3.5626,3.5689,3.5639,3.5663,3.5696,3.5652,3.5626,3.5568,3.5515,3.5534,3.5568,3.5508,3.5534,3.5562,3.5508,3.55,3.55,3.55,3.5515,3.5534,3.5534,3.5534,3.5568,3.5621,3.5611,3.5686,3.5838,3.5761,3.5732,3.5845,3.5761,3.5755,3.5845,3.5758,3.5713,3.5732,3.5713,3.5758,3.5867,3.5867,3.5867,3.5867,3.5867,3.5802,4.1172,4.1191,4.1387,4.2207,4.3398,4.4492,4.4941,4.5058,4.5058,4.5013,4.5369,4.539,4.4505,4.4327,4.4006,4.3036,4.2886,4.2559,4.1611,4.1486,4.131,4.082,4.0752,4.0727,4.0663,4.0617,4.0448,4.0062,3.9182,3.8296,3.743,3.6577,3.5923,3.5519,3.55,3.55,3.55,3.55,3.55,3.55,3.55,3.55,3.55,3.554,3.5566,3.5601,3.5644,3.565,3.5659,3.5755,3.5764,3.5713,3.5828,3.5832,3.5807,3.5839,3.5868,3.5868,3.5868,3.5868,3.5845,3.5814,3.5805,3.5772,3.5679,3.5663,3.5686,3.5621,3.5661,3.5693,3.5659,3.5667,3.5693,3.5663,3.5646,3.5644,3.5596,3.5616,3.5644,3.5596,3.5616,3.5644,3.5591,3.56,3.56,3.56,3.56,3.56,3.56,3.56,3.5606,3.5638,3.5642,3.569,3.5797,3.5729,3.5723,3.5802,3.5749,3.5726,3.5802,3.5749,3.5723,3.5799,3.5726,3.5726,3.5805,3.5805,3.5805,3.5805,3.5805,3.5766,4.1151,4.1191,4.1387,4.2207,4.2949,4.3516,4.3672,4.3691,4.3629,4.3427,4.4109,4.4467,4.3513,4.3346,4.3014,4.2023,4.187,4.1609,4.0844,4.0742,4.0718,4.0674,4.0681,4.0623,4.0512,4.0362,4.0015,3.9361,3.8354,3.7469,3.6731,3.5942,3.55,3.55,3.55,3.55,3.55,3.55,3.55,3.55,3.55,3.55,3.55,3.55,3.55,3.5507,3.5556,3.5574,3.5585,3.5655,3.569,3.5675,3.5693,3.5696,3.5682,3.57,3.5707,3.5707,3.5707,3.5707,3.5707,3.5707,3.5707,3.5703,3.5686,3.5693,3.57,3.5663,3.5678,3.57,3.5686,3.5693,3.5725,3.5824,3.5877,3.5872,3.5698,3.5693,3.5713,3.5663,3.5667,3.5725,3.5898,3.5921,3.5979,3.6138,3.6158,3.6158,3.6158,3.6158,3.6158,3.6158,3.6158,3.6142,3.6177,3.6177,3.6183,3.6198,3.6061,3.5983,3.5983,3.5825,3.5792,3.5913,3.5772,3.5713,3.5726,3.5726,3.5735,3.5747,3.5747,3.5747,4.1151,4.1191,4.1387,4.2207,4.248,4.2773,4.3535,4.3664,4.3408,4.2639,4.3172,4.3472,4.248,4.2307,4.198,4.105,4.0887,4.0802,4.0574,4.0533,4.0545,4.0534,4.0534,4.0527,4.0496,3.9881,3.9419,3.9304,3.7796,3.6827,3.6712,3.5942,3.55,3.55,3.55,3.55,3.55,3.55,3.55,3.55,3.55,3.55,3.55,3.55,3.55,3.55,3.5508,3.5515,3.5515,3.5599,3.5582,3.5547,3.5655,3.5652,3.5611,3.5675,3.5707,3.5707,3.5707,3.5707,3.5707,3.5707,3.5707,3.5689,3.563,3.5655,3.569,3.5556,3.5611,3.5686,3.5626,3.5659,3.5895,3.6631,3.6814,3.6584,3.5712,3.5706,3.5803,3.5575,3.5571,3.5867,3.6692,3.6823,3.7079,3.7842,3.7958,3.7958,3.7958,3.7958,3.7958,3.7958,3.7958,3.7987,3.802,3.8044,3.8099,3.822,3.7498,3.7088,3.7088,3.6365,3.5975,3.5995,3.5797,3.5761,3.5873,3.5873,3.5893,3.5954,3.5954,3.5954,4.1149,4.1191,4.1289,4.1641,4.1738,4.1816,4.212,4.2163,4.1993,4.1509,4.1699,4.1842,4.1398,4.1325,4.1161,4.0668,4.0602,4.0574,4.0504,4.0496,4.0496,4.0496,4.0496,4.0496,4.0496,3.9765,3.9111,3.8604,3.7411,3.65,3.6058,3.5692,3.55,3.55,3.55,3.55,3.55,3.55,3.55,3.55,3.55,3.55,3.55,3.55,3.55,3.55,3.55,3.55,3.5507,3.5528,3.5534,3.5514,3.5548,3.556,3.5546,3.5577,3.5585,3.5585,3.5585,3.5585,3.5585,3.5585,3.5585,3.5568,3.5538,3.5568,3.5577,3.5528,3.5861,3.6245,3.6214,3.6592,3.7088,3.7469,3.7588,3.7477,3.7005,3.709,3.7229,3.7144,3.7215,3.7412,3.7824,3.7905,3.8022,3.8413,3.8473,3.8473,3.8473,3.8473,3.8473,3.8473,3.8473,3.8478,3.8508,3.8509,3.8532,3.8594,3.8242,3.8027,3.8027,3.7656,3.7461,3.7461,3.6414,3.59,3.597,3.597,3.5973,3.5996,3.5996,3.5996,4.1148,4.1191,4.1191,4.1191,4.1171,4.1127,4.1023,4.0952,4.0889,4.0724,4.0667,4.0655,4.0655,4.0655,4.0616,4.0519,4.0496,4.0496,4.0496,4.0496,4.0496,4.0496,4.0496,4.0419,4.0208,3.9457,3.8604,3.7738,3.6885,3.6135,3.5538,3.55,3.55,3.55,3.55,3.55,3.55,3.55,3.55,3.55,3.55,3.55,3.55,3.55,3.55,3.55,3.55,3.55,3.55,3.55,3.55,3.55,3.55,3.55,3.55,3.55,3.55,3.55,3.55,3.55,3.55,3.55,3.55,3.55,3.55,3.5635,3.5808,3.5808,3.6404,3.7019,3.7019,3.7507,3.8065,3.8277,3.8382,3.8343,3.8125,3.8156,3.8251,3.8352,3.8438,3.8555,3.8816,3.8861,3.8942,3.9177,3.9238,3.9258,3.9258,3.9258,3.9258,3.9258,3.9258,3.9258,3.9258,3.9258,3.9258,3.9258,3.9043,3.8926,3.8926,3.8711,3.8594,3.8594,3.7324,3.6543,3.6328,3.6328,3.6211,3.5996,3.5996,3.5996,4.1151,4.1191,4.1191,4.1191,4.1104,4.1019,4.0996,4.084,4.0715,4.0703,4.0596,4.0512,4.0512,4.0512,4.0504,4.0496,4.0496,4.0496,4.0496,4.0496,4.0496,4.0496,4.0496,4.0208,3.9438,3.8584,3.7719,3.6827,3.6019,3.5538,3.55,3.55,3.55,3.55,3.55,3.55,3.55,3.55,3.55,3.55,3.55,3.55,3.55,3.55,3.55,3.55,3.55,3.55,3.55,3.55,3.55,3.55,3.55,3.55,3.55,3.55,3.55,3.55,3.55,3.55,3.55,3.55,3.55,3.55,3.55,3.6038,3.6635,3.6635,3.7257,3.793,3.793,3.7969,3.82,3.9034,3.9234,3.9057,3.8423,3.8139,3.8074,3.8279,3.8204,3.8423,3.9389,3.9591,3.9925,4.0746,4.099,4.1055,4.1055,4.1055,4.1055,4.1055,4.1055,4.1055,4.1055,4.1055,4.1055,4.1055,4.0293,3.9824,3.9824,3.9043,3.8594,3.8594,3.8516,3.8066,3.7226,3.7226,3.6816,3.5996,3.5996,3.5996,4.1048,4.1129,4.1191,4.1191,4.1103,4.0986,4.0883,4.0776,4.0687,4.0582,4.0523,4.0496,4.0496,4.0496,4.0496,4.0496,4.0496,4.0496,4.0496,4.0496,4.0496,4.0496,4.0496,4.0189,3.9381,3.8507,3.7642,3.6769,3.5942,3.55,3.55,3.55,3.55,3.55,3.55,3.55,3.55,3.55,3.55,3.55,3.55,3.55,3.55,3.55,3.55,3.55,3.55,3.55,3.55,3.55,3.55,3.55,3.55,3.55,3.55,3.55,3.55,3.55,3.55,3.55,3.55,3.55,3.5846,3.6269,3.6269,3.6865,3.7526,3.7526,3.8161,3.8834,3.8834,3.9227,3.9688,3.9996,4.0073,3.9988,3.976,3.9728,3.9759,3.9837,3.9835,3.998,4.0421,4.0513,4.0673,4.1067,4.1171,4.1191,4.1191,4.1191,4.1191,4.1191,4.1191,4.1191,4.1191,4.1191,4.1191,4.1191,4.0918,4.0723,4.0723,4.043,4.0273,4.0273,4.0273,3.9551,3.8125,3.8125,3.7969,3.7676,3.7676,3.7676,4.0959,4.1103,4.1191,4.1191,4.1103,4.0962,4.0824,4.0742,4.0655,4.0534,4.0496,4.0496,4.0496,4.0496,4.0496,4.0496,4.0496,4.0496,4.0496,4.0496,4.0496,4.0496,4.0496,4.0073,3.8969,3.8334,3.7526,3.6385,3.5808,0.0,3.55,3.55,3.55,3.55,3.55,3.55,3.55,3.55,3.55,3.55,3.55,3.55,3.55,3.55,3.55,3.55,3.55,3.55,3.55,3.55,3.55,3.55,3.55,3.55,3.55,3.55,3.55,3.55,3.55,3.55,3.5538,3.5827,3.625,3.675,3.7046,3.7757,3.843,3.843,3.9046,3.9708,3.9708,4.0092,4.0496,4.0496,4.0496,4.0496,4.0496,4.0574,4.0636,4.0636,4.067,4.0728,4.0828,4.0866,4.0925,4.1029,4.1098,4.1129,4.1129,4.1171,4.1191,4.1191,4.1191,4.1191,4.1191,4.1191,4.1191,4.1191,4.1191,4.1191,4.1191,4.1191,4.1191,4.1191,4.1191,4.0625,3.9473,3.918,3.8887,3.8594,3.8594,3.8594,0.0,0.0,0.0,4.1191,4.1103,4.0962,4.0824,4.0742,4.0655,4.0534,4.0496,4.0496,4.0496,4.0496,4.0496,4.0496,4.0496,4.0496,4.0496,4.0496,4.0496,4.0496,4.0496,3.9861,3.82,3.8027,3.7315,3.5654,3.5519,3.55,3.55,3.55,3.55,3.55,3.55,3.55,3.55,3.55,3.55,3.55,3.55,3.55,3.55,3.55,3.55,3.55,3.55,3.55,3.55,3.55,3.55,3.55,3.55,3.55,3.55,3.55,3.55,3.55,3.55,3.55,3.5635,3.6442,3.6712,3.6904,3.7777,3.8642,3.9342,3.9342,3.99,4.0496,4.0496,4.0496,4.0496,4.0496,4.0496,4.0496,4.0496,4.0496,4.0496,4.0496,4.0496,4.0496,4.0504,4.0616,4.0697,4.0703,4.0878,4.0994,4.0994,4.1105,4.1191,4.1191,4.1191,4.1191,4.1191,4.1191,4.1191,4.1191,4.1191,4.1191,4.1191,4.1191,4.1191,4.1191,4.1191,4.1191,4.1191,4.0351,3.9492,3.8672,3.8672,3.8672,4.0832,0.0,0.0,0.0,0.0,0.0,4.0824,4.0742,4.0655,4.0534,4.0496,4.0496,4.0496,4.0496,4.0496,4.0496,4.0496,4.0496,4.0496,4.0496,4.0496,4.0496,4.0496,4.0092,3.9034,3.8373,3.7546,0.0,3.5827,3.55,3.55,3.55,3.55,3.55,3.55,3.55,3.55,3.55,3.55,3.55,3.55,3.55,3.55,3.55,3.55,3.55,3.55,3.55,3.55,3.55,3.55,3.55,3.55,3.55,3.55,3.55,3.55,3.55,3.55,3.55,3.5635,3.6442,3.7142,3.7796,3.8681,3.9515,4.0169,4.0169,4.0323,4.0496,4.0496,4.0496,4.0496,4.0496,4.0496,4.0496,4.0496,4.0496,4.0496,4.0496,4.0496,4.0523,4.063,4.0687,4.0718,4.0776,4.0824,4.086,4.086,4.0964,4.1054,4.1054,4.1149,4.1191,4.1191,4.1191,4.1191,4.1191,4.1191,4.1191,4.1191,4.1191,4.1191,4.1191,4.1191,4.1191,4.1191,4.0957,4.0723,4.0488,4.0488,4.0488,4.0788,4.0905,4.1026,4.1171,0.0,0.0,4.0914,4.08,4.071,4.061,4.053,4.0496,4.0496,4.0496,4.0496,4.0496,4.0496,4.0496,4.0496,4.0496,4.0496,4.0496,4.0496,4.0189,3.9381,3.8834,3.8027,3.6788,3.6269,3.5846,3.5519,3.55,3.55,3.55,3.55,3.55,3.55,3.55,3.55,3.55,3.55,3.55,3.55,3.55,3.55,3.55,3.55,3.55,3.55,3.55,3.55,3.55,3.55,3.55,3.55,3.55,3.55,3.55,3.55,3.5712,3.6135,3.6962,3.7834,3.87,3.9534,4.0131,4.0496,4.0496,4.0496,4.0496,4.0496,4.0496,4.0496,4.0496,4.0496,4.0496,4.0496,4.0496,4.0496,4.0496,4.0496,4.0515,4.0603,4.0616,4.063,4.0668,4.0713,4.0767,4.0767,4.0843,4.0917,4.0917,4.099,4.1054,4.1105,4.1126,4.1149,4.1191,4.1191,4.1191,4.1191,4.1191,4.1191,4.1191,4.1191,4.1191,4.1191,4.1191,4.1191,4.1191,4.1191,4.1191,4.077,4.0874,4.1019,4.1149,4.1191,0.0,4.1026,4.0911,4.08,4.0713,4.0603,4.0519,4.0496,4.0496,4.0496,4.0496,4.0496,4.0496,4.0496,4.0496,4.0496,4.0496,4.0496,4.0227,3.9496,3.9361,3.8661,3.7123,3.6904,3.6481,3.5673,3.5635,3.5596,3.55,3.55,3.55,3.55,3.55,3.55,3.55,3.55,3.55,3.55,3.55,3.55,3.55,3.55,3.55,3.55,3.55,3.55,3.55,3.55,3.55,3.55,3.55,3.55,3.55,3.55,3.6038,3.6846,3.7719,3.8584,3.9457,4.0265,4.0496,4.0496,4.0496,4.0496,4.0496,4.0496,4.0496,4.0496,4.0496,4.0496,4.0496,4.0496,4.0496,4.0496,4.0496,4.0496,4.0496,4.0496,4.0496,4.0496,4.0496,4.0596,4.0674,4.0674,4.0742,4.0781,4.0781,4.0801,4.087,4.0992,4.1002,4.1078,4.1191,4.1191,4.1172,4.1191,4.1191,4.1172,4.1191,4.1191,4.1191,4.1191,4.1191,4.1191,4.1191,4.1191,4.1191,4.0684,4.0785,4.087,4.1017,4.1126,0.0,4.1026,4.0988,4.0902,4.0735,4.0674,4.063,4.0527,4.0496,4.0496,4.0496,4.0496,4.0496,4.0496,4.0496,4.0496,4.0496,4.0496,4.0439,4.0285,3.9688,3.9169,3.8815,3.8142,3.7373,3.65,3.6462,3.6173,3.5519,3.55,3.55,3.55,3.55,3.55,3.55,3.55,3.55,3.55,3.55,3.55,3.55,3.55,3.55,3.55,3.55,3.55,3.55,3.55,3.55,3.55,3.55,3.55,3.55,3.55,3.6038,3.6846,3.7719,3.8584,3.9457,4.0265,4.0496,4.0496,4.0496,4.0496,4.0496,4.0496,4.0496,4.0496,4.0496,4.0496,4.0496,4.0496,4.0496,4.0496,4.0496,4.0496,4.0496,4.0496,4.0496,4.0496,4.0496,4.0527,4.053,4.053,4.0649,4.0724,4.0724,4.0863,4.0964,4.0994,4.1103,4.1171,4.1191,4.1103,4.1081,4.1191,4.1102,4.1082,4.1191,4.1191,4.1191,4.1191,4.1191,4.1191,4.1191,4.1191,4.1191,4.0655,4.0715,4.0794,4.0955,4.1052,0.0,0.0,4.1051,4.0979,4.0878,4.0762,4.0674,4.061,4.0545,4.0496,4.0496,4.0496,4.0496,4.0496,4.0496,4.0496,4.0496,4.0496,4.0496,4.0496,4.015,3.9727,3.9323,3.8488,3.7815,3.7373,3.7353,3.7161,3.6757,3.6327,3.6096,3.6096,3.5692,3.55,3.55,3.55,3.55,3.55,3.55,3.55,3.55,3.55,3.55,3.55,3.55,3.55,3.55,3.55,3.55,3.55,3.55,3.55,3.5558,3.5962,3.6654,3.7488,3.8373,3.9227,3.9977,4.0381,4.0496,4.0496,4.0496,4.0496,4.0496,4.0496,4.0496,4.0496,4.0496,4.0496,4.0496,4.0496,4.0496,4.0496,4.0496,4.0496,4.0496,4.0496,4.0496,4.0496,4.0496,4.0496,4.0496,4.0496,4.0559,4.0596,4.0596,4.0688,4.0781,4.0832,4.0903,4.0964,4.0994,4.0947,4.0959,4.1083,4.1048,4.1056,4.1191,4.1191,4.1191,4.1191,4.1191,4.1191,4.1191,4.1191,4.1191,4.0636,4.0674,4.074,4.0906,4.0979,4.1025,0.0,0.0,0.0,4.1017,4.0844,4.0713,4.0703,4.0582,4.0458,4.0285,4.04,4.0458,4.0285,4.04,0.0,4.0496,4.0496,4.0496,4.0496,4.0496,4.0227,3.9573,3.8873,3.8411,3.8257,3.8257,3.8161,3.8007,3.7315,3.6942,3.6942,3.6135,3.5731,3.5731,3.5577,3.55,3.55,3.55,3.55,3.55,3.55,3.55,3.55,3.55,3.55,3.55,3.55,3.55,3.55,3.55,3.55,3.5615,3.6423,3.7276,3.8142,3.9015,3.9842,4.0496,4.0496,4.0496,4.0496,4.0496,4.0496,4.0496,4.0496,4.0496,4.0496,4.0496,4.0496,4.0496,4.0496,4.0496,4.0496,4.0496,4.0496,4.0496,4.0496,4.0496,4.0496,4.0496,4.0496,4.0496,4.0496,4.0496,4.0496,4.0496,4.0527,4.0575,4.0686,4.0707,4.0742,4.082,4.0809,4.087,4.1026,4.1049,4.1082,4.1191,4.1191,4.1191,4.1191,4.1191,4.1191,4.1191,4.1191,4.1191,4.0519,4.061,4.0709,4.0724,4.0875,4.0998,4.1023,0.0,4.1149,4.1025,0.0,4.0766,4.0701,0.0,0.0,3.9554,4.0035,4.0246,3.9534,4.0054,4.0496,4.0496,4.0496,4.0496,4.0496,4.0496,4.0458,4.0362,4.0265,3.99,3.9188,3.915,3.8796,3.8027,3.7892,3.7853,3.7853,3.7007,3.6558,3.6558,3.5846,3.55,3.55,3.55,3.55,3.55,3.55,3.55,3.55,3.55,3.55,3.55,3.55,3.55,3.55,3.55,3.55,3.5615,3.6423,3.7276,3.8142,3.9015,3.9842,4.0496,4.0496,4.0496,4.0496,4.0496,4.0496,4.0496,4.0496,4.0496,4.0496,4.0496,4.0496,4.0496,4.0496,4.0496,4.0496,4.0496,4.0496,4.0496,4.0496,4.0496,4.0496,4.0496,4.0496,4.0496,4.0496,4.0496,4.0496,4.0496,4.0603,4.068,4.0697,4.0757,4.0843,4.0962,4.0867,4.0914,4.1171,4.1171,4.1172,4.1191,4.1191,4.1191,4.1191,4.1191,4.1191,4.1191,4.1191,4.1191,4.0465,4.0537,4.0596,4.0674,4.0752,4.0863,4.0962,4.1031,4.1087,4.111,0.0,0.0,0.0,0.0,0.0,0.0,4.034,4.0381,4.0035,4.0285,4.0496,4.0496,0.0,0.0,4.0496,4.0496,0.0,0.0,4.0496,4.0342,4.0015,3.9996,3.9823,3.9457,3.8988,3.8738,3.8738,3.7892,3.7199,3.6692,3.6365,3.5942,3.55,3.55,3.55,3.55,3.55,3.55,3.55,3.55,3.55,3.55,3.55,3.55,3.55,3.55,3.5808,3.6327,3.7161,3.8027,3.8892,3.9727,4.0227,4.0496,4.0496,4.0496,4.0496,4.0496,4.0496,4.0496,4.0496,4.0496,4.0496,4.0496,4.0496,4.0496,4.0496,4.0496,4.0496,4.0496,4.0496,4.0496,4.0496,4.0496,4.0496,4.0496,4.0496,4.0496,4.0496,4.0496,4.0496,4.0496,4.0552,4.0575,4.0575,4.0604,4.0659,4.0701,4.0722,4.0812,4.0959,4.0962,4.0998,4.108,4.1017,4.0962,4.0962,4.1051,4.1081,4.1081,4.1151,4.1191,4.0449,0.0,0.0,0.0,0.0,0.0,0.0,0.0,0.0,0.0,4.1083,0.0,0.0,0.0,4.0632,4.0399,0.0,4.046,4.0215,4.0362,4.0496,4.0496,0.0,0.0,0.0,4.0496,4.0496,4.0496,4.0496,4.0496,4.0496,4.0496,4.0496,4.0496,3.9938,3.9631,3.9631,3.8777,3.8046,3.7411,3.6923,3.6385,3.5827,3.5596,3.55,3.55,3.55,3.55,3.55,3.55,3.55,3.55,3.55,3.55,3.55,3.55,3.6,3.6827,3.77,3.8719,3.9727,4.0304,4.0496,4.0496,4.0496,4.0496,4.0496,4.0496,4.0496,4.0496,4.0496,4.0496,4.0496,4.0496,4.0496,4.0496,4.0496,4.0496,4.0496,4.0496,4.0496,4.0496,4.0496,4.0496,4.0496,4.0496,4.0496,4.0496,4.0496,4.0496,4.0496,4.0496,4.0496,4.0496,4.0496,4.0496,4.0519,4.0552,4.066,4.0747,4.0797,4.0797,4.0854,4.093,4.0854,4.0797,4.0797,4.0905,4.0952,4.0955,4.1126,4.1191,0.0,0.0,0.0,4.0504,0.0,0.0,0.0,0.0,4.1048,0.0,0.0,0.0,4.0996,4.0899,4.0507,3.9594,4.0161,0.0,0.0,4.0015,4.0496,4.0496,4.0496,0.0,0.0,4.0496,4.0496,4.0496,4.0496,4.0496,4.0496,4.0496,4.0496,4.0496,4.0477,4.0458,4.0458,3.9669,3.9246,3.9207,3.7507,3.6692,3.6635,3.5865,3.55,3.55,3.55,3.55,3.55,3.55,3.55,3.55,3.55,3.55,3.55,3.55,3.6,3.6827,3.77,3.9084,4.0477,4.0496,4.0496,4.0496,4.0496,4.0496,4.0496,4.0496,4.0496,4.0496,4.0496,4.0496,4.0496,4.0496,4.0496,4.0496,4.0496,4.0496,4.0496,4.0496,4.0496,4.0496,4.0496,4.0496,4.0496,4.0496,4.0496,4.0496,4.0496,4.0496,4.0496,4.0496,4.0496,4.0496,4.0496,4.0496,4.0552,4.068,4.0767,4.0793,4.0797,4.0797,4.0801,4.0805,4.0801,4.0797,4.0797,4.0801,4.0805,4.0809,4.1078,4.1191,0.0,0.0,4.0496,4.0496,0.0,0.0,0.0,0.0,0.0,0.0,0.0,0.0,0.0,4.1023,4.0819,4.0503,4.0638,4.064,0.0,4.0386,4.0496,4.0496,4.0496,4.0496,0.0,0.0,4.0496,4.0496,4.0496,4.0496,4.0496,4.0496,4.0496,4.0496,4.0496,4.0496,4.0496,4.0227,3.9823,3.9284,3.87,3.7815,3.6692,3.6423,3.6,3.55,3.55,3.55,3.55,3.55,3.55,3.55,3.55,3.55,3.5558,3.6096,3.6827,3.7757,3.9161,4.0035,4.0496,4.0496,4.0496,4.0496,4.0496,4.0496,4.0496,4.0496,4.0496,4.0496,4.0496,4.0496,4.0496,4.0496,4.0496,4.0496,4.0496,4.0496,4.0496,4.0496,4.0496,4.0496,4.0496,4.0496,4.0496,4.0496,4.0496,4.0496,4.0496,4.0496,4.0496,4.0496,4.0496,4.0496,4.0496,4.0496,4.0527,4.0566,4.059,4.0635,4.0731,4.0641,4.0635,4.0731,4.0641,4.0604,4.0604,4.0688,4.0736,4.0742,4.0877,4.0988,4.0457,4.0496,0.0,4.0496,4.0496,0.0,4.0661,0.0,4.08,0.0,0.0,0.0,0.0,4.1128,4.1054,4.1017,4.0922,4.0836,0.0,4.0649,4.0574,4.0574,4.0534,4.0496,4.0496,4.0496,4.0496,4.0496,4.0496,4.0496,0.0,0.0,4.0496,4.0496,4.0496,4.0496,4.0496,4.0496,4.0246,3.9727,3.9438,3.87,3.7603,3.6981,3.6423,3.5904,3.5615,3.55,3.55,3.55,3.55,3.55,3.55,3.5673,3.5981,3.65,3.745,3.8661,4.0035,4.0496,4.0496,4.0496,4.0496,4.0496,4.0496,4.0496,4.0496,4.0496,4.0496,4.0496,4.0496,4.0496,4.0496,4.0496,4.0496,4.0496,4.0496,4.0496,4.0496,4.0496,4.0496,4.0496,4.0496,4.0496,4.0496,4.0496,4.0496,4.0496,4.0496,4.0496,4.0496,4.0496,4.0496,4.0496,4.0496,4.0496,4.0496,4.0496,4.0496,4.053,4.063,4.0545,4.0684,4.1087,4.0692,4.065,4.095,4.073,4.063,4.0636,4.0717,4.0817]}]]